GFSSW_925_temp_000.txt.gz
Temp
20 20 20 20 21 22 23 23 24 24 24 24 24 24 25 24 25 24 22 31 33 33 32 33 32 33 33 32 32 30 26 27 29 30 32 32 30 31 31 28 29 30 27 26 25
20 20 20 20 21 22 22 23 23 24 24 24 24 24 24 23 22 21 33 33 33 32 32 32 32 33 31 33 33 32 28 29 31 31 32 32 32 31 29 29 28 28 28 27 26
19 20 20 20 21 21 22 22 23 23 24 24 24 24 23 22 21 26 33 33 32 32 32 33 33 33 31 32 33 32 33 33 32 33 33 31 32 30 29 27 28 27 27 27 26
17 19 20 20 21 21 21 22 23 23 23 24 23 23 23 21 27 33 34 33 31 32 32 32 32 32 32 33 36 34 35 34 32 32 33 32 30 30 29 28 29 29 28 27 26
17 18 19 20 21 21 21 22 23 23 23 24 23 23 21 22 24 34 34 33 32 31 31 31 32 33 32 33 35 35 35 34 34 32 31 31 31 30 29 29 29 29 29 27 26
16 17 18 19 20 21 22 22 23 23 23 24 22 21 19 23 32 33 33 33 33 31 31 31 32 33 33 33 35 36 34 34 33 31 31 31 31 31 29 29 29 29 27 28 27
15 16 18 19 20 21 22 23 23 24 24 23 21 19 18 24 32 32 32 33 34 33 30 33 34 33 33 33 35 36 33 34 32 32 31 32 30 30 30 29 29 28 28 28 27
15 15 17 19 20 21 21 23 23 25 23 21 20 17 20 30 30 32 32 31 32 33 33 35 34 33 33 34 35 34 33 30 32 32 32 30 28 30 30 29 28 28 28 28 27
15 16 17 18 19 20 22 23 24 22 20 20 18 18 22 30 29 34 32 31 33 33 33 34 35 32 33 33 30 30 31 31 32 33 31 30 28 30 30 29 28 29 29 29 27
12 16 17 18 19 19 22 24 22 20 19 18 18 21 24 30 33 34 34 33 32 33 33 33 31 30 28 28 29 32 31 33 32 32 32 30 29 30 30 29 29 29 29 29 28
12 13 17 18 19 18 21 23 20 21 20 24 26 26 29 32 33 34 35 33 33 31 30 32 30 29 30 30 32 32 32 32 33 33 30 30 29 30 30 30 29 29 28 28 28
11 13 14 18 19 20 17 15 24 25 22 26 26 27 30 31 30 32 35 31 30 29 30 30 29 30 32 33 32 33 33 32 34 33 31 29 29 30 30 30 30 29 28 28 27
10 12 14 17 20 18 18 21 24 23 21 26 28 29 30 30 30 31 31 30 31 30 30 28 31 33 33 33 33 32 32 32 33 34 31 30 29 28 30 31 30 30 30 29 27
10 11 12 16 20 16 18 24 25 24 22 25 27 28 30 30 30 33 33 32 31 30 30 30 32 33 33 33 32 30 33 35 34 34 29 30 27 27 30 29 30 29 29 29 27
10 11 12 13 12 12 24 24 25 24 22 29 30 32 29 30 32 32 35 32 31 32 30 30 32 32 32 34 33 33 33 33 33 33 30 31 27 30 27 26 27 29 30 30 28
11 13 10 13 11 21 21 23 24 22 22 29 32 30 31 30 32 33 33 33 33 32 31 31 33 32 33 35 34 36 36 31 29 27 27 29 28 26 27 30 30 29 30 31 29
11 16 11 8 13 21 21 20 21 21 27 30 30 30 30 30 31 31 32 31 31 28 29 31 33 34 34 33 33 35 29 28 29 27 27 26 29 30 29 32 31 30 30 31 29
12 17 19 18 21 19 17 20 21 25 26 28 29 30 30 31 30 32 30 30 29 29 27 29 30 33 34 33 32 31 29 26 29 28 29 28 30 33 30 32 31 32 31 31 29
13 16 13 20 20 18 17 19 21 23 27 29 28 28 29 31 31 31 28 31 32 28 30 26 28 33 34 35 33 33 30 29 28 28 28 28 31 32 31 31 31 31 30 30 29
8 10 13 20 20 17 17 20 21 26 27 28 27 27 27 28 29 29 29 31 32 31 29 29 29 31 35 34 33 34 31 30 25 29 30 28 31 28 29 29 30 30 29 29 30
9 10 20 21 19 15 17 18 24 26 27 27 27 27 28 28 30 29 31 32 33 33 29 30 28 32 33 32 32 32 31 28 27 26 27 27 27 28 30 29 28 29 30 28 28
6 12 19 20 18 16 17 22 25 26 27 27 28 28 28 29 29 30 31 33 34 34 31 28 26 30 31 32 33 31 30 28 27 29 25 25 27 30 29 28 30 30 30 27 29
5 8 20 20 17 17 19 23 25 25 25 26 28 29 30 29 28 31 31 34 33 34 33 31 26 29 29 30 32 33 31 28 25 24 26 27 27 30 30 29 29 28 28 27 27
6 10 14 15 16 20 18 20 23 26 26 27 28 29 29 29 29 29 30 33 34 35 33 31 26 29 30 28 31 32 32 30 28 26 26 27 30 31 30 29 29 28 27 26 26
7 11 14 14 15 15 17 19 22 24 26 26 26 27 26 26 28 30 29 30 33 33 33 31 28 27 29 33 32 34 34 30 30 29 30 30 29 28 27 28 28 28 28 28 27
9 11 11 11 12 16 17 21 21 23 25 26 26 26 25 27 28 28 28 28 29 29 31 26 28 28 32 32 34 35 34 33 33 31 32 30 29 28 28 29 28 29 29 28 28
9 11 9 11 13 15 17 18 20 22 24 24 24 25 26 27 27 26 26 26 28 29 28 26 26 26 29 31 32 32 34 34 34 32 33 29 30 28 29 28 27 28 28 28 28

GFSSW_925_temp_003.txt.gz
Temp
19 19 20 20 21 21 21 22 22 22 23 23 24 24 24 25 26 25 22 31 32 33 31 31 29 30 30 30 31 29 27 28 28 28 28 28 28 28 28 27 28 28 25 25 23
18 19 19 20 21 21 21 21 22 22 22 22 24 24 23 23 21 20 32 32 32 32 31 30 30 30 29 31 31 29 26 29 29 30 29 29 29 29 27 27 26 26 26 24 24
18 18 19 19 20 21 21 21 22 22 22 22 23 23 23 22 20 25 32 32 31 31 31 32 32 32 31 31 31 30 29 31 31 31 31 30 30 29 27 26 26 25 24 24 24
17 18 18 19 20 20 21 21 22 22 22 23 24 23 22 20 27 32 32 33 32 30 30 31 30 30 30 31 32 31 32 32 31 31 31 30 29 28 27 27 28 26 25 25 24
15 17 18 19 20 20 21 21 21 22 23 23 23 22 20 22 23 32 31 32 31 30 30 30 31 31 32 31 32 32 33 32 32 30 31 31 29 28 28 28 27 26 26 25 24
13 16 17 19 19 20 20 21 22 22 23 24 22 20 19 23 31 31 31 31 31 29 29 30 31 31 32 32 33 33 33 32 30 30 30 29 28 28 28 28 27 26 25 25 25
13 13 16 18 19 20 20 22 23 23 24 22 20 17 18 24 31 30 29 31 30 31 29 31 32 33 32 31 34 33 31 31 31 30 29 30 29 26 28 28 26 26 26 25 25
13 14 14 16 18 19 21 22 24 24 22 20 18 16 20 29 29 30 31 31 31 31 31 33 33 32 32 32 32 31 30 30 31 31 30 29 27 27 27 27 27 27 26 26 25
12 14 15 16 17 19 21 24 24 21 20 19 16 17 22 29 27 32 31 31 31 31 32 32 33 31 32 29 28 30 30 29 30 31 30 29 26 27 27 27 27 27 27 27 25
11 12 15 16 17 18 21 24 21 19 18 17 17 20 25 30 31 32 33 32 31 30 32 32 29 29 26 27 27 31 29 30 30 31 29 27 27 27 27 26 26 27 27 27 26
10 12 14 16 18 18 22 22 19 20 18 23 23 25 27 29 31 31 32 30 31 30 28 30 29 27 28 29 30 31 31 30 31 31 29 28 27 27 27 27 26 26 26 26 26
10 12 14 16 18 19 19 18 22 21 18 22 23 25 27 29 28 30 31 30 29 28 29 29 27 29 30 30 31 32 32 30 32 30 29 27 27 28 28 27 27 27 27 27 27
10 12 13 16 18 16 16 19 22 21 18 23 25 25 26 27 27 28 29 29 29 28 27 26 29 30 31 31 31 30 30 31 31 30 29 28 27 27 28 28 28 28 28 28 27
9 12 11 14 16 15 15 22 21 20 20 23 25 27 27 28 28 31 30 30 30 28 28 28 30 31 31 32 31 30 30 32 31 30 28 29 26 25 27 28 28 28 27 28 26
10 12 10 7 10 10 22 22 22 21 21 27 28 30 27 29 29 30 32 30 29 30 28 28 30 30 31 31 31 31 31 31 31 30 27 28 26 26 26 26 27 28 28 28 27
10 14 9 11 9 19 20 21 21 21 21 26 29 29 28 28 30 31 31 32 30 30 30 29 31 31 31 32 32 33 33 27 25 25 26 27 27 26 27 28 29 29 28 28 27
10 15 11 8 13 20 20 18 21 20 25 27 28 28 29 28 30 31 29 29 29 27 27 31 31 32 33 32 31 31 27 26 27 26 26 26 27 28 27 30 30 29 29 28 28
10 16 17 17 19 16 17 18 20 23 23 25 27 27 29 30 29 29 28 29 28 28 26 26 28 30 32 31 30 29 27 25 27 25 27 25 27 30 31 30 31 30 30 29 29
11 15 12 19 17 16 16 18 20 22 25 27 26 26 27 28 29 29 27 29 30 27 27 24 26 30 31 32 31 31 27 28 26 25 25 25 28 31 29 28 30 30 29 28 29
7 8 12 18 16 15 16 18 20 23 26 26 26 26 26 26 26 27 27 28 31 28 28 27 28 29 32 32 31 32 29 29 24 27 28 27 30 28 30 27 28 29 29 29 29
8 9 17 17 17 14 16 17 21 24 26 26 25 25 25 25 26 26 27 29 30 31 29 25 26 28 31 29 30 29 29 26 25 24 26 26 26 25 30 26 27 28 29 29 28
5 11 15 15 16 13 15 17 23 24 26 25 26 25 25 26 26 26 26 28 31 32 28 26 25 28 28 29 31 30 29 29 30 27 23 25 27 29 28 26 27 28 28 26 27
7 5 15 16 15 15 16 21 23 24 23 24 24 26 27 26 25 26 27 30 31 31 30 26 24 25 27 29 29 30 28 26 24 23 24 26 27 28 27 26 26 26 26 26 26
6 8 11 12 12 17 15 18 20 24 24 24 24 25 26 26 25 26 28 30 31 31 31 29 22 30 29 29 29 31 29 27 27 25 24 25 30 31 28 28 26 25 25 26 26
7 8 12 12 14 13 15 16 19 21 23 24 23 25 25 23 26 27 28 28 27 29 29 30 27 25 31 31 30 31 31 28 29 29 30 28 28 28 27 27 27 27 25 25 25
7 8 8 9 11 13 15 17 18 20 21 22 22 25 24 24 25 26 26 26 25 26 27 25 27 26 28 29 30 31 31 30 31 27 30 27 28 27 30 26 27 27 27 26 24
8 8 7 10 12 13 14 16 18 18 20 21 22 23 24 26 25 25 25 24 24 23 24 24 28 24 30 29 29 29 30 30 30 30 30 29 29 27 27 27 27 27 27 27 25

GFSSW_925_temp_006.txt.gz
Temp
17 17 18 20 20 21 21 21 21 21 22 23 23 24 24 24 25 25 22 30 32 31 30 27 26 27 26 27 28 28 28 26 27 27 28 27 27 27 27 25 26 26 24 24 22
17 17 16 18 20 20 21 21 21 21 21 22 24 24 23 23 21 19 32 31 31 32 29 27 26 26 26 28 29 28 27 29 28 28 27 27 27 27 26 26 25 24 23 23 22
15 16 16 17 18 20 21 21 22 22 22 22 24 24 23 22 20 25 31 31 29 30 31 30 31 28 29 29 30 28 29 29 30 29 29 28 28 27 26 25 25 23 22 23 22
14 15 16 16 17 18 19 21 21 22 22 23 23 23 21 20 25 30 30 30 30 28 30 30 29 29 29 29 30 31 30 30 30 29 29 28 27 26 26 26 26 24 23 23 22
14 14 15 17 18 18 18 20 21 23 23 23 23 21 18 21 22 31 30 30 29 27 28 28 28 28 30 29 31 31 31 30 30 29 29 28 28 27 27 26 26 24 24 23 23
12 15 15 17 18 18 18 19 21 23 23 23 21 20 17 22 30 29 29 28 28 27 28 29 29 29 31 31 31 32 31 29 28 28 28 27 27 27 27 26 25 24 24 23 23
11 13 15 16 17 17 19 21 22 23 23 22 20 17 17 23 30 29 29 28 28 29 26 31 31 31 31 32 32 31 29 29 29 29 28 29 28 27 26 26 25 24 24 24 24
12 13 14 15 17 18 20 22 23 23 20 20 18 15 19 28 28 29 29 29 29 29 31 31 31 31 32 32 31 31 29 28 30 29 28 29 27 26 26 25 24 25 24 24 24
10 12 14 15 16 17 20 23 22 19 19 19 16 17 21 28 27 30 29 29 29 29 30 31 31 29 31 29 27 29 27 28 30 29 29 28 26 26 26 25 24 25 24 24 24
9 10 13 15 16 18 21 23 19 17 16 16 16 20 23 29 29 30 30 30 30 27 29 30 26 26 24 26 26 28 28 28 28 29 28 27 26 25 26 25 25 25 25 24 24
10 12 12 15 16 18 21 19 18 19 18 22 23 23 25 27 29 30 30 29 29 28 26 27 27 25 27 28 29 29 28 30 30 30 28 26 25 25 26 25 25 25 25 25 25
9 12 12 15 16 18 17 16 18 19 17 19 21 23 25 27 27 28 30 28 28 27 27 26 26 27 28 29 29 29 28 29 30 29 29 27 27 26 26 26 26 25 25 25 25
9 11 11 16 17 15 14 17 19 19 17 21 21 23 23 24 25 27 28 27 28 26 27 25 28 28 29 28 29 28 28 28 30 28 28 27 26 25 25 26 26 26 26 25 25
9 10 10 14 15 14 14 18 19 18 18 22 24 25 25 24 25 29 29 29 28 26 26 26 29 29 28 29 28 27 29 30 29 28 26 27 25 24 26 25 26 26 26 26 26
8 12 8 7 10 9 20 19 19 18 21 26 27 28 26 26 28 27 29 28 27 28 27 27 28 29 29 29 29 30 29 29 28 27 26 27 26 26 25 24 26 27 27 27 26
9 13 7 9 9 18 18 20 18 20 21 25 27 28 26 27 28 29 29 30 28 28 28 27 29 29 29 31 31 29 28 25 23 23 25 26 27 26 23 27 28 28 28 27 27
9 14 12 6 12 17 18 17 19 19 24 26 27 27 27 26 27 29 27 27 26 25 25 28 29 31 31 30 30 27 26 25 26 24 24 24 25 29 27 28 30 28 28 28 28
10 14 16 14 15 14 15 17 18 22 22 24 26 25 28 26 26 28 27 26 26 26 23 25 27 28 30 29 28 27 26 24 27 25 26 24 25 28 31 30 29 28 29 28 28
10 13 12 15 14 13 14 16 18 20 24 26 25 26 25 26 27 27 26 25 27 25 26 23 25 28 30 30 30 28 26 26 23 23 25 24 25 29 30 29 27 28 27 27 27
6 6 10 14 13 13 14 16 18 21 25 25 25 25 26 25 25 26 26 27 28 27 26 25 26 27 30 31 30 28 26 27 22 25 26 25 27 27 29 29 27 26 27 27 27
7 8 13 13 14 12 14 15 20 21 23 25 24 24 25 25 25 25 26 27 29 30 25 24 24 27 28 28 29 27 26 23 23 22 24 25 24 24 28 28 28 26 28 27 27
6 11 12 12 14 10 13 16 20 23 24 24 24 24 23 24 24 24 24 26 28 28 27 24 25 26 26 28 29 29 27 26 28 25 21 23 26 28 27 28 26 26 28 26 26
5 5 13 14 13 13 14 18 21 22 23 23 23 23 24 23 23 23 24 27 27 26 26 24 22 26 26 26 28 28 26 23 22 21 22 26 26 27 25 25 24 24 24 24 24
6 7 8 10 9 14 13 16 19 22 22 22 22 23 23 23 22 23 25 28 28 28 26 27 22 26 28 28 27 28 27 25 26 23 23 24 29 30 27 26 24 24 24 23 24
7 6 8 9 12 11 13 14 18 19 21 22 21 21 21 20 22 22 24 26 27 25 24 24 26 25 29 27 27 28 28 25 26 26 28 29 26 28 27 26 25 25 24 23 23
8 8 7 7 9 11 12 14 16 18 18 20 20 22 21 21 22 24 24 24 26 24 25 22 25 23 29 29 28 29 28 27 27 28 27 28 26 26 28 26 25 25 24 24 24
6 7 7 9 9 11 12 14 15 15 17 19 20 18 19 21 21 22 22 23 21 24 21 22 24 22 27 26 26 26 30 28 28 27 27 27 28 26 26 26 26 24 24 26 25

GFSSW_925_temp_009.txt.gz
Temp
16 18 18 18 19 20 20 20 21 22 22 23 24 25 25 26 27 24 25 29 31 30 28 26 26 26 26 29 30 31 32 32 32 31 32 31 30 29 29 27 28 28 27 27 24
14 15 16 18 19 20 20 20 19 21 22 23 24 24 24 24 22 21 30 29 31 30 27 28 29 28 31 31 32 32 32 33 34 33 32 31 31 29 28 28 28 27 26 25 23
12 14 15 16 19 19 20 20 19 19 21 23 24 24 23 22 22 29 28 29 29 29 30 29 29 31 31 32 32 32 33 33 33 33 33 31 30 30 29 28 29 27 25 25 24
11 12 14 16 17 18 19 20 21 20 21 22 24 23 22 21 29 30 29 29 29 28 29 29 30 31 32 33 34 33 34 34 34 32 32 31 32 30 29 30 30 28 26 25 25
9 12 14 15 17 18 18 19 20 22 22 22 23 21 19 24 27 30 29 29 28 27 30 31 31 32 33 33 33 33 34 34 34 32 33 32 31 31 29 30 29 27 26 26 26
8 11 13 15 17 17 18 19 21 22 23 24 22 19 18 26 29 29 28 28 27 26 29 30 33 33 34 34 34 34 33 33 33 32 31 32 30 31 30 28 27 27 26 26 26
8 10 12 14 16 17 19 20 22 23 23 22 20 16 19 27 29 28 28 28 27 26 29 30 32 33 34 34 34 33 32 32 32 32 31 31 29 30 30 28 27 27 27 26 26
8 10 11 13 15 17 20 21 23 23 21 19 17 14 24 27 27 28 28 27 27 27 29 30 30 33 33 33 33 34 33 33 31 32 30 33 33 31 29 28 27 27 27 26 26
9 11 13 15 15 17 20 22 21 19 18 18 15 17 26 27 27 29 27 29 27 27 28 31 31 32 33 34 33 32 34 33 31 33 31 32 33 31 29 29 28 28 27 27 27
9 11 12 14 16 18 21 19 17 16 15 14 15 20 26 30 29 29 28 28 30 29 30 31 31 33 32 34 34 34 33 33 33 32 32 31 32 29 29 29 29 28 28 28 27
10 11 11 15 16 18 20 18 21 21 18 26 27 26 27 28 28 29 28 29 30 30 30 30 31 32 33 34 36 35 34 34 33 32 32 32 32 29 29 29 29 28 28 28 28
11 11 11 15 16 16 17 19 18 18 21 23 23 24 26 27 28 30 29 30 30 30 29 29 31 32 33 34 33 34 34 34 33 32 33 31 32 31 29 29 29 29 28 28 28
10 10 10 15 16 16 13 16 17 17 21 24 23 25 26 25 26 29 30 30 30 30 30 30 32 31 31 33 33 34 34 34 34 32 31 32 33 30 29 29 29 29 30 29 29
9 10 9 13 15 13 16 17 17 17 24 26 26 27 26 26 26 29 31 31 30 30 29 30 32 31 31 33 34 34 34 34 33 33 33 33 33 32 31 29 29 29 29 29 29
8 10 9 7 9 12 18 18 17 17 25 28 28 27 27 27 29 28 30 30 30 30 30 30 30 30 32 33 33 35 34 34 34 34 31 30 32 35 30 30 30 30 30 30 30
9 11 8 8 8 16 16 18 18 24 24 27 28 29 27 28 29 28 29 31 31 30 29 31 31 33 33 33 33 32 32 31 31 33 31 33 32 35 31 31 33 32 31 30 30
10 12 12 6 13 15 17 19 23 23 26 28 28 28 29 29 29 30 29 29 30 28 29 30 31 32 33 33 33 33 33 31 31 30 32 31 31 34 35 33 34 34 32 31 31
11 13 13 11 13 12 14 22 21 24 27 26 27 27 28 28 29 30 29 30 30 31 30 29 29 31 33 34 32 32 34 33 30 31 32 28 31 34 35 36 33 34 33 32 32
11 11 10 13 12 10 18 21 24 24 26 27 28 28 29 28 28 29 29 30 31 31 29 29 29 31 32 33 34 32 31 36 34 29 32 33 32 33 34 34 33 34 33 32 32
6 6 9 12 11 12 19 21 23 24 26 27 27 27 27 27 28 29 29 30 30 31 32 30 29 32 33 33 32 33 34 32 32 31 30 32 31 35 35 36 35 32 33 33 32
6 11 12 11 11 16 19 20 22 24 24 26 26 26 27 27 27 28 28 29 30 30 31 31 31 31 30 32 33 32 32 30 34 33 33 32 33 34 35 36 36 34 34 33 32
6 13 11 10 16 16 18 19 21 24 25 25 26 26 26 27 27 27 27 29 30 30 29 30 30 30 31 32 32 34 33 33 33 31 31 33 34 35 34 36 36 36 34 33 31
7 8 11 12 16 17 17 18 20 23 24 25 25 26 26 26 25 26 28 29 29 30 30 28 29 29 29 32 32 31 33 33 33 33 32 32 34 34 32 31 32 32 33 30 30
7 10 13 13 13 15 15 18 19 22 22 24 25 25 25 25 25 26 26 29 29 30 26 28 29 29 30 31 32 31 31 32 32 33 33 32 34 35 35 33 34 32 31 30 29
8 10 9 12 14 13 14 16 18 19 22 22 23 24 24 24 25 25 26 27 28 29 28 29 28 29 31 33 32 32 32 32 31 33 33 34 33 35 35 35 35 34 31 29 28
8 9 8 9 10 12 13 16 17 18 18 21 22 24 25 23 24 25 26 27 27 27 28 27 28 27 28 30 32 32 33 33 32 33 32 35 33 35 36 34 32 32 30 29 29
6 7 7 10 11 12 14 15 16 15 18 19 19 19 20 22 22 23 24 26 26 25 25 27 27 27 29 30 30 30 32 33 33 33 33 33 34 36 33 32 33 33 31 30 30

GFSSW_925_temp_012.txt.gz
Temp
14 15 16 17 18 19 20 20 21 22 23 24 24 25 25 26 26 22 29 31 31 30 27 28 30 31 32 35 35 36 37 36 36 36 35 35 34 34 34 32 32 32 33 31 28
10 13 16 17 18 19 18 19 20 21 23 23 24 25 25 25 22 29 31 29 29 30 29 31 33 33 35 36 36 36 37 37 38 38 37 35 35 34 33 32 32 31 31 29 28
9 11 13 15 17 18 18 18 19 21 22 23 24 24 24 23 27 34 29 30 29 28 32 33 34 35 36 37 37 38 37 38 38 38 38 36 35 35 34 33 33 32 30 30 28
11 13 14 14 16 17 17 18 18 20 22 23 23 24 23 19 31 31 29 28 30 27 31 33 35 35 36 36 38 37 38 38 39 37 37 37 37 35 34 35 35 33 31 30 30
12 14 15 16 16 17 17 18 19 20 22 22 23 22 19 28 31 31 29 29 26 28 31 34 34 35 36 38 38 37 38 38 39 37 38 37 36 35 34 34 34 33 31 31 31
8 11 14 16 17 17 17 18 20 21 22 22 21 20 22 29 32 29 28 27 29 29 32 34 35 37 37 38 38 39 38 38 38 37 37 36 36 35 35 34 33 32 31 31 31
8 9 12 14 16 17 18 19 20 22 22 23 18 17 25 30 30 29 28 30 30 31 34 34 35 36 37 37 38 38 37 36 37 37 36 37 34 34 35 34 33 32 32 32 31
10 11 12 13 15 17 19 21 21 22 22 20 18 18 28 30 29 29 29 30 29 30 32 34 34 36 37 38 37 37 38 37 37 36 36 36 36 35 35 34 33 32 32 31 31
9 11 12 14 16 16 19 20 19 18 18 18 18 22 31 28 29 31 31 32 31 31 31 33 34 35 36 36 37 38 37 38 36 36 35 35 37 36 35 35 33 32 32 32 31
8 10 12 13 16 18 20 19 16 16 15 16 19 24 30 33 32 31 31 32 33 33 32 33 34 35 36 37 36 37 37 38 37 36 36 36 36 35 35 35 34 33 33 32 32
10 11 12 13 15 17 19 20 23 24 21 30 32 32 32 32 31 33 31 32 34 33 33 34 33 34 36 37 38 39 38 38 39 38 36 37 36 36 34 35 35 34 33 33 33
9 10 11 14 16 16 16 25 22 21 25 30 30 30 31 32 30 33 32 33 33 33 34 33 33 36 37 37 37 38 38 38 39 37 37 37 36 37 36 34 35 35 34 33 33
10 9 10 15 16 16 17 22 19 20 25 30 30 30 31 31 30 32 33 33 33 33 34 34 35 36 36 36 36 37 38 38 38 36 37 37 36 36 37 36 35 35 35 34 34
10 10 10 12 17 16 22 19 18 19 27 32 30 31 29 31 30 32 34 33 33 33 34 34 36 35 35 35 37 37 39 39 38 37 35 37 36 38 38 36 35 35 35 35 34
8 11 10 9 11 18 20 18 18 21 28 31 31 31 32 31 33 32 33 34 33 33 34 33 34 34 34 35 37 37 39 38 38 37 37 36 36 37 38 37 37 36 36 35 35
8 9 9 13 12 15 16 17 20 26 27 31 32 31 31 32 32 31 32 34 35 34 34 34 35 35 35 36 37 38 38 38 38 38 36 37 36 37 38 37 39 38 37 36 36
8 10 11 10 19 15 16 22 26 27 30 31 31 32 33 33 32 32 31 32 32 31 32 33 34 35 36 35 37 37 36 34 34 35 35 37 37 37 39 40 40 40 39 37 36
8 11 12 12 13 13 16 24 25 29 30 31 31 32 32 33 33 32 32 32 33 33 33 32 32 34 35 36 36 36 37 35 33 34 35 37 35 37 39 40 40 40 40 38 37
8 13 14 14 12 13 21 24 27 28 30 31 31 31 32 32 32 33 32 33 34 34 32 33 33 35 35 36 37 36 36 38 37 37 37 37 36 38 39 39 39 40 39 39 38
8 12 16 14 12 15 21 23 28 29 30 30 30 32 32 33 31 32 33 34 34 34 35 34 32 35 35 36 37 37 37 35 37 34 34 36 37 37 38 39 40 39 39 39 38
11 16 15 13 13 19 22 24 27 28 28 29 30 31 31 32 32 32 33 33 34 34 34 34 33 34 35 34 35 35 35 36 37 36 35 35 36 39 38 39 40 41 40 40 39
12 16 14 14 18 22 23 25 23 27 28 28 29 30 30 31 31 31 31 33 34 34 33 34 34 32 33 36 36 37 35 36 35 34 36 36 37 41 40 40 40 41 42 41 40
13 16 16 15 18 21 23 23 23 24 27 27 28 29 30 30 29 30 31 32 33 33 33 34 33 31 32 35 35 35 36 36 36 37 36 35 36 40 40 39 39 39 40 39 38
13 16 19 17 19 18 19 19 21 24 25 27 28 29 28 28 30 29 30 31 32 32 28 31 33 32 33 33 35 33 34 35 36 36 35 36 37 38 39 38 39 40 40 39 36
13 16 14 17 18 16 17 18 19 21 23 26 25 27 28 27 28 29 29 31 31 28 31 32 30 33 33 34 35 35 35 34 34 35 35 36 36 38 38 39 39 40 40 39 36
10 12 13 13 14 15 16 17 18 20 22 22 24 26 27 27 28 28 29 29 30 32 31 32 30 31 32 34 34 34 35 35 35 35 35 36 36 39 39 39 39 39 40 39 36
10 10 10 12 13 14 16 17 17 17 19 21 21 21 23 26 27 28 29 29 30 30 30 30 30 30 30 33 34 32 34 35 36 36 36 35 36 38 38 38 39 39 39 39 37

GFSSW_925_temp_015.txt.gz
Temp
14 16 17 18 19 19 18 19 20 21 22 23 24 24 25 25 26 22 31 33 32 31 30 31 33 34 35 38 39 40 34 38 38 37 38 38 37 38 38 35 36 36 35 33 31
11 14 16 17 18 19 19 18 19 20 21 22 23 24 24 25 23 31 32 32 31 31 30 34 35 37 37 38 39 38 25 35 40 40 39 38 38 37 36 35 35 35 35 32 31
9 10 14 16 17 18 18 18 19 20 21 22 23 24 24 24 29 35 31 32 30 30 33 35 36 37 37 39 39 39 33 36 40 40 40 38 38 38 37 35 35 34 34 32 31
8 10 12 14 17 17 17 18 19 20 21 22 23 23 24 22 32 33 31 30 30 29 32 36 37 37 37 38 40 39 40 40 41 40 40 39 39 38 38 38 37 36 34 33 32
8 11 13 14 15 16 17 17 19 21 22 22 23 22 20 30 33 31 30 29 28 29 33 36 37 38 37 39 40 39 40 41 41 40 40 40 39 38 38 38 37 36 34 33 33
11 12 13 14 15 16 17 17 20 21 22 23 23 21 22 30 34 31 31 29 31 31 34 36 37 39 38 39 40 41 41 41 41 41 40 39 39 38 38 38 37 35 34 34 34
12 12 12 13 15 16 18 19 20 22 23 23 22 17 27 31 34 33 32 33 33 33 35 35 37 38 39 39 41 40 39 40 40 40 39 40 38 37 38 37 36 35 35 35 34
12 12 12 14 15 16 18 20 21 21 21 21 21 19 29 33 33 33 33 33 34 34 35 36 36 38 39 40 40 39 40 39 40 40 39 39 37 38 39 37 36 36 35 35 35
10 11 12 15 17 17 18 20 20 19 19 20 19 25 31 31 32 33 33 34 34 34 35 36 37 37 38 37 38 39 38 39 39 40 39 38 28 38 38 38 37 36 36 35 35
9 12 12 14 16 18 20 20 17 17 17 19 23 28 31 34 35 35 34 34 36 36 35 35 36 36 37 38 36 38 38 40 39 39 39 38 37 39 38 38 38 37 36 35 35
9 9 12 14 16 17 19 23 25 24 24 31 33 33 35 35 34 34 35 35 36 35 34 35 35 35 37 38 39 40 40 40 41 41 39 39 39 39 38 38 38 37 36 36 35
9 9 12 14 16 18 17 27 26 25 27 31 33 34 35 35 35 35 35 35 35 34 35 35 35 37 38 39 39 39 40 40 41 40 40 39 39 40 39 38 38 38 37 37 36
8 8 10 15 17 18 23 26 24 25 27 32 34 34 35 35 34 35 36 35 35 35 36 36 37 38 38 38 38 39 39 40 40 40 40 40 38 39 40 39 38 39 38 38 37
8 8 8 12 19 20 25 24 24 24 27 33 34 34 35 35 34 36 37 36 35 35 36 36 39 38 38 38 39 38 40 40 41 38 37 40 38 39 40 40 39 39 39 38 38
8 9 8 11 12 21 24 23 23 25 29 36 35 35 36 34 36 35 36 36 35 36 36 36 37 37 37 38 39 38 41 40 40 40 37 39 38 40 40 40 40 40 39 39 39
8 9 9 14 15 18 20 22 24 27 29 34 35 33 33 35 36 36 35 36 36 36 36 37 39 38 38 39 39 40 39 40 40 40 38 39 38 39 38 40 41 41 40 39 39
9 10 9 10 20 21 21 24 26 28 34 34 34 35 35 35 35 35 34 34 34 33 34 36 37 38 39 37 38 38 38 36 37 37 37 40 39 37 42 42 41 41 42 41 40
9 11 13 15 17 18 19 24 25 31 32 36 36 36 35 36 36 35 34 34 35 35 36 34 34 37 38 37 37 37 38 37 34 37 38 40 38 40 42 42 42 42 43 42 41
8 15 18 19 18 18 22 24 27 30 34 34 35 34 35 36 36 36 35 35 36 36 35 36 35 38 38 38 38 38 38 40 38 39 38 39 40 41 42 42 42 42 42 42 41
9 14 20 20 18 18 21 23 28 31 34 34 33 35 34 35 35 35 35 36 36 37 37 36 35 37 38 38 38 38 40 38 40 36 36 38 39 39 40 40 41 41 42 42 42
11 19 20 18 18 20 21 24 26 28 30 31 32 33 35 35 36 35 35 37 37 37 37 36 36 36 37 36 36 36 38 39 39 39 37 37 39 42 40 40 40 41 42 42 42
15 18 20 18 20 22 22 23 24 28 30 30 31 32 33 35 35 36 35 36 38 37 36 36 36 34 36 38 38 38 37 38 38 36 38 39 39 43 42 41 41 41 42 43 42
15 18 20 20 19 22 23 24 26 27 28 29 30 30 32 33 32 34 35 37 36 36 36 36 34 34 34 37 37 36 37 38 39 39 37 37 38 42 42 42 42 41 41 42 42
13 17 21 21 21 21 21 22 23 26 26 27 28 30 30 30 32 32 33 35 36 35 29 34 35 34 35 35 37 35 36 37 38 38 37 37 38 40 41 40 41 41 41 42 42
13 16 19 18 20 18 17 18 19 18 22 25 26 27 29 28 30 31 32 34 34 33 33 34 33 35 35 36 37 37 37 37 37 37 37 38 38 39 40 40 41 41 41 41 41
11 14 15 16 17 16 16 18 19 19 19 19 21 26 27 28 29 30 31 32 32 34 33 34 32 34 34 36 36 36 37 37 37 37 37 38 38 40 41 41 41 41 40 40 41
10 11 12 13 15 17 17 16 17 19 19 19 18 16 21 24 25 26 29 33 33 32 32 33 33 32 31 34 35 34 36 36 37 38 37 36 37 39 39 40 40 41 41 40 40

GFSSW_925_temp_021.txt.gz
Temp
11 13 14 15 16 17 17 17 18 20 20 21 23 23 23 23 24 23 23 28 30 31 30 31 29 31 32 27 24 26 25 26 30 31 35 35 34 35 35 31 30 32 28 28 28
13 13 13 14 15 16 17 18 18 18 20 21 22 23 23 23 21 22 30 30 31 30 29 31 32 32 31 31 27 26 26 31 34 32 35 36 34 33 34 31 30 30 29 28 28
13 14 14 14 15 16 17 18 18 18 20 21 22 22 23 21 20 29 32 32 32 31 31 33 34 34 32 33 33 31 29 33 33 35 35 36 36 35 34 30 31 30 29 29 29
12 13 14 14 15 15 16 18 18 19 20 21 21 22 22 20 26 32 32 33 32 31 30 32 32 31 32 33 36 33 35 36 37 36 36 36 35 35 34 33 33 32 32 29 29
11 12 14 14 15 16 16 17 18 19 21 21 20 20 21 21 25 31 31 31 31 30 30 31 31 31 32 34 35 35 36 37 38 37 35 37 36 35 35 33 33 32 32 30 28
10 11 12 14 15 16 17 18 18 20 21 20 19 16 16 22 30 31 31 31 31 30 31 31 32 33 34 34 34 36 37 38 37 36 35 35 36 35 34 34 32 32 31 31 31
10 11 12 13 14 15 17 18 20 20 20 20 17 13 19 24 31 32 32 31 32 32 30 33 34 33 34 34 36 36 35 37 39 39 35 34 31 35 35 34 32 31 31 31 31
10 11 13 14 15 15 17 18 20 21 20 19 14 15 18 28 31 31 31 32 33 33 33 34 34 33 33 34 35 35 34 33 36 38 37 31 27 34 35 33 32 32 32 31 31
9 10 12 15 15 16 17 19 21 22 21 17 15 17 22 30 29 31 33 33 34 34 34 35 34 32 33 32 30 32 31 33 35 38 37 33 30 36 35 33 32 32 32 32 31
9 9 10 13 15 16 17 21 21 18 19 16 19 20 25 30 34 33 33 34 33 33 33 33 31 30 31 30 29 30 32 33 35 37 34 32 32 34 34 32 33 32 32 32 31
9 9 9 12 15 17 16 18 21 20 21 24 24 27 30 33 35 34 35 34 33 32 30 31 29 29 30 32 33 33 33 34 36 38 31 32 33 33 33 31 30 32 32 32 32
9 9 9 13 16 18 18 16 23 26 23 27 28 28 29 30 31 35 35 32 31 30 31 30 30 31 33 34 34 34 33 34 36 38 33 31 32 32 32 33 31 33 32 32 32
9 9 10 11 17 19 16 20 25 26 23 26 28 28 29 30 30 33 34 33 32 31 31 30 32 34 34 33 34 33 33 34 34 37 35 31 30 29 32 34 33 34 34 33 32
9 10 10 10 18 14 17 22 24 25 20 26 29 30 30 31 31 34 35 34 32 31 32 31 33 34 33 33 34 32 35 36 36 35 33 33 31 29 32 34 34 34 34 34 33
9 10 10 10 8 12 19 20 22 24 21 33 33 35 31 30 32 33 35 34 32 32 32 31 33 33 33 34 35 34 35 36 36 35 34 35 33 31 32 33 33 35 35 35 34
10 10 10 10 10 15 17 19 22 21 22 31 35 33 31 31 32 35 33 34 34 33 33 32 34 34 34 35 36 36 35 35 35 34 32 33 34 31 33 34 35 36 35 35 35
10 11 10 9 11 19 18 19 20 21 30 33 33 34 33 32 32 32 32 32 31 30 30 32 33 35 36 34 34 35 31 31 31 31 30 32 33 31 35 35 36 36 36 36 36
9 11 14 12 14 16 16 18 19 26 26 31 31 33 32 33 33 33 33 31 32 31 29 29 30 33 35 34 33 33 33 31 28 30 31 32 32 34 37 37 38 38 36 37 37
9 10 12 15 16 16 17 17 21 24 27 26 26 29 32 34 34 33 32 32 33 32 30 30 30 35 36 36 35 32 32 34 30 31 30 33 34 36 36 37 37 36 37 37 36
7 10 13 19 18 18 17 17 21 24 23 22 22 25 26 26 27 32 32 34 33 34 33 31 29 33 35 36 36 34 35 31 33 30 30 33 32 33 34 36 34 34 34 36 35
8 13 17 19 21 19 17 18 20 22 23 23 23 23 24 25 26 27 28 34 35 34 34 32 31 32 34 34 33 33 33 32 31 32 31 30 32 34 34 35 34 36 37 35 37
11 11 17 16 15 19 18 19 19 21 23 23 23 23 23 24 24 25 27 30 35 36 33 33 31 30 32 34 36 35 33 31 30 28 29 31 32 35 36 35 37 37 36 34 34
9 11 14 16 14 17 19 20 21 21 22 22 22 23 24 24 23 25 26 30 32 32 34 34 32 29 30 32 34 34 34 33 33 28 28 27 32 36 36 36 37 36 34 35 34
8 11 15 16 17 17 17 16 15 18 18 20 19 19 20 22 23 23 24 28 30 32 29 29 33 32 30 31 32 32 34 34 33 31 31 31 32 33 36 34 36 35 35 37 34
8 10 13 11 13 12 14 12 14 16 17 16 17 16 15 16 17 20 20 19 21 24 28 28 30 32 33 33 33 34 34 35 33 33 31 32 32 32 33 32 32 34 33 35 36
7 9 10 9 11 12 14 15 16 15 15 15 14 14 14 14 14 13 15 15 16 20 19 21 26 29 31 34 34 34 35 35 35 35 33 33 32 33 33 32 33 33 35 35 34
9 9 7 8 10 12 13 14 13 14 14 14 15 15 14 16 16 15 16 16 16 17 18 20 23 26 28 31 31 31 33 34 34 35 34 32 34 33 33 34 34 34 34 35 34

GFSSW_925_temp_024.txt.gz
Temp
12 14 14 14 15 16 17 18 18 18 19 19 20 21 22 22 24 22 20 28 29 28 29 26 25 27 27 24 24 24 25 27 29 31 31 31 30 30 31 28 29 29 27 26 26
10 12 13 14 14 15 16 16 17 17 19 20 20 21 22 22 19 19 31 30 30 29 28 25 27 28 27 26 26 25 24 28 31 32 32 33 31 31 29 28 28 27 27 26 26
9 11 13 14 14 15 15 16 16 17 18 19 21 21 21 20 17 24 31 31 29 29 28 29 30 29 27 25 26 26 26 30 32 34 33 32 31 31 29 27 28 26 27 27 27
10 11 13 14 15 15 16 16 17 17 18 19 19 21 20 19 25 31 32 33 32 29 28 28 29 29 28 29 29 28 30 32 33 34 33 32 31 30 30 30 29 28 27 27 26
10 11 12 14 15 15 15 16 17 17 18 19 18 18 18 18 21 31 31 32 31 28 27 28 28 28 29 29 31 31 32 33 34 34 33 33 33 31 31 31 30 28 28 27 26
10 11 11 13 14 15 15 16 17 18 18 18 15 13 16 20 28 30 31 29 31 28 28 28 28 29 29 30 30 33 33 34 35 35 34 34 34 33 31 31 29 28 27 27 27
10 10 12 13 14 15 16 17 18 19 20 19 14 12 15 22 29 29 29 31 30 30 28 29 30 30 30 31 32 33 32 33 34 34 34 32 32 31 31 31 30 28 28 28 27
9 9 10 13 14 15 16 17 20 20 21 20 13 13 15 26 30 27 29 28 29 30 31 32 31 29 30 30 32 32 31 31 34 34 33 32 29 31 31 31 30 29 28 28 28
10 10 10 11 13 14 16 19 20 18 18 17 13 14 18 26 24 29 28 29 30 31 31 32 30 28 30 29 27 28 29 30 31 34 33 31 28 32 31 30 29 30 30 29 29
9 10 10 12 13 14 16 21 19 17 15 14 16 18 21 28 30 30 31 30 30 29 30 30 28 27 26 25 26 27 30 30 31 33 33 30 29 32 31 30 29 29 30 30 30
9 9 10 11 13 14 14 19 18 19 18 21 20 21 26 29 31 31 32 30 30 30 27 28 27 27 27 27 29 30 30 29 32 34 31 31 31 31 31 30 30 29 29 29 30
9 10 10 11 14 14 15 14 19 20 18 23 24 24 25 27 27 29 32 29 28 27 28 27 27 27 29 29 30 30 30 30 31 33 31 30 32 32 31 31 30 30 30 30 30
9 10 10 11 15 15 13 17 18 18 18 22 25 25 25 25 25 26 29 29 28 27 27 27 28 30 30 30 30 30 30 31 30 32 31 30 30 31 31 31 31 31 31 30 30
9 10 10 10 15 12 13 18 19 18 17 21 24 25 26 27 25 29 30 31 29 28 28 27 30 30 30 30 30 26 32 32 32 31 29 31 28 29 30 29 30 31 31 31 31
10 10 10 10 8 9 18 18 18 19 21 28 28 29 26 27 29 29 31 31 29 29 28 28 29 30 30 31 31 30 31 31 32 31 30 31 28 28 30 30 30 30 32 31 31
10 10 10 10 8 15 15 16 18 19 20 26 30 28 26 27 30 31 30 30 31 29 29 29 31 30 31 32 32 32 31 30 31 30 27 30 31 28 29 31 32 32 32 32 32
9 10 11 8 9 15 15 15 17 18 25 29 24 24 27 26 29 30 31 29 29 26 28 30 30 31 32 29 30 30 28 27 28 28 28 29 28 31 31 32 34 34 33 33 32
9 10 13 12 12 13 15 15 16 22 23 24 22 25 28 28 28 29 28 29 29 28 25 27 27 30 31 30 30 28 29 28 26 26 27 28 28 32 33 34 34 36 34 34 33
9 11 9 14 14 11 11 13 16 20 21 20 21 22 24 25 23 26 28 29 30 28 27 24 28 31 32 32 32 29 28 29 26 26 26 28 30 31 32 33 34 34 34 34 34
7 8 9 15 15 13 10 13 16 19 20 20 19 21 19 21 22 22 22 28 30 31 30 28 26 29 32 32 32 30 29 29 24 28 28 28 29 31 31 31 32 34 35 34 34
8 6 14 14 15 11 11 12 18 19 20 18 18 18 19 20 21 21 22 26 29 30 31 30 27 29 30 30 30 30 30 28 28 28 29 26 30 30 31 30 30 33 35 35 34
6 6 13 12 9 10 13 15 17 18 19 19 19 20 20 19 20 21 22 23 26 26 24 28 28 28 29 30 32 32 30 28 29 26 26 31 31 34 32 31 31 32 35 36 35
4 5 12 12 9 9 11 14 15 15 15 16 17 17 16 17 16 20 20 24 18 21 22 22 25 27 26 27 28 30 31 31 24 24 29 26 29 31 31 32 32 33 34 33 32
4 5 6 8 9 9 10 12 12 14 16 16 15 15 14 14 16 15 16 18 18 19 20 19 22 26 28 29 30 29 31 31 31 31 29 30 30 31 31 32 30 31 32 32 31
5 5 7 6 8 9 10 11 12 12 14 14 13 14 12 12 13 15 15 14 17 19 17 15 17 24 25 28 32 31 31 32 30 32 31 32 27 28 29 29 31 32 30 31 32
6 6 5 7 6 7 10 11 10 10 11 12 13 13 14 12 13 13 14 13 13 15 14 14 16 18 23 28 32 31 32 32 32 32 32 29 29 29 30 27 30 31 33 31 36
7 7 6 6 6 7 8 9 10 11 11 13 14 12 13 13 14 13 14 14 13 14 14 13 15 17 19 27 31 30 32 31 31 32 32 30 30 28 30 30 29 31 29 29 30

GFSSW_925_temp_027.txt.gz
Temp
9 9 10 12 14 14 15 15 16 16 16 17 19 21 21 21 22 21 18 27 28 28 25 23 23 24 24 24 23 24 23 25 26 28 29 29 28 29 29 26 28 27 25 25 23
9 9 9 11 12 14 15 15 16 16 17 17 19 20 20 20 17 16 30 29 28 27 23 23 23 25 24 24 24 23 22 27 30 30 29 29 28 28 27 27 27 26 26 24 24
8 9 10 10 10 12 13 15 15 16 16 17 18 20 19 18 17 23 30 29 26 27 27 25 25 26 25 23 25 25 25 29 31 33 30 29 29 29 27 26 26 25 24 25 24
8 9 9 10 9 10 11 13 14 15 16 16 17 19 17 17 25 30 30 31 26 27 26 26 26 25 25 25 26 26 27 29 31 33 32 30 30 28 28 28 28 26 25 25 25
10 10 10 10 10 11 11 12 13 15 17 16 14 17 15 17 21 30 29 27 25 25 27 26 26 26 26 27 27 26 28 30 30 31 33 31 30 29 28 29 28 27 26 25 25
10 10 10 11 11 11 12 14 15 16 16 16 11 13 14 19 28 29 28 27 26 25 26 26 26 26 28 28 28 29 30 31 31 31 33 30 30 29 29 29 27 26 26 26 25
10 10 11 11 11 13 14 14 16 18 16 13 10 12 13 21 28 28 28 27 28 27 24 27 29 28 27 28 30 30 30 30 31 31 30 32 29 29 30 28 27 26 26 26 26
9 10 10 11 11 13 15 17 18 18 17 14 10 12 15 25 25 28 28 29 28 28 30 30 29 26 28 28 29 30 30 29 32 31 31 32 29 30 29 28 26 26 26 26 26
10 10 10 11 12 13 15 18 17 16 17 13 12 12 18 24 23 27 26 27 27 27 28 29 27 26 28 27 26 26 27 29 31 32 31 31 28 29 29 28 27 26 26 26 26
10 10 11 11 12 13 16 18 16 14 13 13 15 16 19 26 27 27 27 27 27 26 27 27 25 24 23 24 25 27 28 28 30 32 32 29 28 29 29 28 27 27 27 27 26
9 10 10 11 13 14 16 16 16 16 16 19 19 20 23 27 29 28 26 27 28 26 24 25 25 23 25 25 27 29 29 28 30 32 30 29 28 29 29 29 28 27 27 27 27
9 10 10 10 13 15 14 14 15 16 13 18 19 21 23 25 25 27 29 26 26 25 25 25 25 26 27 26 27 28 28 28 29 31 30 29 29 29 29 29 29 28 28 27 27
10 10 10 11 14 14 11 15 15 14 13 19 21 22 23 23 23 25 27 26 26 25 25 26 26 27 28 27 27 27 27 29 29 30 30 28 28 28 29 29 29 29 29 29 28
10 10 10 10 14 11 13 15 15 14 16 21 22 23 23 23 22 27 28 28 27 27 25 25 27 28 27 27 27 25 28 30 30 29 28 29 26 27 28 28 29 28 28 29 29
9 10 11 9 8 7 16 15 15 15 20 27 25 26 23 25 27 25 28 28 27 26 26 26 26 28 27 29 27 28 30 29 30 28 28 29 27 26 28 28 28 29 29 29 29
9 10 10 9 7 12 13 14 16 19 19 25 27 25 25 25 27 27 27 29 28 27 27 28 28 29 28 29 29 30 30 28 28 25 25 29 27 29 27 29 30 29 30 30 30
9 11 10 8 9 13 12 12 17 17 23 24 21 22 23 25 27 28 27 26 26 26 26 27 28 28 29 28 28 28 25 24 24 24 27 27 26 30 29 31 32 31 30 31 30
9 12 11 11 11 9 11 13 15 21 20 20 20 21 24 22 25 24 27 27 27 26 26 25 25 28 28 28 27 25 26 21 24 23 27 26 26 28 32 31 32 33 33 32 31
9 12 10 13 13 10 9 12 15 18 19 19 20 20 20 20 21 21 20 28 28 26 26 24 25 28 30 29 30 27 26 27 25 24 24 25 27 29 30 30 30 30 32 31 31
8 8 8 11 11 11 9 11 14 18 18 18 18 18 17 18 19 19 20 24 24 27 26 25 25 26 29 29 28 29 26 28 20 25 25 25 26 28 28 31 28 30 30 32 32
7 4 12 12 11 8 9 9 14 17 18 17 17 17 18 18 19 19 20 22 21 21 22 24 24 27 27 27 28 27 27 26 24 23 27 25 28 29 29 29 28 28 31 32 31
5 5 13 11 8 6 8 10 15 16 16 17 18 17 16 17 16 19 19 20 19 19 19 20 20 26 27 27 30 29 29 24 24 25 24 29 28 31 29 30 28 29 29 31 33
3 3 11 11 6 8 10 12 14 13 13 14 15 15 14 16 16 16 17 18 18 17 16 17 17 22 24 26 27 27 28 29 27 24 28 27 27 27 29 29 29 29 29 28 31
4 5 4 5 7 8 8 10 10 13 14 14 14 13 13 13 14 14 15 17 17 18 18 15 15 19 22 24 26 26 28 28 28 27 29 29 29 30 29 28 28 29 29 29 29
6 6 5 5 6 5 8 9 9 9 11 12 13 12 12 12 12 13 14 14 15 16 15 13 13 17 20 20 23 25 27 29 27 29 29 30 26 28 27 27 27 28 28 28 28
6 6 6 6 8 6 7 10 9 10 9 11 10 11 12 11 12 11 12 13 12 14 13 12 14 14 18 22 24 25 27 28 30 30 28 29 26 27 29 28 29 29 29 29 27
7 7 6 7 7 7 7 8 8 9 11 9 10 11 11 12 11 11 11 11 12 13 12 12 13 14 15 19 21 24 27 29 29 30 30 29 29 27 28 27 27 27 27 28 28

GFSSW_925_temp_030.txt.gz
Temp
9 9 9 9 9 10 11 12 13 14 16 17 18 19 19 20 22 19 17 26 28 27 22 21 23 23 23 23 23 23 22 23 25 27 28 27 27 27 27 25 26 26 23 23 21
9 9 9 8 9 10 10 10 11 13 15 16 17 18 18 17 16 15 29 27 27 27 21 22 22 24 22 23 23 22 22 25 27 29 27 28 27 27 26 25 26 25 24 22 21
8 8 8 8 9 9 10 11 12 12 14 15 17 16 17 15 15 22 28 28 25 27 25 23 23 24 24 23 23 23 24 26 29 30 28 28 28 28 26 25 25 23 23 22 22
9 9 10 9 9 10 11 13 13 13 14 14 15 14 15 15 24 27 28 29 25 25 23 24 24 23 23 23 25 24 25 27 29 32 28 28 28 28 27 27 27 25 24 23 22
10 10 10 10 10 10 11 11 13 15 15 13 11 11 13 16 19 26 28 27 23 24 24 24 24 23 24 24 25 25 28 29 30 30 30 29 28 28 27 28 26 25 24 23 23
10 10 10 11 11 11 12 11 12 14 17 14 9 10 12 18 26 27 25 25 21 24 24 24 24 25 26 26 25 27 27 28 29 28 29 28 29 28 28 27 26 25 24 23 23
9 10 10 10 11 13 14 13 13 14 16 12 9 10 12 20 26 25 25 26 24 24 23 26 26 26 25 27 27 28 28 28 28 28 29 30 28 28 28 27 25 25 24 24 24
10 10 10 11 11 13 14 16 14 16 15 13 10 11 15 24 24 25 24 25 25 25 27 28 27 26 27 27 27 28 28 28 30 30 30 29 28 29 28 26 25 25 25 24 24
9 10 10 11 12 13 16 14 14 13 14 11 11 11 18 23 22 25 26 24 24 25 26 28 26 25 26 26 24 24 25 27 29 30 30 29 28 29 27 26 25 25 25 25 24
9 10 10 10 12 14 17 15 14 12 11 12 13 15 18 24 25 25 25 26 24 23 25 25 23 23 21 22 24 25 25 27 29 32 29 28 27 27 27 26 26 25 25 25 25
10 10 10 10 12 14 15 15 13 15 14 16 17 18 22 25 26 25 24 25 24 24 22 23 22 22 23 24 26 26 27 28 29 31 29 28 28 26 27 27 26 25 25 25 25
10 10 10 11 12 14 15 13 13 12 11 15 16 18 21 23 24 26 26 24 24 23 23 22 23 24 24 24 25 26 26 26 28 29 30 29 28 26 27 27 27 26 26 25 26
10 10 10 11 13 13 11 13 12 11 10 16 17 19 20 20 21 23 25 24 24 23 24 25 24 25 26 24 25 24 25 26 28 30 29 28 26 26 27 27 28 27 27 26 26
10 10 10 10 13 10 12 13 13 10 14 19 20 21 21 20 20 24 26 26 25 25 22 23 26 26 24 25 25 22 25 28 28 27 26 28 25 26 26 27 27 27 27 27 27
10 10 10 9 7 7 14 13 13 12 19 25 22 24 21 23 25 23 26 27 24 24 24 24 24 26 26 26 25 27 27 27 28 27 27 27 26 25 25 25 27 27 27 28 28
10 11 9 10 7 11 10 11 12 17 17 24 23 23 23 24 25 24 25 27 26 26 26 25 25 27 26 27 26 27 28 24 23 22 24 26 26 24 24 27 27 28 28 28 28
10 10 10 8 9 10 10 10 15 16 21 21 20 20 21 23 24 23 23 25 25 23 24 26 26 27 27 26 26 27 23 22 23 23 25 24 25 29 26 28 29 29 29 29 29
9 9 10 11 10 11 9 13 15 19 18 19 19 19 21 19 21 21 23 25 25 25 24 24 24 26 26 26 25 24 23 20 22 22 25 23 25 26 29 28 30 30 30 30 29
9 9 11 12 11 11 8 11 14 16 18 17 18 18 18 19 20 20 20 25 25 24 25 22 24 27 28 27 28 23 25 24 22 22 22 23 25 28 29 28 28 30 30 30 30
7 6 9 11 11 10 8 9 12 15 16 16 16 16 16 17 18 18 19 17 19 21 21 25 24 25 28 28 27 25 24 25 19 24 23 23 25 26 26 29 28 27 29 30 30
6 4 12 11 10 6 7 8 11 14 15 15 15 15 16 15 16 17 18 17 17 18 19 18 23 26 25 26 27 25 24 23 23 20 23 22 25 24 27 27 30 29 29 30 29
4 4 11 10 6 5 7 9 11 12 13 14 15 15 15 15 16 17 16 16 17 17 15 17 17 22 24 27 28 29 27 23 24 23 20 21 26 28 27 28 27 28 27 27 28
3 3 10 10 5 5 7 10 12 11 11 12 13 13 13 14 15 15 16 17 17 16 16 16 16 20 23 25 26 25 26 24 27 21 25 25 26 31 28 28 28 27 26 26 26
3 4 4 6 4 6 5 7 10 12 11 10 12 12 12 12 12 13 14 16 16 17 18 15 14 17 19 21 20 21 25 25 26 26 27 26 26 28 28 27 28 26 26 26 26
4 5 6 4 5 7 6 7 9 8 10 9 10 10 10 11 11 12 13 13 15 15 14 13 15 16 17 18 19 21 22 23 24 27 27 28 28 27 26 25 27 27 25 27 27
4 6 6 6 7 7 8 7 8 9 8 10 9 8 10 10 11 10 10 11 12 12 12 11 15 14 16 19 20 20 22 24 25 25 25 27 26 25 27 25 26 26 26 26 26
7 6 5 6 6 7 7 7 8 8 9 9 8 8 10 11 10 9 9 10 11 11 11 11 12 14 15 17 18 20 24 24 24 25 26 25 26 27 26 25 26 27 26 26 26

GFSSW_925_temp_033.txt.gz
Temp
9 10 10 11 11 11 11 12 13 14 15 15 16 16 19 20 21 17 19 26 27 25 22 22 23 24 24 25 26 26 28 29 30 30 31 30 29 29 29 27 28 27 26 26 22
9 9 10 10 11 11 11 12 13 13 14 15 15 16 15 17 15 17 27 26 27 25 23 23 25 25 26 26 26 27 27 30 31 32 32 31 30 29 28 28 28 26 26 23 22
9 10 10 10 11 11 11 10 11 13 14 15 14 12 15 15 18 26 27 26 25 25 24 24 25 26 26 25 26 26 29 30 32 32 32 31 30 30 29 28 29 26 25 24 23
9 9 9 10 11 11 12 13 13 13 13 13 12 10 13 14 27 26 26 26 24 23 24 25 26 26 26 25 27 26 28 29 31 32 31 31 31 29 29 30 31 28 26 25 24
9 10 10 10 11 11 12 13 13 14 14 12 10 9 12 18 23 26 26 26 22 23 25 26 26 27 26 26 27 26 29 30 31 32 32 31 31 31 30 31 30 28 26 25 25
10 10 10 10 11 12 12 11 13 14 15 11 9 10 12 20 25 26 24 22 23 24 26 27 27 27 27 28 28 29 29 30 32 32 32 32 32 31 32 31 28 27 26 26 25
9 10 10 10 11 12 12 12 14 16 17 11 9 10 14 23 24 25 23 22 23 25 27 27 27 28 28 28 30 30 30 32 32 32 32 33 31 30 32 29 28 27 26 26 26
10 10 10 9 11 12 13 14 12 14 16 11 10 11 19 22 23 22 22 22 22 24 26 26 26 29 28 29 30 30 30 31 33 32 33 33 34 33 31 29 28 27 27 26 26
10 10 10 10 12 14 15 13 11 13 11 11 10 12 22 21 22 23 23 24 23 24 25 26 27 28 28 29 29 29 31 31 32 34 33 33 34 32 32 30 29 28 27 27 26
10 10 10 11 12 15 14 14 12 11 11 12 12 16 21 25 23 22 24 24 24 25 25 26 27 27 28 28 28 29 29 30 31 33 33 33 33 32 31 30 29 28 28 27 27
9 9 10 12 12 15 16 14 17 17 15 19 19 20 23 25 24 24 24 26 26 26 26 26 26 27 28 28 29 29 30 31 32 33 32 33 34 32 31 31 30 29 28 28 28
9 9 10 11 12 14 15 15 12 11 13 17 16 18 20 21 25 25 25 26 26 26 27 25 26 28 28 27 28 29 29 31 31 32 32 33 33 33 31 30 31 29 29 29 29
9 9 10 10 12 12 10 11 9 10 13 18 18 20 21 22 22 26 27 28 27 27 26 27 29 29 27 27 27 28 29 30 31 32 32 32 33 32 31 31 31 30 31 29 30
9 9 10 10 12 9 12 11 10 9 18 22 21 22 22 24 24 26 27 28 28 27 27 28 30 28 27 28 28 28 29 30 30 30 31 32 32 31 32 30 30 30 30 30 30
9 9 10 10 9 10 11 10 9 10 23 24 23 23 23 25 26 25 27 28 28 28 28 28 28 27 27 28 28 29 30 29 30 31 31 31 31 34 30 31 31 31 31 30 31
9 9 10 9 9 10 10 9 11 19 21 24 24 24 23 24 26 25 26 28 29 28 29 30 28 29 29 29 29 30 29 30 29 31 29 31 31 33 33 32 33 32 32 31 31
9 10 9 9 11 10 10 12 18 19 23 22 21 22 22 24 25 25 25 26 28 27 27 28 28 29 30 29 29 30 30 29 28 29 29 33 30 32 34 34 35 34 32 32 31
10 11 11 11 10 10 10 16 17 19 19 20 20 21 22 22 23 24 25 26 29 29 29 28 27 29 30 30 29 29 30 30 28 30 31 30 30 33 34 35 34 35 35 33 32
10 10 11 11 10 10 14 15 17 16 15 16 19 20 21 21 21 22 24 27 28 29 29 28 29 29 29 30 31 29 29 32 30 27 29 32 32 33 33 34 35 35 35 34 33
7 6 9 10 11 10 14 12 13 14 15 17 17 18 18 19 21 22 22 19 24 23 22 28 28 30 30 31 31 29 31 28 30 28 28 31 30 33 33 34 33 34 35 34 34
6 10 11 11 11 13 12 11 12 13 14 16 16 16 17 17 19 20 19 19 19 20 22 24 27 27 29 29 30 28 29 30 31 30 30 30 32 32 33 33 35 35 35 35 34
6 11 10 11 12 10 11 10 11 13 13 14 15 16 16 17 18 19 18 18 18 19 20 20 25 28 28 31 32 31 30 30 29 28 29 31 32 33 33 34 33 35 35 35 35
6 6 9 10 9 9 9 10 11 12 12 12 13 14 15 16 17 17 17 18 18 19 18 20 22 26 27 29 29 30 31 30 31 31 29 29 31 34 32 32 34 33 33 32 32
7 9 10 9 8 8 8 9 10 12 11 10 11 13 14 15 15 16 16 17 17 18 18 19 20 24 28 28 24 25 28 30 31 30 30 30 32 33 33 32 33 33 33 33 32
7 8 8 9 9 9 9 8 9 10 11 11 8 8 9 12 15 15 15 16 17 16 18 19 20 20 21 21 22 23 24 25 27 30 30 31 31 32 32 33 33 34 33 32 32
8 8 7 6 8 8 9 9 9 10 9 10 8 8 8 10 12 12 13 14 15 16 16 17 19 19 20 22 23 23 24 24 25 26 27 29 30 32 31 32 32 34 34 33 32
6 6 6 7 7 7 9 9 9 9 10 10 8 9 10 9 11 13 13 14 14 13 15 16 18 19 20 21 22 23 24 25 26 27 28 27 29 31 31 31 31 31 33 33 32

GFSSW_925_temp_036.txt.gz
Temp
9 9 10 10 10 11 12 12 13 13 13 14 15 15 16 16 19 16 23 26 25 25 24 26 27 27 28 30 30 31 33 35 35 35 35 35 34 33 33 31 31 31 31 28 26
9 9 9 9 10 11 11 11 12 13 12 13 14 16 16 16 17 22 25 25 27 25 27 27 29 29 30 31 31 31 34 35 36 36 36 35 35 33 33 32 31 30 31 27 26
10 10 10 11 11 11 10 11 12 12 13 12 13 15 16 16 23 30 27 25 25 25 28 28 29 30 31 32 31 33 34 35 35 35 36 36 35 35 33 32 32 30 29 28 27
9 10 11 11 12 12 11 11 11 11 11 11 10 13 17 16 29 29 26 26 24 25 29 29 31 30 31 31 32 32 34 34 36 35 35 35 36 35 34 35 34 32 30 29 28
10 10 11 11 12 12 12 12 13 14 14 11 9 11 15 23 27 28 25 26 23 27 29 30 30 31 32 32 32 32 34 34 35 35 36 36 35 35 34 34 34 32 30 29 29
9 10 9 10 12 12 12 12 14 16 13 9 9 10 18 23 28 27 26 24 26 28 30 31 31 33 33 33 32 34 34 34 35 36 36 35 35 35 36 34 33 31 30 30 30
10 10 10 11 13 13 12 14 15 15 12 10 9 12 19 26 26 26 25 26 27 28 31 31 32 32 33 32 33 34 33 35 35 36 36 36 35 35 37 35 33 32 31 31 30
10 10 11 11 13 13 14 13 14 14 12 10 10 14 23 25 25 25 26 27 27 29 31 31 31 32 32 34 33 33 34 35 37 37 37 36 36 37 37 35 33 33 31 31 31
10 10 11 12 13 14 15 14 11 13 11 10 13 18 26 22 25 26 26 27 28 28 30 30 31 31 32 31 33 34 35 35 36 37 37 36 36 37 37 35 34 33 32 31 31
10 10 11 12 13 15 15 13 11 12 13 14 16 19 24 28 27 27 27 28 29 29 29 29 30 31 32 31 32 34 34 36 36 37 37 36 36 38 37 35 35 33 33 32 31
10 11 11 12 12 15 15 18 21 20 20 24 26 27 27 28 26 27 27 28 29 29 29 30 29 30 32 33 34 35 35 35 36 37 36 37 37 38 37 36 35 34 33 33 32
9 10 12 12 13 13 16 19 14 13 16 22 22 24 25 25 28 29 28 29 29 28 30 30 29 32 33 33 32 33 33 35 36 37 35 36 37 38 37 36 36 35 34 34 33
10 11 12 13 14 14 15 14 13 13 17 24 24 25 25 26 27 29 29 31 30 30 30 31 32 33 32 32 31 32 33 34 35 35 36 36 36 37 37 37 36 36 35 35 34
9 10 11 13 15 14 17 14 13 13 20 27 25 25 26 27 27 30 29 31 30 30 31 32 33 32 32 31 32 32 34 34 34 34 34 37 35 37 38 37 36 37 36 36 34
10 10 11 11 12 15 14 13 12 14 25 28 26 26 27 28 32 29 29 31 31 31 32 31 32 32 31 32 33 32 35 33 33 34 34 35 35 36 38 37 37 37 37 36 36
10 10 12 13 14 14 13 13 14 20 24 28 27 26 26 27 29 30 29 31 32 32 32 32 34 33 33 33 33 33 33 33 33 34 33 35 36 36 38 37 38 38 38 37 36
10 11 11 11 15 13 13 17 20 22 27 25 25 26 27 28 28 28 28 28 29 29 30 31 32 33 33 32 33 32 32 32 32 32 33 36 35 36 38 39 38 39 39 37 36
10 11 12 12 13 13 15 19 19 23 21 21 22 23 25 28 27 29 28 29 29 31 32 30 30 32 33 33 32 32 33 33 31 33 34 35 34 36 38 39 38 39 40 39 37
10 13 14 14 13 13 18 19 20 17 17 18 21 24 26 26 26 27 28 29 30 32 32 32 32 34 33 33 34 32 32 35 35 35 35 37 36 37 38 38 38 39 40 40 38
10 13 15 14 14 15 18 15 17 17 17 18 19 21 22 24 24 26 29 25 29 32 33 32 32 34 33 33 34 34 34 33 34 32 32 35 35 36 37 36 38 38 39 40 39
13 16 14 13 15 18 16 16 16 16 17 16 18 19 20 21 22 25 25 23 24 28 26 30 32 33 33 32 33 33 33 33 35 35 34 34 36 38 37 37 37 38 39 40 40
13 16 13 13 17 16 15 14 13 16 17 16 17 18 19 20 21 23 23 22 22 24 25 29 31 32 32 34 35 34 33 33 33 32 34 35 37 38 38 38 38 39 39 40 40
14 14 14 14 14 14 14 14 15 15 14 14 14 17 17 19 19 21 21 21 21 23 24 27 28 30 32 33 33 33 34 34 34 35 33 33 35 37 36 36 36 37 38 38 38
13 14 16 15 14 14 13 13 14 15 14 14 9 12 15 18 20 19 20 20 21 21 19 21 28 30 31 32 33 32 33 34 34 34 34 34 35 36 36 36 36 37 37 38 37
13 13 12 13 13 12 12 14 13 13 14 15 9 8 9 15 19 18 19 20 21 20 22 23 26 25 29 27 27 32 33 33 33 33 33 35 35 36 36 36 36 37 37 37 37
12 11 10 12 10 11 12 12 13 12 12 13 10 11 12 9 10 13 15 18 19 20 21 22 24 24 25 26 26 27 29 31 33 34 33 34 34 37 36 36 36 35 35 35 36
10 10 9 10 11 11 11 12 12 12 13 13 12 13 13 12 11 14 16 17 18 17 19 20 22 23 25 27 26 26 28 29 30 31 32 32 33 34 34 34 34 35 35 36 36

GFSSW_925_temp_039.txt.gz
Temp
9 9 10 10 10 10 11 11 11 11 11 13 12 15 16 18 20 17 24 28 27 26 25 27 29 30 31 31 32 35 34 33 37 30 37 38 37 37 36 34 34 34 32 29 26
9 10 11 11 11 11 11 11 11 12 12 13 13 13 17 17 17 24 26 26 26 26 26 30 32 32 33 33 35 34 32 29 37 38 36 38 37 36 35 34 34 34 31 28 27
10 11 11 12 12 12 11 11 11 11 12 13 13 14 17 17 24 31 29 27 26 25 30 31 32 33 33 35 35 36 32 27 38 38 39 38 37 38 36 35 34 33 31 30 29
11 11 12 13 13 12 13 12 12 12 12 13 15 14 16 17 29 30 27 27 26 26 30 32 34 33 34 35 36 35 37 36 38 38 38 38 38 37 37 37 36 34 32 31 31
10 10 12 12 13 13 14 14 14 15 14 12 10 13 14 25 28 28 28 25 24 26 31 33 33 34 34 36 36 36 36 38 38 38 38 38 38 34 37 38 37 35 33 32 32
10 11 11 12 13 13 14 15 15 16 15 11 10 10 18 25 31 31 30 25 27 27 32 34 34 35 35 37 36 37 37 38 38 39 39 38 38 38 38 38 36 34 33 33 32
11 11 11 12 13 13 13 15 16 15 15 12 11 13 23 28 30 31 30 28 30 29 33 33 34 35 36 36 37 37 36 37 37 38 38 39 37 37 39 37 36 34 34 33 33
11 12 12 13 14 14 15 14 14 14 16 13 10 15 25 29 28 29 30 30 31 30 33 34 34 35 36 37 36 35 36 36 38 38 39 38 37 39 39 37 36 35 34 33 33
11 11 12 13 14 15 16 15 12 14 14 10 15 20 27 26 28 29 30 31 32 32 32 34 35 34 35 34 35 36 35 36 37 39 39 38 38 39 40 39 37 35 35 34 33
11 12 13 14 14 15 17 17 14 13 15 16 20 22 26 30 31 30 31 31 33 33 33 33 34 32 34 34 33 35 36 38 37 39 39 38 38 39 40 39 38 36 35 34 34
11 12 12 14 15 16 17 22 23 22 22 25 27 28 31 31 30 31 31 32 33 32 31 33 32 32 33 35 36 37 37 38 39 39 39 38 39 39 40 39 38 37 36 35 35
11 12 12 14 16 17 19 21 19 17 18 23 25 26 28 30 30 32 31 32 32 31 32 32 31 33 35 35 35 36 37 38 39 40 39 39 38 40 40 39 38 37 37 36 36
11 12 13 15 16 19 20 19 18 18 20 24 28 28 29 30 30 32 32 32 32 31 32 33 33 34 35 35 35 35 36 37 38 39 39 38 38 39 40 39 39 39 38 37 36
11 12 13 15 17 19 21 18 18 18 20 28 29 30 30 30 29 33 33 33 32 32 33 34 36 34 34 34 36 35 37 37 37 38 37 38 36 38 39 39 39 39 38 38 37
11 11 14 12 15 20 18 18 18 19 24 32 29 29 31 29 34 31 33 33 33 33 33 33 35 35 34 35 36 35 38 36 37 37 37 38 37 39 40 39 39 39 39 39 38
11 12 13 16 18 19 18 18 20 21 24 30 30 29 29 30 31 34 32 33 34 34 34 35 36 36 36 36 36 37 36 37 36 36 35 36 37 38 40 40 40 40 40 40 39
12 12 13 14 18 18 18 21 21 21 30 25 25 28 30 30 30 33 31 30 31 31 32 34 35 36 36 35 36 35 35 33 34 35 34 37 37 38 40 41 41 41 41 41 39
12 14 15 17 18 18 19 21 19 23 23 23 22 24 25 28 31 31 31 31 31 33 34 33 33 35 36 36 35 35 35 34 32 34 35 37 37 38 41 42 42 42 42 41 41
12 18 18 18 18 18 20 20 22 20 20 20 22 25 28 29 30 31 31 31 32 33 32 34 34 37 36 36 36 35 35 37 37 38 38 38 38 40 41 41 41 41 41 42 41
11 18 19 18 18 19 20 20 20 20 19 20 19 22 21 25 28 29 31 32 32 33 34 34 34 36 36 36 36 37 37 35 36 35 36 38 38 38 39 39 40 40 41 41 42
14 20 18 17 18 21 20 20 19 19 20 19 19 20 20 19 21 27 30 29 29 31 33 34 35 35 37 35 34 35 36 36 37 37 36 36 38 41 40 40 39 40 41 41 42
17 19 18 17 20 20 19 18 16 19 19 18 19 19 19 19 18 21 26 26 24 26 29 33 34 33 36 37 37 36 36 36 35 34 37 38 39 41 42 41 40 40 41 42 42
17 19 19 18 18 18 19 18 18 18 18 17 16 16 16 17 16 18 21 24 24 26 26 30 31 31 34 36 36 35 36 37 37 37 36 36 38 39 39 40 40 40 41 41 42
17 17 19 20 19 17 16 16 16 18 18 17 16 16 15 17 18 18 18 22 24 24 21 23 29 31 34 35 36 34 36 36 37 37 36 37 38 37 38 38 38 39 40 40 40
16 15 15 16 16 15 16 15 15 14 17 17 14 13 14 14 17 12 15 20 24 23 25 26 27 30 33 35 36 36 35 36 36 36 36 38 37 38 38 38 38 39 39 38 38
11 10 12 13 15 14 15 15 15 15 16 15 15 14 14 13 14 13 12 16 19 22 23 26 25 28 30 33 32 31 35 36 36 36 37 37 38 40 39 39 38 38 37 37 37
8 7 8 10 13 12 14 14 14 15 15 16 15 16 15 15 17 17 17 18 19 20 21 22 25 27 28 30 30 29 32 34 36 37 37 36 37 39 38 37 37 37 37 37 37

GFSSW_925_temp_042.txt.gz
Temp
10 10 11 12 12 12 11 11 13 12 12 14 12 17 18 17 18 17 22 26 26 26 26 27 29 30 31 33 34 34 28 30 33 33 31 38 37 36 36 35 35 33 29 28 26
10 11 12 12 12 11 11 12 11 13 14 12 14 15 17 16 14 21 25 26 27 27 27 29 31 31 32 33 34 33 23 25 32 31 32 36 37 36 36 35 32 31 28 27 27
11 12 12 12 12 13 13 13 12 12 14 15 14 16 16 14 21 29 30 28 26 27 28 30 32 33 32 34 35 35 29 26 29 31 37 35 37 38 36 35 32 30 28 28 28
12 12 12 13 13 13 14 14 13 15 14 15 15 13 15 15 27 30 29 30 27 27 28 31 33 33 33 33 36 35 30 32 32 35 33 29 32 33 37 35 34 31 30 29 28
11 12 12 13 14 15 15 15 16 15 15 15 14 10 13 21 26 30 29 28 26 27 29 32 33 34 33 35 36 36 31 32 30 34 32 26 33 30 35 36 35 32 31 30 30
12 12 13 13 14 15 16 15 16 15 15 13 12 10 16 23 30 30 30 26 28 28 30 32 34 35 35 35 36 37 38 38 35 39 35 35 33 34 34 37 35 33 32 32 31
12 12 13 14 15 15 16 17 16 15 15 14 11 12 21 25 31 33 31 28 29 29 31 32 34 35 35 35 37 38 36 38 36 39 39 39 34 35 27 37 35 33 32 33 33
11 12 13 14 15 17 17 17 16 15 15 13 12 14 22 29 28 30 32 32 30 31 31 33 34 35 35 37 37 37 36 35 38 39 39 39 37 36 34 36 35 34 33 33 33
11 12 13 15 16 17 18 20 18 15 14 11 14 19 26 28 29 30 31 33 32 32 32 34 35 34 35 34 34 36 34 35 37 39 39 38 37 39 38 38 35 35 34 33 33
12 13 13 15 16 18 19 21 18 15 14 15 18 22 25 30 32 31 31 33 33 34 33 34 34 33 34 34 33 35 35 36 36 39 39 38 38 39 39 37 36 36 35 34 34
12 13 14 15 16 18 17 22 24 22 23 23 26 27 31 32 33 32 32 33 34 33 31 33 32 33 33 35 35 36 36 36 38 39 39 38 38 39 39 37 36 35 35 35 34
12 12 14 15 16 18 18 23 22 21 20 23 24 25 26 29 31 33 33 32 32 31 33 32 32 34 35 35 35 35 36 37 38 40 38 39 38 40 39 39 38 36 36 36 35
12 13 14 15 17 20 23 22 21 22 21 22 25 26 27 29 29 32 33 33 32 32 32 32 33 35 35 34 34 35 35 37 38 39 37 39 37 39 39 38 39 38 38 37 36
12 13 14 14 18 19 23 21 21 22 20 26 29 30 29 30 29 33 34 33 33 32 33 33 35 34 34 34 35 34 36 37 38 38 37 39 36 38 39 39 38 39 37 38 37
12 13 13 15 13 20 21 21 21 23 21 32 31 31 33 30 34 31 34 33 32 33 33 33 34 35 34 34 36 35 37 37 37 37 38 38 37 38 39 39 39 39 37 39 38
12 14 13 16 18 20 21 21 22 21 21 27 28 27 29 31 31 33 32 34 33 34 34 34 36 36 36 36 36 37 37 37 37 37 35 37 38 38 39 39 40 40 40 39 39
12 13 13 13 19 20 21 23 22 21 26 24 23 24 25 27 31 31 32 31 31 30 32 33 34 36 37 36 36 36 35 34 34 35 34 37 37 38 40 41 41 40 40 40 40
12 14 16 17 20 20 21 22 20 23 23 23 22 23 24 27 28 31 31 31 32 32 33 33 33 35 37 36 36 36 36 34 32 34 34 36 36 37 40 42 43 42 41 41 40
13 16 19 21 20 20 21 21 22 22 22 21 21 22 22 24 24 25 31 32 32 32 32 34 33 36 37 37 37 35 35 37 36 37 36 37 37 39 40 40 41 42 42 41 41
11 16 18 20 20 21 21 20 22 22 21 21 19 21 20 20 20 21 24 33 33 33 34 33 33 36 36 37 37 37 37 35 36 33 34 36 37 37 38 39 40 41 42 42 41
15 21 21 20 21 21 21 21 21 21 21 20 19 19 19 18 17 19 22 23 26 32 34 33 33 35 37 36 35 36 36 36 36 36 35 35 38 42 38 39 40 41 41 42 41
15 19 21 20 20 22 21 20 18 20 21 20 19 19 16 16 16 15 17 20 23 26 28 33 33 32 34 38 38 37 36 36 35 33 36 37 38 41 42 41 41 41 41 42 42
16 19 21 20 18 19 20 19 19 19 18 17 18 19 18 16 16 15 15 16 19 23 24 25 30 31 32 35 37 36 36 36 37 37 35 36 37 40 41 41 41 40 41 40 40
15 16 17 17 18 17 17 17 18 19 17 14 15 18 17 16 17 13 13 16 18 22 23 24 27 29 32 34 37 35 36 37 36 36 35 37 37 38 39 40 40 40 40 41 40
15 15 14 13 14 14 15 17 17 16 16 14 17 12 14 15 15 13 14 16 17 21 25 27 26 30 32 35 36 36 36 36 36 37 35 37 38 37 38 38 40 40 40 40 39
11 9 8 10 13 14 14 13 15 17 17 16 16 13 13 15 15 15 16 15 14 19 21 25 25 28 29 32 34 34 36 36 37 37 37 38 39 39 38 38 38 38 37 37 38
8 8 7 7 12 12 13 14 15 16 16 17 15 16 16 17 18 18 18 18 16 18 20 22 24 25 27 30 32 32 34 36 36 37 37 37 38 39 38 37 37 37 38 37 37

GFSSW_925_temp_045.txt.gz
Temp
10 11 11 11 12 12 13 13 13 13 12 15 16 17 15 14 17 16 16 23 26 26 25 26 26 27 28 27 29 30 23 25 26 30 30 28 33 33 33 30 29 29 26 26 25
11 11 12 12 12 13 13 13 12 12 14 14 15 16 15 12 13 15 23 25 26 26 25 27 27 28 27 28 29 28 24 26 29 29 30 32 32 32 31 28 27 26 26 26 26
12 12 13 12 13 14 15 14 11 13 15 14 13 14 15 14 16 23 29 27 27 26 26 27 29 29 28 29 30 31 26 28 28 29 32 31 31 33 30 27 26 25 26 27 26
12 13 13 14 14 15 15 15 14 14 15 14 12 12 11 13 23 29 30 30 27 26 26 27 28 28 28 29 31 30 32 30 32 31 30 32 29 32 31 28 27 27 26 27 26
12 12 13 14 15 16 16 16 16 15 15 13 12 10 12 15 19 28 29 30 26 25 26 27 28 29 29 30 32 32 32 32 33 31 29 32 32 31 31 29 27 28 27 27 26
12 13 14 15 16 16 16 17 16 16 15 13 12 10 12 16 25 27 27 27 26 25 27 28 28 30 31 31 32 33 33 32 30 30 31 31 32 32 31 30 28 27 27 27 26
12 12 13 14 16 17 18 17 17 17 16 13 12 11 15 18 27 29 28 28 27 26 27 29 30 30 31 31 33 34 34 32 31 31 31 31 32 33 31 30 29 28 27 27 27
12 13 14 15 17 18 18 19 18 19 16 13 12 12 14 23 26 26 28 27 28 27 28 29 30 30 31 32 33 33 33 33 34 34 33 32 30 32 33 30 29 29 28 28 27
13 13 14 15 17 18 19 20 19 19 15 12 12 14 18 26 25 26 28 30 29 29 29 30 30 29 30 30 30 31 30 32 34 35 34 33 31 31 31 31 30 29 29 29 28
12 13 14 15 17 18 19 20 19 16 15 14 16 15 20 28 30 29 29 31 30 29 29 29 28 28 29 29 28 29 30 32 33 35 36 34 33 30 30 32 31 30 30 31 29
12 13 14 16 17 19 18 18 20 19 21 19 20 22 22 28 27 30 31 30 31 29 28 28 27 27 29 30 31 32 32 33 34 36 35 34 34 32 31 31 27 26 31 31 31
13 13 14 16 18 20 19 20 20 21 19 22 22 22 23 24 24 27 31 29 29 28 29 28 27 30 31 31 31 32 31 33 34 36 36 35 34 35 32 29 27 28 24 31 31
13 14 14 16 18 20 18 21 21 22 19 21 22 23 23 24 24 25 28 30 29 29 29 28 29 31 32 31 31 31 31 32 33 36 37 35 34 35 34 30 27 25 25 31 31
14 14 14 14 18 17 20 21 21 22 16 22 26 27 26 25 25 28 29 30 29 29 29 29 31 31 31 31 32 30 33 33 34 34 31 36 30 32 34 31 28 27 28 31 32
14 15 14 15 13 15 19 21 21 21 17 27 25 27 25 25 27 29 29 29 29 30 30 29 30 30 30 32 33 32 33 33 33 33 33 34 32 33 33 33 31 29 28 29 32
13 15 12 16 14 18 19 21 21 18 19 25 24 23 23 24 26 28 30 30 31 30 31 31 33 32 32 33 34 34 33 32 33 32 31 32 33 33 33 33 32 31 30 31 33
14 14 14 12 16 19 19 20 17 18 25 23 21 22 22 23 23 22 23 28 27 27 27 30 31 33 33 32 33 32 30 28 29 30 30 30 31 31 35 35 35 34 32 32 33
14 16 17 17 18 18 20 18 17 22 22 22 21 21 21 21 21 21 20 21 29 29 27 27 28 31 33 32 31 31 31 29 27 28 30 31 31 32 34 36 38 37 35 33 31
15 14 17 19 19 20 18 16 19 20 20 20 20 19 19 19 20 19 18 19 24 29 27 27 28 33 33 34 33 31 30 31 29 29 29 30 32 33 35 35 35 37 37 34 32
10 14 18 21 21 21 17 17 19 21 21 20 18 19 17 18 17 17 17 19 18 18 17 28 27 32 33 34 34 32 32 30 30 27 28 30 31 32 33 35 34 34 37 36 36
13 16 19 20 21 19 17 19 19 21 20 19 18 18 17 18 17 16 17 17 18 16 17 20 26 29 32 32 31 32 31 32 30 28 26 27 31 33 34 34 35 34 34 37 36
12 15 19 17 17 18 17 18 17 19 20 18 17 17 16 16 17 16 15 16 17 14 15 19 21 27 28 32 34 33 32 31 30 27 28 28 31 33 35 36 36 36 35 35 37
11 15 18 16 14 14 15 16 18 19 18 16 16 16 16 15 13 12 13 16 15 13 16 17 19 23 27 29 31 33 33 33 30 28 27 29 31 36 33 35 36 34 36 33 36
12 14 14 15 15 13 13 14 15 16 16 16 15 16 16 14 13 11 13 14 15 14 16 17 19 20 24 28 30 31 33 33 32 30 30 31 32 33 33 33 32 33 33 33 33
13 13 11 11 10 11 13 14 12 12 16 17 14 15 14 13 14 13 13 14 15 15 14 15 18 22 25 28 30 31 33 34 32 32 31 31 31 33 36 33 33 33 33 33 32
12 9 8 8 10 11 13 13 13 13 13 14 15 15 13 12 13 12 15 13 13 13 12 14 18 21 25 28 30 31 33 34 34 33 32 31 32 32 33 31 32 31 32 30 31
10 9 7 7 8 10 12 11 11 12 13 14 14 14 13 15 16 16 16 16 15 13 12 14 18 18 22 27 29 27 31 34 34 34 33 32 32 33 33 31 31 31 31 31 32

GFSSW_925_temp_048.txt.gz
Temp
9 11 11 12 12 12 11 11 11 12 11 13 15 14 12 13 15 15 13 22 25 24 24 23 23 25 25 25 25 23 23 24 25 25 25 27 28 28 30 27 28 27 25 22 23
11 12 12 13 13 13 13 12 11 13 15 14 14 12 11 11 12 13 24 25 25 25 23 23 24 25 23 25 26 25 22 25 28 29 29 28 28 29 28 27 25 25 24 23 23
12 13 13 14 15 15 14 12 14 15 15 15 14 11 11 13 13 19 29 27 25 25 25 25 26 26 25 26 26 26 24 28 29 30 30 28 31 30 27 25 25 24 23 24 24
13 14 14 15 16 16 16 16 16 16 16 15 13 11 11 13 23 28 29 29 23 24 24 25 25 24 25 25 27 26 29 30 30 31 31 30 30 29 28 26 26 25 24 24 24
13 13 14 15 16 17 17 17 17 17 17 14 11 11 11 13 17 28 27 27 23 23 24 24 24 24 25 26 27 28 29 31 31 30 30 31 31 30 29 27 26 26 25 25 25
13 14 14 15 17 17 18 18 19 19 17 13 11 10 11 15 25 26 25 26 25 23 24 25 25 25 27 27 28 30 29 32 32 30 30 30 31 29 27 27 26 26 25 25 25
13 14 15 16 17 18 19 20 20 19 17 14 11 11 12 16 25 24 24 27 25 24 24 26 26 27 27 28 30 30 30 32 31 31 31 31 30 27 27 26 26 26 25 25 25
14 15 15 16 18 18 20 21 21 19 17 15 12 12 12 20 23 23 26 25 25 25 26 26 27 26 27 28 29 29 29 29 31 30 32 31 28 28 26 26 25 25 26 25 25
13 14 14 16 17 18 20 21 21 18 16 12 12 13 13 22 21 26 23 26 25 24 26 27 26 25 27 26 25 27 27 29 32 31 32 29 28 29 27 26 25 25 26 26 25
14 14 15 16 18 18 20 21 20 17 15 13 14 13 17 24 24 24 27 26 25 25 25 25 24 23 24 23 24 26 27 28 30 31 33 30 29 29 28 26 26 26 26 26 26
14 14 15 16 18 19 19 21 17 16 18 18 18 18 21 22 23 24 25 26 26 25 23 24 23 23 25 25 27 28 28 28 31 33 31 32 30 30 28 27 26 26 26 26 26
14 15 13 15 18 19 19 16 18 19 16 20 20 20 21 21 21 23 26 25 25 25 24 24 24 26 27 27 27 28 28 29 31 32 32 32 30 30 29 28 27 27 27 27 27
15 15 15 15 18 19 18 19 19 19 15 18 21 21 20 21 21 22 24 25 25 24 25 25 26 28 28 27 28 28 27 28 29 31 33 32 31 29 30 29 29 28 29 29 29
15 16 15 14 18 16 17 20 20 19 13 18 22 23 23 22 22 26 25 24 26 26 26 26 28 28 28 28 28 26 30 30 31 30 28 33 30 30 30 29 29 29 28 29 30
14 16 15 15 15 14 20 19 19 18 18 24 21 24 22 21 22 23 24 24 24 25 26 26 27 28 27 28 29 29 30 30 30 29 29 30 29 32 30 28 28 28 27 28 29
14 16 14 15 14 20 19 18 18 15 17 22 20 20 20 20 21 22 22 22 25 25 26 27 29 29 29 30 30 31 30 29 29 27 27 29 30 30 29 28 27 29 27 28 29
15 16 16 17 17 19 18 15 14 15 20 19 17 18 19 18 19 19 19 18 16 17 24 27 28 30 30 28 29 29 26 26 24 26 26 27 27 31 30 30 28 29 27 28 30
14 16 15 17 19 19 16 13 15 19 18 19 18 18 17 17 18 17 17 17 17 15 14 24 25 28 30 28 28 28 27 23 24 25 27 27 27 31 31 32 31 30 29 30 29
14 16 17 17 18 17 12 12 15 16 18 18 17 16 16 18 17 16 16 17 18 15 13 12 25 29 30 31 30 28 27 27 25 26 25 27 30 30 31 30 31 30 31 29 30
9 12 16 17 19 17 12 13 15 18 18 17 14 16 14 15 15 16 16 18 17 17 14 14 14 26 30 30 30 29 28 27 23 25 25 26 28 30 30 31 30 31 30 30 31
10 9 16 17 19 12 11 14 16 18 18 16 15 14 14 13 14 15 16 17 17 15 15 13 13 20 26 27 29 27 29 28 27 23 27 24 29 28 29 29 30 31 31 31 32
7 8 16 17 11 10 10 13 14 15 15 15 16 15 14 13 14 14 14 14 16 14 13 13 13 14 22 28 29 31 27 27 28 25 23 24 29 34 31 31 31 33 32 33 33
5 7 15 15 8 8 10 13 15 14 15 15 14 14 14 13 12 13 14 15 15 13 12 11 13 13 20 25 27 27 29 28 25 24 24 28 30 30 31 29 29 32 31 33 33
6 8 8 8 8 8 8 11 13 14 14 14 14 14 13 12 11 12 12 13 13 13 14 11 12 12 14 20 20 25 28 28 29 27 27 27 30 32 32 30 31 30 30 32 33
6 7 7 7 8 7 8 10 12 12 14 14 12 12 12 11 11 12 12 14 14 13 11 10 10 12 14 17 20 22 28 29 28 28 29 30 29 30 29 30 28 29 28 32 33
7 7 5 6 7 8 9 10 10 11 11 11 11 12 11 10 10 11 12 13 12 10 9 9 10 11 14 20 22 24 29 29 30 31 29 29 28 30 30 28 28 28 29 31 33
8 8 7 8 8 7 9 9 9 11 12 13 11 10 10 11 12 12 13 14 12 11 9 9 10 10 14 22 26 26 24 28 30 30 30 29 28 31 28 25 25 28 28 27 28

GFSSW_925_temp_051.txt.gz
Temp
10 11 12 13 13 12 12 13 15 16 16 16 15 13 10 11 12 13 12 22 24 24 24 23 21 23 23 23 25 23 23 23 25 25 25 25 27 27 28 26 27 26 23 22 21
12 13 13 14 13 13 13 14 16 16 17 16 15 14 11 10 11 11 24 24 25 23 22 21 21 23 22 23 24 23 22 25 27 27 25 24 26 28 27 26 24 23 23 22 22
13 14 14 15 15 14 15 17 17 17 17 17 15 11 11 11 12 18 26 22 25 23 25 23 24 24 23 24 24 24 23 26 28 29 30 28 27 28 26 24 24 21 22 23 22
14 14 15 15 16 16 17 18 18 18 16 17 16 10 13 13 24 26 26 25 23 24 24 24 23 23 23 23 25 24 26 27 30 30 30 28 26 27 27 26 25 23 23 22 22
14 15 15 16 17 17 18 19 19 20 17 12 13 10 12 14 16 26 24 22 21 23 24 23 23 22 23 24 25 25 26 28 29 30 30 29 29 28 27 26 25 24 23 23 22
14 15 15 16 17 18 19 20 20 20 18 12 10 11 12 15 23 22 23 21 20 22 23 23 23 23 24 25 26 27 27 28 29 30 30 30 29 28 26 25 24 24 23 23 23
14 14 15 16 17 18 19 20 20 19 18 17 11 11 11 17 23 22 21 21 21 22 22 24 25 25 25 27 27 27 27 28 29 29 30 31 29 28 25 25 24 24 24 24 24
14 15 15 17 17 18 20 21 20 18 17 14 12 12 12 19 20 22 23 23 22 23 24 25 25 25 26 26 27 27 26 25 29 30 31 29 28 26 25 24 24 24 24 24 24
14 13 15 17 17 18 19 21 20 17 16 14 12 12 13 20 21 23 22 23 23 22 24 25 25 23 26 25 23 25 24 26 28 30 31 29 28 26 25 24 24 24 24 24 24
15 15 16 17 18 18 20 21 18 16 15 13 13 13 18 22 22 22 23 23 23 22 23 24 22 21 20 21 23 23 25 27 27 29 29 28 28 25 25 25 24 24 24 24 24
14 15 14 18 18 18 20 20 13 14 17 17 17 18 19 21 22 23 24 24 23 22 20 21 20 22 23 24 25 26 27 27 28 30 30 29 29 25 25 25 24 24 24 24 24
14 15 15 18 18 19 19 16 16 17 13 18 18 18 20 20 20 21 24 23 23 22 21 20 21 23 24 24 24 25 25 26 28 30 29 30 29 27 25 25 25 24 24 25 25
13 14 16 19 19 18 17 19 18 16 14 16 19 20 20 20 20 21 23 23 23 22 22 22 24 25 25 24 24 24 25 26 27 29 30 30 29 29 26 26 26 25 25 25 25
15 16 15 18 18 16 18 18 18 16 12 18 20 21 20 20 21 23 22 23 23 23 23 23 26 25 25 25 25 22 26 28 28 27 28 30 26 29 27 26 26 26 25 25 26
15 16 15 14 16 15 18 18 18 17 17 21 19 22 20 19 20 21 23 21 22 22 23 24 25 25 25 26 26 26 27 27 27 27 27 29 26 26 28 26 26 26 26 26 26
15 15 15 15 14 16 17 18 17 15 16 18 19 18 18 18 19 19 20 19 19 19 23 23 26 26 27 27 27 28 28 27 26 24 26 27 26 26 27 27 27 27 28 28 28
15 16 16 15 15 17 17 14 14 14 18 17 17 17 17 16 17 17 16 14 14 16 15 19 24 25 27 26 26 27 24 22 23 22 25 26 25 29 29 30 29 29 29 29 28
14 16 16 16 17 17 16 13 15 17 17 17 17 17 16 16 16 16 15 15 14 14 13 13 21 25 27 26 26 25 24 20 21 22 26 25 24 27 29 30 31 30 30 29 28
14 15 15 17 17 17 12 12 14 16 17 16 16 15 15 16 16 15 15 15 14 13 13 13 15 17 20 27 27 25 25 25 23 22 24 26 26 29 29 30 30 31 30 30 29
10 9 13 17 17 16 11 13 14 14 15 16 15 15 14 13 14 14 15 15 15 14 14 13 13 15 19 23 27 27 26 25 21 23 23 24 26 29 27 27 29 30 29 29 29
9 8 14 16 15 10 10 10 13 15 15 15 14 14 14 13 13 14 15 15 15 14 14 12 13 15 17 23 26 24 26 26 25 22 26 22 25 26 28 29 29 30 30 29 29
5 10 13 15 9 7 9 11 13 13 14 14 15 15 14 13 12 14 14 14 15 13 12 12 12 13 15 19 19 18 25 23 26 24 21 25 27 29 28 27 30 30 29 29 30
5 5 13 13 7 6 8 11 13 13 13 13 13 14 14 13 12 12 13 14 14 13 11 12 12 12 17 20 21 21 25 27 25 22 24 27 27 29 28 29 27 29 30 30 30
5 7 6 5 6 7 7 9 12 14 13 13 12 13 11 12 11 12 11 13 14 13 14 12 11 11 13 15 15 14 16 17 20 26 24 26 27 28 29 28 28 26 28 30 30
4 6 6 6 6 6 7 8 11 11 12 12 11 12 11 9 10 9 11 12 12 12 11 10 10 11 11 12 14 14 15 17 19 25 27 28 25 26 27 28 27 26 26 29 31
6 6 5 5 6 7 7 9 9 11 10 10 10 11 10 8 9 10 11 10 10 9 9 9 10 9 11 14 15 15 17 19 20 23 26 27 26 26 25 23 23 22 24 27 31
7 7 7 8 8 8 8 8 8 8 9 11 10 10 9 10 10 9 9 9 10 8 8 9 9 10 10 15 18 18 19 21 22 19 21 26 25 23 22 22 21 21 22 27 31

GFSSW_925_temp_057.txt.gz
Temp
14 14 15 15 16 15 16 17 17 17 17 18 16 12 12 10 11 11 15 22 23 23 21 21 21 22 23 24 25 24 25 27 28 28 28 27 27 28 28 26 26 26 26 25 21
15 15 15 16 15 16 15 16 18 18 19 17 15 11 11 10 10 13 22 21 22 22 21 22 23 23 24 24 25 24 25 28 29 29 28 27 28 28 27 26 25 24 25 22 22
15 16 16 17 16 15 16 16 18 18 19 18 14 11 10 10 14 22 20 21 21 21 22 23 23 25 25 25 26 26 26 27 29 30 29 29 28 29 28 26 25 24 22 22 23
16 16 17 18 17 17 15 16 18 18 19 18 15 11 10 11 26 21 22 23 22 20 21 23 24 25 25 25 26 26 27 27 29 30 29 29 30 29 29 29 28 25 24 23 24
16 16 17 18 18 18 17 17 18 19 18 17 16 11 12 17 21 20 20 19 19 20 23 24 24 26 26 26 26 26 27 28 29 30 30 30 30 29 28 28 26 25 24 24 25
15 16 17 18 18 18 18 19 19 19 18 17 16 12 13 21 20 20 19 18 20 21 23 24 25 26 27 26 27 27 27 29 29 30 30 30 30 29 27 27 25 24 24 25 25
15 16 17 17 18 18 19 19 19 19 17 16 13 12 16 21 20 21 20 19 19 21 24 24 25 27 26 27 28 28 27 28 29 29 29 31 30 29 26 26 25 24 24 25 25
15 16 17 18 18 18 19 19 19 17 16 13 12 12 20 21 21 22 21 19 19 20 23 23 25 26 26 27 28 28 28 28 31 30 31 31 30 29 26 26 25 25 24 24 24
14 15 16 17 18 18 18 18 17 16 14 12 13 14 23 22 22 21 21 22 20 20 22 25 25 25 26 26 27 27 30 28 29 31 30 31 30 28 26 27 25 25 25 25 24
14 15 16 17 18 18 16 16 16 15 13 12 14 18 23 22 21 21 21 21 22 22 23 24 25 25 25 26 27 28 28 29 30 31 31 31 30 27 26 27 26 25 25 25 25
15 15 16 17 19 18 17 15 18 19 17 19 19 19 22 21 21 22 21 22 22 23 23 23 24 24 26 26 27 28 28 30 31 31 31 32 31 28 26 26 26 25 25 25 25
14 15 16 17 19 18 17 18 16 15 17 17 17 18 19 19 22 23 23 23 23 23 22 22 23 26 25 25 25 26 26 29 31 30 31 31 31 30 27 27 27 26 26 26 26
13 14 15 17 18 17 15 15 14 13 17 19 20 21 22 21 22 22 22 22 23 22 23 24 25 25 24 24 24 26 26 27 29 30 31 30 31 30 28 28 27 27 27 27 26
12 14 15 17 17 15 16 15 15 14 19 20 21 21 22 20 22 21 20 22 23 23 23 24 25 24 24 25 25 25 27 27 27 28 30 31 30 30 31 27 27 27 27 27 27
13 14 15 15 15 16 14 14 15 16 21 20 20 21 20 21 20 22 19 21 22 22 23 24 24 24 24 25 26 26 27 26 27 27 27 29 29 32 31 29 28 28 28 28 28
13 14 15 15 15 15 14 15 16 19 19 19 20 19 20 19 19 19 19 19 19 20 22 23 26 26 26 26 26 27 26 27 27 27 26 28 29 31 31 30 30 29 29 28 28
13 13 15 14 14 14 15 17 19 19 19 18 18 18 18 18 19 18 17 17 18 21 21 21 24 26 27 26 26 26 26 25 25 26 26 30 28 30 32 33 32 31 29 29 29
13 14 14 13 14 15 15 19 17 17 17 18 18 18 18 17 18 18 18 18 16 16 18 20 23 24 26 26 26 26 26 26 25 26 28 29 28 30 32 33 32 33 32 31 29
12 13 14 12 14 14 19 17 17 16 16 16 17 17 17 17 17 18 17 17 16 16 17 18 19 20 21 22 27 26 26 28 27 26 27 30 29 31 32 33 34 33 32 31 30
9 10 13 13 14 14 18 15 15 15 15 16 16 17 16 16 17 17 17 16 15 15 15 16 17 19 20 21 24 26 28 25 26 25 26 29 29 30 31 32 33 33 33 32 31
9 15 14 14 14 16 16 13 14 15 15 15 16 16 16 16 16 16 17 15 16 15 15 15 15 19 19 22 25 24 25 26 27 27 27 27 29 32 32 32 33 33 33 33 32
7 16 13 14 14 11 13 10 11 14 14 14 15 15 15 15 15 15 16 16 15 15 15 15 15 15 18 21 20 20 23 27 25 25 27 28 29 32 33 34 34 35 34 34 33
8 8 12 13 12 10 10 11 11 13 13 13 14 14 14 14 14 14 15 15 15 15 14 14 13 15 19 21 20 21 19 21 25 26 26 26 27 32 31 30 32 32 33 32 32
9 13 12 10 9 10 9 10 11 13 13 12 13 13 13 13 13 13 14 14 14 15 14 13 13 14 17 17 16 16 18 19 20 25 26 27 28 30 31 31 32 32 31 31 31
9 9 8 11 11 9 10 9 10 10 12 12 12 12 12 12 12 12 13 13 14 14 13 13 13 13 15 15 15 15 16 17 18 22 24 27 27 30 31 32 32 32 28 28 29
10 9 8 9 8 9 10 9 9 9 9 10 10 11 9 9 11 12 12 13 13 13 13 11 12 13 14 16 16 15 17 17 19 20 20 22 24 26 27 26 26 25 25 26 26
7 7 8 8 9 9 9 9 9 10 9 10 9 9 8 11 12 12 13 13 13 12 12 11 11 13 14 16 16 16 18 19 21 20 21 23 26 23 24 23 22 22 22 23 23

GFSSW_925_temp_060.txt.gz
Temp
15 16 16 17 17 16 16 18 18 18 18 17 14 11 10 11 12 13 21 23 22 23 23 25 25 26 27 28 28 28 30 31 33 32 32 31 29 31 31 30 30 30 30 28 24
15 16 17 17 16 15 16 17 18 19 18 17 15 11 10 10 15 19 21 21 21 22 24 26 27 27 28 29 28 29 30 33 33 33 31 31 32 31 31 30 30 29 29 26 24
16 16 17 17 16 14 17 18 18 18 19 18 16 15 12 12 20 25 20 19 21 22 26 27 28 28 29 30 30 31 30 32 33 33 33 30 32 33 32 31 31 29 28 27 24
16 16 17 17 16 15 17 18 19 18 19 18 17 16 14 15 29 24 22 23 21 21 26 27 29 29 30 30 31 31 32 32 33 33 33 33 34 33 33 33 32 30 29 27 27
16 16 17 18 17 16 17 18 19 19 18 17 17 16 14 23 26 22 20 20 20 23 27 28 28 30 30 31 31 31 32 32 33 33 34 33 33 33 32 32 31 30 28 28 28
16 16 16 17 18 18 18 19 19 19 18 17 16 15 19 27 22 22 21 21 23 25 27 28 30 31 31 31 31 32 32 32 33 34 34 33 34 33 32 31 30 29 28 29 29
15 15 16 17 17 18 18 19 19 18 17 16 14 14 24 24 22 22 22 23 24 26 28 28 29 30 31 31 32 33 31 33 33 33 33 34 33 33 32 31 30 29 29 29 29
15 15 16 16 17 18 18 18 18 17 17 15 13 17 25 23 22 24 23 23 23 25 28 28 27 30 30 32 31 31 32 32 35 34 33 33 34 34 32 31 30 29 29 29 29
15 15 16 16 17 18 17 17 16 17 15 14 17 20 26 23 25 24 24 25 24 25 26 26 28 29 30 30 31 32 33 33 33 34 34 34 35 33 33 32 30 29 29 29 29
14 15 16 16 18 18 17 16 16 15 15 16 18 23 26 25 25 24 24 24 25 26 26 27 28 29 29 31 31 33 33 35 34 34 34 34 35 32 32 32 31 30 30 29 29
14 15 16 17 18 18 18 18 23 24 24 23 24 25 25 25 26 25 24 25 26 26 26 28 27 28 31 31 32 32 34 34 34 35 34 35 35 33 32 32 31 30 30 29 29
13 15 16 17 18 18 19 22 19 18 22 23 23 24 24 23 26 26 25 27 26 26 28 27 27 30 31 31 30 31 31 32 35 35 33 35 35 36 33 32 32 31 31 30 30
13 14 16 17 18 18 19 18 16 17 22 24 24 25 25 25 25 25 26 26 27 27 27 28 30 30 30 29 29 29 31 32 33 34 32 34 35 35 35 33 33 32 32 31 31
12 13 15 17 18 18 20 17 17 17 24 23 24 24 25 25 25 24 24 25 27 27 27 28 30 28 29 28 29 29 31 31 31 31 32 34 34 35 35 33 33 33 32 32 32
12 13 15 16 18 21 18 17 17 19 24 23 24 24 25 25 24 25 23 25 26 27 27 28 28 28 27 28 30 29 32 31 30 31 32 33 33 35 36 35 33 33 33 33 32
13 14 15 16 16 18 17 17 19 23 24 22 23 22 24 24 24 24 24 25 24 25 26 27 29 29 29 29 29 30 30 30 30 31 30 32 33 34 35 36 36 35 34 33 33
13 14 14 15 18 16 16 21 23 23 22 22 22 22 22 23 23 23 23 23 24 24 26 27 27 28 29 28 30 29 29 29 29 29 30 33 32 34 37 37 37 37 35 35 34
14 14 14 14 16 16 18 23 21 22 22 21 21 22 22 21 22 22 22 24 22 23 25 26 26 28 29 28 29 28 30 30 28 31 32 33 32 34 36 36 38 37 37 36 35
13 15 17 16 15 16 21 22 22 21 20 20 21 21 22 21 21 21 21 22 21 22 23 24 25 26 26 29 29 29 29 31 32 33 33 34 33 35 36 36 36 36 37 37 36
12 16 18 16 15 19 22 19 20 19 19 20 20 21 21 21 20 21 21 21 20 20 21 22 21 25 26 25 27 28 31 29 30 28 29 32 33 33 33 35 35 36 36 37 37
15 20 17 16 17 22 21 19 18 18 18 18 19 19 20 20 19 20 20 20 20 20 20 21 21 24 24 25 27 27 28 29 30 30 30 31 33 36 35 35 35 36 37 38 37
17 21 16 16 20 19 19 16 12 18 18 18 18 18 18 19 19 19 19 20 19 19 19 20 21 21 23 26 26 25 26 29 28 28 30 31 33 36 36 36 36 36 37 38 38
17 17 16 19 19 17 16 16 16 16 17 17 17 17 18 18 17 18 18 19 18 19 19 19 20 19 21 24 25 24 26 27 29 30 29 29 31 35 35 34 36 36 37 37 37
17 19 18 17 16 15 15 15 15 16 16 16 16 17 17 16 17 16 17 18 17 18 15 16 19 18 21 21 21 20 23 24 25 27 28 30 31 33 34 34 34 35 36 37 36
16 15 14 15 15 15 16 15 14 14 15 15 15 15 15 14 15 15 16 17 17 17 16 17 17 18 19 19 20 20 20 21 22 25 26 29 30 32 33 34 34 35 35 33 34
16 14 15 11 13 12 12 12 12 12 11 12 13 13 13 12 14 14 15 16 16 17 17 16 16 17 17 19 20 20 21 21 22 22 24 26 28 33 33 31 31 32 30 31 32
12 11 14 11 13 12 12 11 10 10 11 11 11 10 10 10 13 13 15 16 15 15 14 14 15 17 17 19 20 19 21 22 23 23 24 25 27 30 31 30 30 28 28 29 29

GFSSW_925_temp_063.txt.gz
Temp
16 16 17 16 16 16 16 18 18 18 18 18 17 15 13 13 15 14 24 25 24 24 24 27 28 29 30 32 30 29 29 32 34 35 32 35 34 35 35 33 34 33 31 29 26
16 16 17 16 16 16 16 18 19 18 18 18 18 18 16 15 16 23 24 23 23 24 24 29 30 31 32 32 33 29 29 29 27 35 33 34 35 34 34 34 33 32 31 27 28
16 16 16 17 17 17 17 18 18 19 19 18 18 18 17 13 23 28 22 22 22 23 26 30 31 32 32 33 33 33 30 35 34 34 36 35 34 35 32 34 34 32 29 27 28
15 16 16 17 18 18 18 19 18 19 19 19 18 17 16 16 30 26 23 23 23 22 26 30 32 31 32 33 35 33 35 34 32 34 34 35 36 35 33 32 35 34 30 28 29
15 16 16 16 18 18 19 19 19 19 19 18 17 17 14 24 29 25 23 23 22 23 27 31 31 32 33 34 35 34 34 35 35 35 35 33 36 35 34 35 35 33 31 28 30
15 16 16 16 17 18 18 19 19 19 19 18 17 16 19 28 26 26 25 24 25 25 28 31 32 33 34 35 35 36 35 34 34 35 35 35 36 36 35 35 34 32 31 30 31
15 16 16 16 17 18 18 19 18 18 18 18 16 15 26 28 26 26 26 27 26 27 31 31 32 33 34 33 35 35 34 35 36 34 34 37 32 35 35 35 33 32 31 30 31
15 15 16 17 17 18 18 18 18 18 17 17 16 19 28 26 26 27 27 27 27 28 30 31 32 32 34 35 34 34 35 34 37 36 36 36 34 36 36 35 33 32 32 31 31
14 15 16 17 17 18 18 17 17 18 17 17 17 24 29 25 28 27 28 28 28 29 29 31 32 31 33 32 33 35 34 35 36 38 36 36 32 26 36 35 33 33 32 32 31
14 15 16 17 17 19 19 18 17 17 17 19 22 26 29 28 28 27 27 28 29 29 29 30 30 31 32 33 32 35 35 37 36 36 37 36 32 24 35 36 34 33 33 32 32
13 15 15 17 18 19 19 18 23 24 25 28 29 28 28 28 28 28 28 29 29 29 29 29 29 30 33 33 34 37 37 36 38 35 36 35 34 24 36 37 34 33 33 33 33
13 15 16 17 18 20 19 26 23 23 26 27 27 28 27 28 29 29 28 29 29 28 30 31 30 32 34 34 34 35 35 36 38 38 35 35 35 35 36 36 35 34 33 33 33
13 14 16 17 19 19 23 22 21 22 25 27 28 28 28 28 29 28 29 30 29 29 30 31 32 33 33 33 33 33 34 35 36 38 37 36 33 35 30 36 36 35 35 34 33
13 14 16 17 18 23 24 22 22 22 26 27 26 28 28 29 28 28 28 29 30 30 31 31 33 32 32 32 33 32 34 34 35 35 35 37 33 28 31 35 36 36 35 35 34
13 14 16 16 18 24 22 22 22 23 26 27 27 27 28 28 28 28 27 28 28 30 30 31 31 31 31 32 33 32 34 34 34 34 35 36 35 34 34 32 36 36 36 36 35
13 14 16 17 19 22 21 22 23 24 26 26 27 26 27 27 28 28 28 28 29 28 30 30 33 32 32 33 32 33 33 33 34 34 32 34 36 36 35 35 37 37 37 36 36
13 15 16 17 22 21 21 24 25 26 27 26 26 27 27 27 27 27 27 28 27 27 28 29 30 31 31 31 32 32 32 31 31 31 32 35 35 36 39 36 37 38 38 37 37
14 15 18 19 20 20 22 25 24 27 26 26 25 26 26 26 27 26 26 27 27 27 28 28 29 30 31 30 31 31 32 32 30 32 33 35 34 36 39 39 37 34 38 38 37
15 17 21 21 20 20 24 25 25 25 24 24 25 25 26 25 24 25 26 27 27 26 26 28 28 31 31 32 31 31 31 33 33 35 35 37 36 38 39 39 37 29 38 37 38
15 21 22 20 20 22 24 23 24 23 23 24 23 25 25 26 24 25 26 26 25 24 25 26 25 29 29 30 30 30 33 31 32 30 31 35 36 36 37 37 38 38 39 38 38
15 23 21 21 21 25 25 23 23 22 21 22 23 23 23 23 24 24 24 25 24 24 23 24 25 26 29 28 28 29 29 30 32 33 31 32 35 39 38 37 38 38 38 39 39
22 24 20 21 24 24 24 21 14 22 21 21 21 21 22 22 22 22 22 24 23 23 22 24 24 24 26 29 29 30 30 30 30 30 32 33 35 39 39 39 38 39 39 39 39
22 22 21 23 24 23 21 21 20 20 20 20 20 21 21 20 19 21 21 23 22 21 21 23 22 22 24 26 27 27 29 29 30 32 31 32 33 38 37 37 38 38 38 39 39
22 23 23 23 22 21 20 20 20 19 20 19 19 20 20 19 20 19 20 20 20 21 17 19 21 22 23 25 25 25 27 28 29 30 30 31 33 36 36 36 36 37 38 38 39
21 20 19 20 19 20 20 19 18 17 18 18 18 18 18 18 19 19 20 20 20 20 19 19 19 21 22 23 23 23 24 27 27 28 28 31 32 34 36 36 36 36 37 37 37
20 20 19 19 17 17 17 15 13 13 14 16 17 17 17 16 17 16 16 16 17 19 18 20 18 19 18 20 22 22 23 24 25 27 27 27 28 32 33 32 36 35 35 34 34
17 16 19 13 15 16 16 16 14 14 14 15 15 14 15 17 17 18 18 18 19 17 17 18 15 16 17 20 21 21 23 24 25 26 26 26 28 30 31 31 32 34 32 32 33

GFSSW_925_temp_066.txt.gz
Temp
16 15 15 16 17 17 17 17 17 18 18 18 19 19 18 16 17 15 22 25 25 24 25 27 27 29 30 32 32 31 28 30 31 25 26 26 35 34 33 34 34 32 30 29 28
16 15 15 16 17 17 18 18 18 18 18 19 19 18 18 15 15 21 24 25 25 25 25 28 29 31 31 32 33 31 29 30 32 31 28 31 34 35 34 33 32 31 31 29 28
15 16 16 16 17 18 18 18 19 19 19 19 19 18 17 14 20 28 23 24 25 24 25 30 31 32 31 33 33 33 32 27 27 31 29 32 35 36 34 32 31 29 29 29 29
15 15 16 16 17 18 18 18 19 19 19 19 19 18 16 15 28 26 24 24 24 23 25 28 33 32 32 32 35 33 33 34 30 35 33 27 30 30 29 23 31 31 30 30 29
15 15 15 16 17 18 18 19 19 19 19 19 18 18 16 23 28 26 25 25 23 24 27 29 32 32 32 34 35 35 35 35 32 35 30 31 27 24 28 27 31 31 30 30 30
15 15 15 16 17 18 19 19 18 18 19 18 18 17 18 26 29 28 27 24 26 26 27 30 33 34 34 34 35 37 36 36 35 35 33 31 28 27 28 28 32 30 29 30 31
14 15 15 16 17 17 18 18 18 18 18 18 17 15 24 29 28 29 28 28 27 27 30 30 33 34 34 34 36 36 35 36 37 35 35 35 31 32 31 33 33 30 30 29 30
14 15 15 16 17 18 19 18 18 18 18 17 16 17 27 28 28 28 29 30 28 28 30 32 33 34 34 35 35 35 35 34 37 37 36 35 32 30 31 33 33 31 30 29 30
14 14 15 16 17 18 19 18 18 18 17 17 16 20 29 27 29 30 30 30 30 29 30 32 33 33 33 32 33 35 33 34 36 38 37 35 30 26 24 28 33 33 30 30 30
13 15 15 16 18 19 20 19 19 19 18 18 21 26 30 30 30 30 30 30 31 31 31 31 32 31 32 32 31 33 34 35 36 38 38 36 28 26 24 27 34 33 32 30 31
13 14 15 16 18 19 19 21 23 22 23 28 29 30 30 30 29 30 30 30 31 30 29 31 30 29 31 32 34 35 36 37 38 39 38 36 28 25 27 27 28 33 33 31 31
13 14 14 16 18 20 19 25 25 25 25 30 30 30 30 30 30 31 30 30 30 29 30 31 29 31 33 34 34 34 34 36 38 39 38 32 25 24 25 28 24 34 34 33 32
13 14 14 17 18 20 23 25 24 25 26 29 30 30 30 30 31 30 30 31 30 29 30 30 32 33 33 34 34 34 34 35 36 38 39 37 26 25 26 25 23 32 35 34 33
13 14 15 17 17 24 26 24 25 25 25 28 28 29 29 30 29 31 30 30 31 30 31 31 33 34 33 33 34 33 36 35 35 36 35 39 33 24 27 24 22 22 35 34 34
14 14 16 14 17 24 24 24 24 25 25 28 29 28 30 29 29 29 30 30 29 31 31 31 32 32 33 33 34 33 35 35 35 34 35 36 36 34 29 26 24 23 32 35 35
14 15 16 19 17 23 24 24 25 24 26 27 29 28 28 29 29 30 29 30 30 29 30 31 34 34 33 34 34 35 34 34 34 34 33 34 35 36 31 28 24 22 28 36 35
14 16 16 16 23 23 24 25 24 25 29 27 28 28 29 29 28 29 29 29 28 28 28 30 31 32 33 32 34 33 32 30 30 31 32 35 35 36 38 32 28 28 29 37 36
15 17 18 18 23 23 24 25 24 29 28 28 28 28 28 29 28 28 28 28 30 29 28 28 30 31 32 32 32 32 32 30 29 31 32 35 33 36 38 36 32 29 27 27 37
17 18 19 22 23 23 25 25 25 26 26 26 27 27 27 28 27 27 27 28 29 28 26 27 29 33 33 33 32 31 32 33 32 34 33 35 36 37 39 39 37 32 29 26 30
13 22 24 23 23 24 25 25 25 25 24 25 24 27 26 28 27 27 27 28 28 27 26 26 25 29 31 32 32 32 33 31 32 29 30 33 35 36 37 38 39 35 29 27 26
15 24 24 23 24 25 25 24 25 24 23 23 24 24 25 26 26 26 26 27 27 26 25 25 24 26 28 29 29 30 29 31 32 32 31 31 34 38 38 38 38 35 31 25 25
22 25 24 24 24 26 24 23 16 24 24 23 23 23 23 24 24 24 25 25 25 24 23 25 23 24 26 29 30 30 29 30 30 29 31 32 34 38 39 39 39 39 33 31 29
22 25 25 26 24 25 23 23 22 22 23 22 22 23 23 22 21 23 23 25 24 22 22 23 22 22 24 26 28 28 29 30 30 31 30 30 33 37 38 38 39 39 39 36 29
22 24 25 25 24 23 22 22 22 22 22 21 21 22 22 21 22 21 22 23 22 22 19 20 21 20 21 24 25 25 27 28 28 29 30 31 32 34 36 37 36 37 38 39 38
24 22 22 20 21 22 21 21 19 19 19 21 21 20 20 19 21 21 22 22 23 22 21 21 19 21 21 23 23 24 25 26 26 28 28 30 31 33 33 31 32 29 34 38 37
22 21 22 20 20 21 19 18 17 17 17 18 17 18 18 18 19 18 20 19 19 20 19 20 19 20 20 22 22 21 23 25 25 26 28 29 30 33 32 28 29 29 28 33 34
20 21 22 17 20 20 18 18 17 16 17 17 17 16 17 18 18 19 19 20 20 19 19 19 18 16 17 20 21 20 22 24 25 26 26 27 29 31 30 28 29 29 27 25 32

GFSSW_925_temp_069.txt.gz
Temp
15 15 15 16 17 17 18 18 18 18 18 18 18 18 18 17 17 16 18 23 24 24 25 25 26 26 28 27 29 29 26 26 26 24 25 26 27 33 30 29 30 29 27 27 27
16 15 15 16 16 17 18 18 18 18 18 19 18 18 17 16 15 17 23 23 24 25 25 25 26 27 27 28 29 28 25 28 29 27 25 27 26 32 30 31 29 28 28 28 27
16 16 15 16 16 17 17 18 18 18 18 19 19 18 17 15 17 24 26 24 24 25 25 26 28 28 27 29 30 31 28 30 30 27 25 29 27 23 31 28 28 26 27 27 27
14 15 15 16 16 17 17 18 18 18 18 19 19 18 17 15 24 25 25 25 25 25 25 25 26 28 28 28 31 30 32 33 30 30 29 26 24 23 24 26 29 28 28 28 28
14 14 15 16 16 17 17 18 18 18 18 18 18 17 16 18 22 26 25 24 24 24 24 25 26 28 28 30 31 32 33 34 34 31 29 26 26 24 24 27 29 28 28 28 28
15 14 15 15 16 17 17 18 18 18 17 17 17 17 15 21 28 27 26 24 24 24 25 26 28 30 30 31 31 33 35 35 34 31 28 26 25 26 27 27 28 28 28 28 28
14 14 15 15 16 17 17 18 18 18 18 16 16 15 19 22 29 28 27 26 26 25 25 27 28 28 31 30 33 33 32 33 34 30 31 28 24 25 23 26 27 28 28 28 28
14 14 15 15 16 17 18 19 19 18 18 16 16 15 19 27 29 29 29 28 27 27 27 28 30 29 30 31 32 31 31 30 33 34 33 30 26 24 23 25 27 28 29 28 28
13 14 14 16 16 17 19 20 19 19 18 17 16 16 23 29 28 29 30 30 28 28 28 29 30 29 30 29 27 29 27 30 32 35 35 31 25 23 23 23 25 28 28 29 29
13 14 14 15 17 17 19 20 20 19 18 16 18 19 24 29 30 30 30 30 29 28 28 28 27 27 27 26 25 27 28 30 31 34 35 31 25 24 24 24 24 27 28 28 28
13 14 14 15 17 17 19 19 19 18 20 22 24 25 30 30 29 29 30 30 30 28 25 28 25 25 26 27 29 30 30 31 33 34 34 32 25 25 25 26 25 24 27 28 28
13 13 14 16 18 19 18 17 24 24 22 26 27 28 30 30 29 30 30 28 28 26 27 26 25 28 30 30 30 30 30 30 32 34 31 27 25 26 24 26 25 21 27 28 28
13 13 14 16 19 20 20 23 25 25 22 26 28 28 29 29 29 28 29 29 28 27 27 26 28 30 30 29 30 30 29 30 30 33 30 26 25 25 27 27 25 23 22 28 29
13 13 14 16 18 20 22 25 25 25 20 26 27 29 29 29 28 31 31 29 29 27 28 27 29 30 30 29 30 27 31 33 33 31 28 32 28 24 25 25 25 24 22 24 29
13 14 16 14 16 18 24 25 25 25 21 27 27 28 30 27 28 28 30 28 27 28 28 27 29 29 30 31 31 30 31 31 31 30 30 31 28 25 26 25 26 26 26 25 25
14 14 16 18 17 22 23 24 24 20 23 27 28 27 27 27 28 29 28 28 28 27 27 27 30 30 30 32 32 33 31 29 29 28 26 28 28 23 25 27 25 28 28 25 27
14 16 16 15 20 23 23 22 20 21 28 26 26 27 26 27 28 28 28 26 25 25 25 27 28 29 31 29 30 30 29 24 24 25 26 29 28 28 27 28 26 27 26 27 26
16 17 19 19 22 21 23 20 21 25 25 27 28 28 27 27 28 27 27 25 27 26 25 24 24 29 31 29 29 28 27 23 24 24 26 28 28 28 30 29 28 27 27 27 23
17 19 18 22 22 21 20 20 21 23 24 25 26 26 26 27 27 27 27 25 26 24 22 21 24 27 29 30 30 28 26 28 26 27 26 28 29 31 32 30 28 27 27 25 24
14 17 21 24 24 23 20 22 22 23 24 24 23 25 24 25 26 25 25 25 25 24 23 22 20 24 26 28 29 28 29 25 24 24 24 27 27 28 31 30 28 28 27 24 23
15 19 24 24 24 21 21 22 23 24 24 23 22 22 22 23 23 23 24 23 24 24 24 23 21 21 24 25 24 25 25 26 25 24 24 25 26 29 31 31 30 29 25 24 23
17 21 25 25 21 22 21 22 18 23 23 23 23 23 22 22 21 22 23 22 23 22 21 21 20 18 20 23 25 25 24 24 22 23 24 24 26 31 32 32 28 30 28 26 25
16 22 25 25 21 21 23 22 21 21 20 21 21 21 21 21 20 21 22 24 23 21 18 19 18 17 18 21 24 22 24 24 23 24 24 23 25 31 29 28 28 26 25 27 27
16 21 22 22 21 21 20 21 20 21 20 21 21 21 20 19 20 21 21 23 23 21 21 20 18 17 16 18 20 20 22 22 22 21 22 24 25 28 26 27 27 27 26 26 27
18 20 20 18 19 19 19 19 18 17 19 18 19 18 17 16 18 18 19 19 21 20 20 18 16 17 18 20 21 21 21 21 21 22 21 23 24 26 26 26 26 26 25 24 25
18 18 20 19 20 19 18 18 17 16 17 17 16 17 17 16 16 15 16 16 17 17 18 18 15 16 16 19 20 20 21 22 22 22 23 23 24 25 26 25 26 25 25 22 23
19 20 19 19 18 17 17 17 17 16 18 18 17 15 16 15 16 16 16 16 16 16 16 16 15 14 14 16 16 16 19 21 21 22 22 22 23 24 24 25 23 23 22 22 21

GFSSW_925_temp_072.txt.gz
Temp
14 15 15 15 16 17 17 17 18 18 18 18 18 18 18 18 18 15 15 23 24 22 24 24 23 25 25 25 26 28 24 25 26 25 27 26 25 27 28 27 28 27 26 26 25
15 15 15 15 15 16 17 17 18 18 18 18 18 18 18 16 14 14 24 24 24 24 24 24 24 25 23 25 26 25 23 27 29 27 25 26 25 25 26 27 28 26 27 27 26
15 15 15 15 16 16 16 17 18 17 17 18 18 18 17 15 14 20 25 23 23 24 25 25 26 25 24 26 26 27 26 28 29 28 27 26 24 24 25 26 26 25 26 27 26
14 14 15 15 16 16 16 17 18 17 17 18 18 18 17 15 25 26 26 25 24 24 24 25 25 24 25 25 27 26 29 30 30 28 27 25 23 23 23 24 26 26 27 27 26
14 14 15 15 16 16 17 17 18 17 17 17 17 17 15 16 18 26 26 24 23 24 24 24 24 24 25 26 27 28 29 31 32 30 27 25 24 23 23 24 26 27 27 26 26
13 14 14 15 15 16 17 17 17 17 16 17 17 16 15 19 27 27 25 23 24 23 23 24 24 26 26 27 27 30 30 31 33 27 27 26 25 26 25 26 25 26 27 26 27
13 14 14 14 15 16 16 18 18 18 17 16 16 15 15 20 27 27 26 26 25 24 22 25 25 25 26 26 29 30 29 30 30 28 27 26 24 25 23 27 26 27 27 27 26
14 14 14 14 15 16 17 18 19 19 17 17 15 14 16 26 27 25 26 25 25 25 26 26 26 25 26 27 29 29 28 28 30 28 27 27 25 23 25 26 25 26 27 27 26
14 14 14 14 15 16 18 19 20 20 18 17 15 15 19 26 27 28 27 27 26 26 26 27 28 25 26 27 24 24 26 27 29 30 27 27 24 23 24 24 26 27 27 27 26
13 13 14 15 15 16 18 20 19 18 17 15 16 17 21 26 28 29 29 28 26 25 26 26 24 24 22 22 22 26 26 26 27 31 29 25 24 24 24 25 26 27 27 27 27
13 13 14 15 16 16 18 18 17 17 18 18 20 21 26 28 29 29 29 29 27 25 23 25 23 22 24 24 26 27 27 26 29 30 31 29 24 24 23 24 25 25 25 27 27
12 13 14 16 17 18 18 16 22 23 20 21 22 23 25 27 28 27 29 27 26 24 24 24 22 24 27 27 27 27 26 26 28 30 27 24 23 22 23 24 24 25 25 27 27
12 13 14 17 19 19 18 20 24 23 19 21 24 25 25 28 27 27 27 26 26 25 24 23 25 27 27 27 27 26 25 26 27 28 26 26 24 24 24 25 24 25 25 26 27
12 13 14 18 19 18 19 23 24 24 16 21 25 27 28 27 27 29 29 28 27 25 25 24 26 28 27 27 27 24 27 29 29 28 26 28 25 24 24 23 23 24 23 24 27
13 14 15 17 17 16 22 23 23 22 20 25 25 28 27 25 27 27 29 27 26 26 26 25 27 26 27 27 27 26 28 28 30 27 27 28 25 24 24 23 23 23 24 25 26
14 15 15 16 16 22 22 22 22 17 22 25 26 26 26 26 27 27 27 27 27 26 26 26 28 28 27 29 29 29 28 25 24 24 23 25 26 24 22 25 24 24 24 25 26
16 17 17 17 19 22 21 18 17 18 23 25 25 25 24 24 26 26 26 25 23 24 24 25 27 28 29 28 27 29 23 21 23 23 22 24 25 25 26 26 26 25 25 26 25
17 19 20 20 22 21 19 17 17 22 21 23 24 25 23 25 25 26 25 22 23 22 19 21 23 23 25 25 26 27 23 21 23 22 23 24 26 28 27 28 28 27 26 27 26
19 20 19 23 22 20 15 16 18 20 21 21 22 22 20 23 24 25 22 20 22 20 20 19 22 24 26 25 25 27 25 24 23 22 22 23 25 27 29 28 27 26 25 25 25
17 16 18 24 23 20 16 17 20 22 22 21 19 20 19 20 20 21 21 21 22 21 20 21 20 21 24 23 22 21 23 24 19 23 24 23 25 25 26 26 27 26 26 25 24
16 15 23 24 24 15 16 20 20 21 21 20 20 19 19 19 19 19 19 21 21 21 18 18 17 19 22 19 20 20 20 20 20 20 21 22 23 27 25 24 25 25 27 26 24
12 16 22 24 16 14 16 19 20 18 19 19 19 19 18 18 18 19 19 20 21 20 18 17 15 16 19 20 22 22 19 17 17 19 19 20 22 25 25 25 25 24 27 26 25
10 12 22 22 14 14 17 18 18 18 17 18 18 17 18 16 18 19 20 21 21 19 18 18 14 14 17 17 17 19 19 18 16 15 19 20 21 25 25 25 25 24 23 24 23
11 15 14 13 13 15 16 16 16 18 17 17 16 16 15 14 14 16 16 18 20 19 20 17 13 14 14 16 16 17 19 19 16 15 16 18 20 21 23 24 24 23 22 24 24
12 15 15 14 14 13 14 15 15 14 15 15 15 15 14 13 13 14 14 14 17 18 16 14 14 16 16 16 17 17 17 19 18 18 18 18 19 20 20 22 22 22 22 22 22
14 14 13 13 14 14 12 14 14 14 15 15 14 15 13 12 13 12 12 12 14 14 14 13 14 14 14 16 16 16 17 18 19 19 19 19 19 18 19 20 21 21 21 21 20
16 16 13 13 14 13 14 15 15 15 15 16 15 14 13 13 14 13 13 12 12 13 13 13 13 12 12 14 15 14 17 18 18 18 17 15 16 16 17 18 17 18 19 19 20

GFSSW_925_temp_075.txt.gz
Temp
15 15 15 15 16 16 16 16 17 17 17 17 18 18 18 17 17 15 14 24 24 24 24 23 22 23 24 23 25 26 24 25 25 26 26 24 25 26 25 26 27 27 24 23 22
14 14 14 15 15 16 16 17 17 17 17 16 17 18 17 16 14 13 24 23 23 22 22 21 21 23 22 23 25 24 23 26 28 27 25 25 23 22 23 26 26 24 25 24 21
13 14 14 15 15 15 16 17 17 17 17 17 17 18 16 14 14 20 25 24 23 23 24 24 24 24 23 24 24 25 24 27 28 28 24 23 23 23 24 25 25 24 24 23 22
13 14 14 14 15 15 16 16 17 17 17 17 16 17 17 14 24 25 25 24 24 23 24 24 23 23 23 24 25 25 27 27 28 28 27 25 23 22 23 24 24 25 25 23 23
13 13 14 14 14 15 16 16 17 17 17 16 16 16 15 16 18 25 25 24 23 23 23 22 23 23 23 24 25 26 27 28 29 30 26 24 24 24 23 23 24 26 26 24 23
13 13 13 14 14 14 15 16 17 17 17 16 14 15 14 19 25 25 25 23 23 23 23 23 23 23 24 25 26 28 28 28 29 26 25 25 24 25 25 23 23 26 26 25 25
12 12 13 13 14 15 16 17 17 18 17 16 14 14 14 20 25 25 24 23 23 23 21 24 25 25 24 25 27 27 27 28 26 26 26 25 24 25 25 25 24 26 26 26 26
12 11 13 14 14 15 16 18 18 18 18 17 14 13 15 24 24 24 23 23 23 23 24 24 25 24 25 25 27 27 26 26 27 27 25 26 24 24 23 23 25 25 26 26 26
11 12 13 14 14 15 16 18 20 19 18 16 14 14 18 24 23 25 25 24 23 22 23 26 25 24 26 25 23 23 25 27 28 26 25 25 24 24 24 23 24 25 26 26 25
13 12 13 14 14 15 17 17 16 17 14 14 15 16 20 26 27 27 25 25 24 23 24 24 22 22 20 21 22 25 26 26 27 27 28 25 24 23 24 24 25 26 26 26 26
12 13 13 14 16 15 16 16 15 16 16 18 19 19 23 25 28 28 27 25 25 23 22 23 22 21 23 23 25 26 26 25 27 29 29 25 24 24 23 23 24 25 25 26 26
13 13 13 15 17 18 17 17 20 21 18 19 20 20 23 24 25 27 28 25 24 23 23 21 21 23 25 25 25 26 25 25 26 27 25 23 23 23 24 23 24 25 25 26 26
12 13 15 17 19 18 16 20 20 20 17 20 21 22 24 24 25 26 26 26 24 24 23 22 24 26 25 26 26 25 24 25 26 27 24 24 24 23 24 23 23 24 25 26 27
12 14 16 18 18 18 18 20 22 21 16 21 23 25 26 26 26 27 27 26 26 24 23 23 25 26 25 25 24 23 24 26 27 26 25 26 23 23 23 23 24 23 24 25 27
13 14 17 16 17 16 20 22 23 21 19 24 25 27 25 25 26 27 28 26 25 25 23 24 26 24 25 25 25 25 26 26 27 26 26 26 24 23 23 22 23 23 25 25 26
14 15 18 17 16 20 20 22 22 17 21 24 26 25 24 25 26 26 26 26 25 25 25 25 27 26 25 27 26 27 26 24 21 21 22 25 25 23 21 23 24 23 24 25 24
17 18 19 18 19 21 20 18 17 17 21 22 23 24 24 24 25 25 25 22 21 23 23 24 25 23 24 27 26 24 22 21 23 22 22 23 24 25 24 24 25 24 24 25 25
19 20 20 21 21 20 19 16 16 20 19 21 21 22 22 24 24 23 21 20 20 20 18 21 23 22 23 24 25 26 23 20 23 21 23 22 24 27 26 26 26 26 25 25 25
21 21 21 22 21 20 15 15 17 18 20 20 20 19 19 20 22 21 19 18 20 19 19 20 22 22 24 22 23 23 21 22 19 19 22 22 25 26 25 25 24 24 25 24 24
19 18 20 20 21 20 16 16 18 19 19 19 18 18 17 18 20 19 18 19 20 19 19 20 21 20 21 22 21 20 21 21 18 21 23 22 22 22 23 23 23 23 24 24 24
17 16 21 22 21 15 14 18 19 18 19 19 17 17 18 18 18 17 18 20 20 20 17 17 17 20 19 19 19 17 17 16 17 17 19 20 20 23 21 22 22 22 22 23 25
14 16 22 21 15 10 13 16 18 16 16 17 17 17 17 15 16 17 17 16 18 18 18 16 13 15 18 17 19 19 17 15 15 17 16 18 19 21 21 22 22 22 22 22 24
11 12 21 21 14 12 16 16 16 15 15 16 15 16 15 14 16 16 16 18 18 17 17 18 13 15 17 16 16 16 17 16 13 12 15 16 19 22 20 21 21 21 21 21 22
12 14 13 11 9 13 15 14 15 17 15 15 14 14 14 13 12 14 15 17 17 17 18 15 11 14 14 16 15 16 16 16 14 14 15 16 17 17 18 18 19 20 20 21 21
11 13 13 12 12 12 12 14 14 13 14 13 14 13 13 11 12 12 12 13 16 15 14 13 13 14 14 15 16 16 16 17 16 18 16 17 16 15 16 17 17 18 20 20 20
12 13 11 11 12 12 11 13 14 14 14 14 13 13 12 11 12 12 12 13 13 13 12 11 12 14 13 14 15 15 16 17 17 17 18 18 17 15 16 17 16 17 18 18 18
13 13 12 11 12 12 12 15 15 14 14 15 14 12 13 13 13 12 12 12 13 13 12 11 11 10 12 12 14 14 16 17 17 16 17 16 15 15 15 16 15 15 16 16 16

GFSSW_925_temp_078.txt.gz
Temp
14 13 14 14 15 15 16 16 16 16 17 17 17 17 17 17 15 14 13 23 24 23 23 22 21 22 22 22 24 26 22 25 26 26 24 23 23 22 24 25 27 26 23 22 20
13 13 12 13 14 15 15 16 16 16 16 16 17 17 17 15 13 12 24 23 23 23 22 21 20 22 21 23 24 24 23 25 27 26 25 24 22 22 23 23 24 22 22 21 20
12 12 13 12 13 13 15 16 16 16 16 16 17 17 16 14 13 20 25 23 22 22 23 23 23 23 23 23 23 24 24 27 27 26 26 24 22 23 23 23 24 22 22 21 20
13 12 11 12 13 13 14 15 16 17 17 16 16 16 15 14 24 24 23 23 21 22 23 23 22 22 22 23 24 24 27 27 27 26 25 24 23 23 23 23 24 23 22 21 21
12 12 13 13 14 14 14 15 16 17 17 16 16 16 14 16 18 24 24 22 21 23 23 21 22 22 22 23 24 24 26 26 27 27 24 24 24 24 23 22 23 24 23 22 21
10 11 12 13 14 14 14 15 16 16 17 16 13 15 14 20 23 24 24 22 22 22 22 22 22 23 23 24 25 26 26 26 27 25 24 25 24 25 23 23 23 23 22 23 22
10 11 13 13 13 15 15 16 16 17 17 16 13 14 14 21 23 23 23 22 22 23 20 23 24 24 24 24 25 26 26 26 24 25 25 25 24 25 23 23 23 23 23 23 23
11 11 12 13 13 14 15 16 18 18 17 16 12 13 16 22 22 22 23 22 22 23 24 24 24 24 24 24 25 26 25 25 25 25 25 24 25 24 24 24 24 24 24 24 23
12 12 13 13 13 12 16 16 18 19 17 15 13 14 19 22 21 23 23 22 21 22 23 24 25 23 25 23 22 22 24 26 26 25 25 24 24 25 24 24 24 25 25 24 24
12 13 13 13 12 12 16 15 14 15 13 13 14 16 20 24 24 23 22 23 21 21 22 23 20 20 19 20 21 24 24 25 26 25 25 23 23 23 23 24 23 25 25 24 24
12 12 13 14 13 12 15 15 14 15 14 17 19 20 21 24 25 24 22 23 22 22 20 22 20 20 21 22 24 25 25 25 26 27 27 24 23 23 23 23 23 24 25 25 25
12 12 14 15 15 17 16 16 19 19 17 17 18 18 21 23 24 24 24 23 23 21 21 20 20 22 23 23 24 25 24 25 27 27 25 23 23 23 22 22 23 24 24 25 25
12 12 15 17 17 16 16 19 18 18 16 19 19 20 22 22 24 24 24 23 22 21 21 20 23 24 24 25 25 24 23 25 26 25 23 23 23 24 23 23 23 23 24 25 26
11 13 15 18 17 16 18 19 20 19 15 22 22 23 24 24 25 26 26 25 24 22 21 23 25 25 24 25 24 24 24 26 26 25 24 24 23 22 23 23 23 23 23 24 25
12 14 16 18 17 17 20 21 20 19 18 23 23 26 24 24 25 25 26 25 23 24 23 23 24 24 24 24 24 24 24 24 26 25 24 24 23 23 22 21 22 23 24 24 25
16 17 18 18 17 20 20 21 20 17 20 22 24 24 24 23 25 24 25 23 24 24 24 25 25 24 24 25 24 26 24 20 19 20 22 25 24 24 22 22 23 23 24 25 25
19 19 20 19 18 19 20 17 16 16 20 20 20 21 23 24 24 23 20 19 20 21 23 23 24 22 23 26 25 23 21 19 21 21 22 21 23 23 23 23 23 23 24 24 26
21 21 20 19 19 19 19 16 16 19 19 19 19 20 19 20 20 19 19 18 18 18 17 20 21 21 22 22 24 23 21 19 22 19 22 22 23 23 23 22 23 22 23 24 25
21 21 20 19 18 19 15 14 16 17 18 18 19 18 19 20 20 19 17 17 18 17 20 19 21 20 22 21 21 23 20 20 18 18 21 21 21 23 23 23 22 22 22 22 25
19 18 20 20 19 18 14 16 18 18 18 18 18 17 17 18 19 18 18 19 18 18 17 18 19 20 20 20 20 19 20 20 18 22 23 21 20 19 20 20 21 21 21 21 21
18 16 21 20 20 14 14 16 17 17 18 17 17 17 16 16 17 17 15 20 18 18 16 16 17 19 17 16 16 17 16 15 15 16 19 18 19 21 18 18 19 20 20 20 21
14 16 21 20 14 9 12 14 15 15 15 16 16 15 15 14 14 16 15 15 17 18 18 16 14 14 16 17 17 16 16 13 17 19 14 16 18 18 17 18 18 19 20 20 21
12 12 21 19 14 11 14 15 15 14 13 14 14 14 13 12 15 15 16 17 16 16 17 18 13 14 17 16 15 15 15 14 11 12 15 17 17 18 17 17 17 18 19 19 19
11 13 12 10 8 13 14 13 14 15 14 14 13 13 13 12 11 13 14 16 15 16 17 15 12 15 14 15 14 15 16 16 14 14 13 15 17 16 15 16 16 16 18 20 19
10 12 11 11 11 11 12 13 13 13 13 12 13 12 13 12 12 12 12 13 15 14 13 12 12 13 13 14 15 15 16 17 17 16 17 15 16 16 14 15 15 16 17 17 18
12 12 9 9 10 11 10 13 13 13 13 13 13 12 11 11 12 12 12 12 12 12 12 10 11 13 13 14 14 15 15 16 16 17 17 17 15 14 15 15 15 15 15 15 16
12 12 11 9 10 11 12 14 14 14 14 14 14 12 12 13 12 12 12 10 12 13 11 10 10 10 12 12 13 13 15 15 16 16 16 15 15 14 14 15 14 13 14 14 15

GFSSW_925_temp_081.txt.gz
Temp
12 12 13 14 14 15 14 13 14 15 16 16 16 17 18 17 15 14 17 23 24 23 22 21 22 22 23 25 24 26 25 27 27 27 24 23 23 22 23 25 26 26 26 24 22
12 12 12 13 14 13 14 15 15 14 16 16 16 17 16 15 13 14 24 23 23 22 22 23 24 23 25 25 25 25 23 27 29 27 25 23 23 23 22 25 23 23 24 22 22
12 11 13 12 13 13 14 15 15 15 15 16 16 16 16 13 16 24 24 23 22 21 22 23 24 25 25 25 26 26 27 28 28 27 27 24 23 23 23 25 24 22 22 22 23
11 11 11 12 12 13 14 15 16 15 16 16 16 16 15 14 26 23 23 23 22 21 23 24 25 26 25 25 26 25 27 28 28 27 27 26 24 24 24 23 24 24 23 23 24
10 10 11 11 12 13 14 14 15 16 15 16 14 14 14 18 23 22 22 21 20 22 24 25 25 25 26 26 26 26 28 28 29 28 27 25 25 24 23 22 24 24 23 24 24
10 11 10 10 11 11 12 14 15 16 16 16 14 12 15 22 22 21 21 20 21 23 24 25 25 26 26 26 27 28 28 29 29 29 27 26 25 26 22 21 22 24 24 24 24
10 11 11 11 10 10 11 14 16 16 16 15 15 12 16 23 21 21 20 21 22 23 24 24 25 26 26 27 27 28 28 28 27 27 26 27 24 25 24 21 23 24 25 25 24
11 10 11 10 10 9 12 15 17 18 17 15 12 13 20 21 21 20 21 21 22 23 24 23 25 26 26 27 28 28 29 30 27 28 26 27 27 24 24 23 23 24 25 25 25
12 11 11 10 9 9 13 13 16 19 16 15 13 15 22 20 20 21 22 23 21 22 23 24 26 26 27 27 28 28 29 30 28 28 27 27 28 26 24 24 25 24 25 25 25
11 11 11 11 10 10 13 13 13 15 13 13 14 18 21 24 22 21 22 22 23 23 24 25 25 26 26 27 28 28 29 29 29 28 28 27 28 25 25 24 25 25 25 26 26
11 11 12 13 11 11 14 14 18 18 15 21 22 22 23 24 22 22 22 24 24 25 24 24 25 25 26 27 27 28 29 29 29 29 29 29 29 28 26 24 24 25 25 26 27
12 10 14 14 14 16 16 19 19 18 20 20 20 20 21 22 25 22 23 25 25 24 24 24 25 25 27 26 27 28 28 29 29 28 29 27 26 27 27 26 25 25 25 27 27
10 13 15 16 17 15 16 18 17 17 20 22 21 22 24 24 26 24 25 25 25 24 25 25 26 26 26 26 27 27 28 28 29 28 27 27 27 25 25 26 25 26 26 27 27
12 15 17 16 15 16 17 18 18 18 22 23 23 25 24 25 26 26 26 27 25 25 25 26 26 26 26 27 28 28 28 28 28 29 30 27 30 26 25 25 25 26 26 27 28
16 17 18 18 17 18 19 19 18 19 22 24 25 25 25 27 27 26 26 27 26 25 25 26 26 26 26 27 28 28 27 28 28 28 29 28 31 27 25 25 26 27 26 25 27
18 19 19 18 18 20 20 19 19 21 21 23 24 25 26 26 26 26 26 26 26 26 26 26 26 27 28 28 28 27 27 27 27 28 29 30 30 27 26 25 25 26 27 27 26
20 20 19 18 20 19 19 20 21 20 22 22 22 23 24 23 24 24 23 23 25 25 25 26 25 25 25 27 27 28 28 27 27 28 29 26 29 25 25 25 25 25 26 28 28
21 20 19 18 17 18 18 22 20 20 20 21 21 23 23 23 22 22 22 23 22 23 25 26 25 24 24 24 27 28 29 28 27 27 29 26 27 24 25 25 25 25 25 26 28
21 20 19 19 19 18 22 20 18 18 19 20 22 23 22 22 23 23 21 21 21 21 25 24 23 23 23 23 23 25 27 26 26 24 30 27 26 26 25 24 24 23 24 24 24
19 19 20 19 18 18 21 18 19 18 18 20 20 20 22 20 23 22 20 20 20 20 20 22 23 21 22 23 24 24 23 27 27 26 28 25 24 25 22 22 22 21 21 22 25
18 22 20 20 19 20 19 18 18 18 18 19 19 19 18 20 20 19 18 20 18 20 21 21 24 22 22 21 20 24 24 23 26 24 28 26 24 22 21 20 19 20 20 21 23
18 21 20 20 20 16 17 17 15 17 17 18 18 17 18 17 18 18 18 17 17 19 21 19 21 21 20 20 19 20 20 21 28 24 23 26 23 21 20 20 19 19 20 20 20
18 18 20 18 20 18 17 17 17 17 16 17 17 17 16 16 18 18 18 18 17 18 19 20 20 21 21 22 21 20 20 20 20 22 23 27 23 21 21 20 19 19 19 20 19
18 19 19 16 13 17 16 16 16 16 16 16 15 16 17 16 16 16 18 18 17 18 17 19 18 20 23 21 19 20 20 20 22 25 22 23 21 21 20 20 20 19 19 20 19
16 15 14 16 16 15 16 15 16 16 16 16 15 15 15 17 16 16 16 18 19 16 17 19 18 18 18 18 19 19 19 20 21 20 23 21 22 19 18 18 18 19 19 19 19
18 17 14 14 13 16 15 15 15 15 16 15 15 14 15 15 15 16 16 16 15 17 16 16 16 17 16 17 17 18 18 19 19 20 20 20 20 18 18 18 18 18 18 18 18
10 12 17 12 15 16 15 15 15 15 15 15 15 15 15 14 15 14 15 14 15 15 16 16 17 16 17 16 17 18 19 18 19 19 19 20 19 17 17 17 16 16 16 16 16

GFSSW_925_temp_084.txt.gz
Temp
12 13 13 14 13 13 13 13 14 15 17 16 14 15 16 17 18 15 22 24 23 22 23 24 26 26 27 29 27 29 28 29 30 30 27 26 24 22 23 28 27 28 30 28 26
11 11 12 13 13 13 13 13 14 14 16 17 16 13 15 18 16 21 23 23 23 22 25 27 28 28 30 30 28 28 29 30 32 31 28 26 25 23 25 26 27 28 29 26 26
11 10 11 12 11 12 13 13 13 14 16 15 16 14 14 15 22 28 24 23 23 23 26 28 29 30 30 31 27 29 29 31 31 31 30 27 25 24 24 27 27 27 27 27 27
11 11 9 10 12 11 12 12 13 13 15 16 14 17 13 16 29 25 23 23 23 24 26 28 29 30 31 30 31 29 31 32 32 31 31 29 26 26 26 26 27 26 27 28 28
9 10 10 10 11 11 11 12 13 14 15 16 14 15 14 23 28 22 22 22 22 25 27 29 29 31 31 31 29 30 32 32 32 32 31 29 28 27 26 26 26 25 28 28 29
10 11 11 12 11 11 10 13 15 15 16 15 16 13 18 27 24 22 22 23 24 26 28 29 30 31 32 31 31 32 32 32 33 33 30 30 28 28 24 25 25 27 28 29 29
10 9 11 11 11 10 10 11 16 16 16 16 16 13 22 26 23 23 23 25 25 27 29 29 29 30 32 31 32 32 32 32 32 32 30 31 28 28 24 24 24 28 29 29 29
9 9 10 10 10 11 11 13 16 18 17 16 16 16 26 22 23 24 24 24 25 27 28 27 28 31 31 31 31 32 33 33 32 32 30 31 28 28 24 23 25 28 29 29 29
9 9 9 9 10 11 13 11 15 18 17 16 16 19 26 21 24 25 25 26 26 26 27 27 29 30 30 31 32 32 32 32 31 32 31 31 29 27 25 25 26 28 29 29 29
9 9 9 9 10 13 14 13 13 15 14 16 18 22 24 26 26 25 25 26 27 27 28 28 29 29 31 32 32 32 34 34 33 32 33 33 31 27 26 27 27 28 29 29 29
9 9 9 9 13 15 14 16 20 21 20 26 27 26 27 26 25 26 25 26 27 28 28 28 29 29 31 33 33 34 34 33 33 33 34 33 32 29 27 27 27 28 29 30 30
9 9 13 15 17 18 15 24 22 21 25 25 25 25 26 27 26 27 26 28 27 27 29 28 29 31 32 31 31 33 33 32 33 33 34 33 32 31 27 27 28 28 27 30 31
9 13 16 17 18 17 20 22 20 20 25 25 26 27 27 27 28 27 28 29 28 28 28 29 31 30 30 30 31 32 33 32 33 32 33 33 31 31 30 27 27 27 29 29 30
14 16 18 18 17 19 22 20 20 20 26 25 26 28 27 29 28 28 28 29 28 28 29 30 30 29 30 30 31 32 32 32 32 33 33 34 30 30 29 27 27 28 27 30 30
18 18 19 19 18 23 21 20 20 22 25 26 27 28 29 29 29 28 29 29 28 29 29 29 29 29 30 31 32 32 32 32 32 33 33 33 34 30 27 27 28 28 27 28 30
20 19 20 19 17 21 20 21 22 25 23 26 27 28 28 29 29 28 28 29 30 29 29 30 31 30 31 31 31 31 31 31 32 34 32 34 34 30 30 28 29 29 30 29 30
20 20 19 18 23 20 20 24 25 24 25 25 26 28 29 28 28 28 28 28 28 27 28 28 29 29 29 30 31 31 32 30 30 31 33 34 33 29 28 28 28 28 29 31 30
21 20 19 18 18 19 22 26 24 23 24 25 25 27 27 28 27 28 27 27 27 28 30 28 26 28 28 30 30 30 32 32 30 31 33 32 31 28 28 28 28 28 29 30 32
21 20 22 21 19 19 26 25 22 21 22 23 26 26 26 26 27 27 27 26 25 26 28 29 26 27 27 28 28 30 31 34 33 35 34 33 28 29 29 27 26 24 24 27 29
21 24 23 21 19 23 26 21 22 21 21 24 26 25 25 26 26 27 26 24 25 25 26 28 26 27 26 27 28 30 32 30 32 31 31 31 29 29 27 25 24 22 22 23 29
22 26 23 21 21 26 24 22 22 21 21 23 23 24 25 23 25 24 23 23 23 25 26 28 28 26 27 27 28 29 30 30 33 32 32 30 30 27 25 22 22 21 20 20 21
25 25 23 21 25 24 23 22 16 22 22 22 22 23 24 24 24 23 22 22 21 24 26 26 29 27 27 25 24 26 28 29 31 30 32 33 27 26 25 23 23 22 20 20 20
24 24 23 24 24 23 22 21 21 22 21 21 21 22 22 23 22 23 23 21 21 23 23 25 27 26 25 26 25 27 26 27 29 31 31 31 25 26 25 24 23 22 22 20 19
24 24 24 24 23 23 22 21 21 20 20 20 21 22 22 22 23 22 22 22 22 22 19 23 26 26 27 26 27 25 25 26 28 30 31 30 24 24 25 24 24 22 23 21 20
23 21 19 22 21 22 22 21 20 20 21 21 20 20 21 22 22 22 22 22 23 21 22 24 24 24 24 24 24 24 25 25 26 27 29 27 26 24 23 23 23 23 22 22 22
23 22 22 20 20 22 20 20 20 20 20 19 19 20 21 20 20 20 22 22 21 23 22 23 22 23 22 22 22 24 24 23 24 25 26 27 24 23 23 23 22 22 21 21 21
19 19 23 15 21 22 20 20 19 19 19 19 19 20 19 18 19 19 20 21 21 21 21 22 22 22 24 21 22 23 24 24 24 24 25 25 24 23 22 21 21 21 21 20 20

GFSSW_925_temp_087.txt.gz
Temp
11 11 12 13 13 13 11 13 14 15 15 15 16 17 17 16 17 16 24 26 25 25 25 28 29 30 31 33 32 32 28 30 31 31 29 28 25 24 26 29 31 32 32 31 29
10 10 10 11 12 12 13 12 14 14 15 15 16 16 17 16 16 24 25 24 25 24 25 29 31 31 32 33 32 31 29 31 32 32 30 29 25 24 27 30 30 32 32 30 30
10 10 10 10 10 12 12 13 13 15 16 15 16 16 16 16 22 30 27 25 24 23 28 30 32 33 33 34 32 31 30 32 33 33 32 29 26 26 27 28 30 30 31 31 30
12 11 11 11 10 10 13 12 13 14 16 16 17 17 16 18 29 27 24 24 24 24 29 31 33 32 34 34 31 31 33 33 34 34 33 30 28 27 27 27 31 31 31 31 31
9 10 10 11 10 10 10 11 14 15 16 17 16 17 15 25 29 24 24 24 23 25 30 32 32 33 34 35 32 31 33 35 35 34 32 31 29 28 27 28 30 30 31 31 32
9 9 9 9 10 10 10 10 13 15 16 16 16 17 18 27 28 24 24 24 26 27 31 32 33 35 35 35 33 35 35 35 36 36 33 30 30 30 27 28 28 29 31 32 32
9 9 9 9 9 10 10 11 13 17 17 16 16 15 23 29 27 26 26 26 27 29 32 32 33 34 35 34 35 35 34 35 36 35 33 33 30 28 27 28 28 30 31 32 32
9 9 9 9 9 10 11 14 14 17 18 17 16 18 27 27 27 27 28 29 28 30 32 32 32 34 34 36 35 34 35 33 35 35 34 32 28 27 25 26 28 31 32 32 32
9 9 9 9 9 10 14 13 16 18 18 17 15 22 29 24 27 28 29 29 29 30 31 30 31 33 34 34 34 34 35 33 34 35 34 31 29 28 28 26 28 30 32 32 32
9 9 9 10 11 14 15 14 15 17 16 17 22 25 27 28 29 28 29 29 31 31 30 30 32 32 34 33 34 35 35 36 33 35 35 31 31 28 28 26 26 30 30 31 31
9 9 11 14 14 16 14 16 21 23 23 28 29 29 30 30 28 29 29 30 31 30 30 31 32 32 33 35 37 37 37 35 30 36 35 33 32 28 26 27 28 29 29 30 31
11 13 16 17 17 17 16 26 26 25 27 28 29 29 30 29 29 30 29 30 29 30 32 31 31 34 35 36 36 36 37 36 33 36 36 35 33 31 30 31 30 29 29 29 31
14 18 19 19 18 18 23 25 24 25 27 28 29 29 29 30 30 30 31 31 30 30 31 31 33 35 34 35 34 36 37 36 36 35 37 36 32 31 29 31 30 29 30 29 31
17 19 19 19 17 24 26 25 25 25 27 28 28 30 30 30 30 31 31 32 31 31 32 32 35 34 33 33 34 35 37 36 36 35 35 37 33 33 30 29 30 29 28 29 30
19 20 20 19 20 26 25 25 25 26 26 29 30 31 31 31 31 30 31 32 31 32 32 32 33 32 32 33 34 36 37 36 36 35 36 36 30 25 33 30 30 29 29 30 29
20 20 20 20 20 24 25 25 26 25 25 28 30 29 30 31 31 31 30 32 33 32 32 33 34 33 33 34 35 35 36 35 35 36 35 37 35 25 32 32 32 30 29 31 30
21 20 20 19 26 25 25 27 26 26 28 27 28 29 30 30 31 30 29 29 30 29 29 31 32 33 34 33 34 34 33 32 32 33 35 37 35 27 31 32 33 31 32 32 31
21 21 22 22 23 24 25 27 23 25 27 28 27 28 29 31 30 30 30 30 31 32 32 30 30 32 33 33 32 33 34 34 31 33 35 38 33 30 31 32 31 30 32 32 34
21 22 24 26 25 24 27 25 21 25 24 27 26 25 29 30 30 30 30 30 30 31 29 31 31 31 31 33 32 33 33 37 36 37 36 34 30 31 31 30 26 24 26 30 33
22 27 28 26 25 26 27 23 25 24 24 27 24 25 27 28 29 29 29 28 29 29 30 31 29 31 31 31 32 32 35 34 35 33 34 33 31 32 30 28 24 22 23 26 29
22 28 27 27 27 28 23 26 25 24 25 26 25 24 25 28 28 28 28 27 27 29 30 31 31 29 30 30 31 32 32 34 36 36 35 32 31 32 28 25 23 21 21 21 24
28 28 27 27 28 28 27 26 19 25 25 25 26 27 25 26 27 27 27 26 26 28 29 31 31 29 30 31 30 32 33 33 33 33 35 33 29 30 28 27 23 21 20 22 23
28 28 27 28 27 27 25 25 25 25 25 25 25 26 27 26 24 27 25 24 25 27 28 29 30 29 28 29 30 30 32 32 34 35 33 34 28 29 28 28 25 22 22 21 22
28 27 28 28 28 27 25 25 24 24 24 24 24 26 26 26 28 26 26 25 25 25 19 24 30 30 28 30 31 30 30 31 32 32 33 33 28 28 27 25 23 23 22 21 21
27 26 25 26 26 26 26 25 24 24 24 24 24 24 26 26 26 26 27 26 26 22 25 28 27 28 28 28 30 30 30 29 30 31 31 29 28 28 27 27 24 23 23 23 22
26 26 26 25 25 25 22 24 24 23 24 24 23 24 25 25 25 25 27 27 26 26 27 28 26 27 27 27 27 28 28 28 29 30 31 30 27 27 27 26 26 25 23 22 22
24 24 27 20 26 26 24 23 23 23 23 23 23 24 23 22 23 25 25 26 26 25 26 26 27 26 26 27 27 26 28 28 29 29 31 29 27 26 26 25 25 24 23 23 22

GFSSW_925_temp_093.txt.gz
Temp
10 10 11 12 12 12 11 13 13 14 14 16 17 17 17 17 17 17 18 25 25 25 25 26 26 27 27 29 30 28 25 26 27 26 25 25 25 23 24 27 31 31 29 29 28
9 10 10 10 12 11 11 11 13 13 15 16 17 17 17 16 15 17 25 25 25 26 25 26 27 28 27 29 31 26 25 28 31 28 26 26 25 24 26 27 24 30 31 31 29
9 9 10 11 11 12 10 10 11 14 14 17 17 17 17 16 17 24 28 26 25 26 26 27 29 29 28 30 29 24 24 31 31 29 28 26 25 25 25 26 29 29 30 30 30
9 9 10 10 10 11 11 10 11 11 15 16 17 17 17 15 24 27 29 27 25 26 26 27 29 29 29 30 24 21 25 30 31 30 29 27 27 26 26 24 29 30 30 30 29
10 10 9 9 10 10 10 11 11 12 14 16 16 17 16 17 21 26 27 26 25 25 26 26 27 29 29 31 26 24 30 30 32 31 29 29 27 26 24 23 27 31 30 30 29
9 9 9 9 9 10 10 10 11 13 14 15 16 16 14 20 27 27 26 25 26 25 27 27 28 31 31 32 32 31 30 30 32 30 30 28 27 28 24 24 28 31 29 29 29
10 10 10 10 10 10 10 10 11 15 15 14 16 14 17 20 27 28 26 25 26 26 26 28 29 31 32 32 32 30 29 28 32 31 29 29 27 26 26 28 30 30 30 30 30
10 9 9 10 9 10 11 13 13 14 16 14 16 14 18 27 28 27 27 27 27 27 27 30 32 31 31 33 31 31 26 26 31 30 29 29 25 27 26 27 29 30 31 30 31
10 9 9 10 10 13 15 16 15 17 16 16 15 16 21 28 28 29 29 28 28 28 28 30 32 30 30 30 28 29 28 28 29 30 29 28 25 27 27 26 28 30 30 30 31
10 11 12 13 14 16 17 17 17 16 16 15 17 19 22 27 29 29 30 30 29 28 29 29 29 27 26 26 26 29 30 31 28 25 25 26 26 26 26 28 29 29 29 29 30
13 16 17 17 17 18 17 17 16 17 19 21 22 24 28 30 30 30 30 31 30 28 26 28 26 24 26 28 31 32 32 30 25 27 24 25 25 25 26 27 28 29 29 29 30
19 19 19 19 19 18 16 18 22 26 24 23 26 27 29 30 29 30 31 29 28 27 28 27 25 27 30 31 31 32 32 26 25 25 25 25 26 26 26 27 28 27 28 29 29
19 20 20 20 20 18 18 22 26 27 24 26 27 27 29 30 29 29 29 29 28 27 28 26 28 30 31 31 32 31 31 29 28 25 24 25 24 25 26 28 28 27 28 28 28
19 20 20 21 19 21 23 26 26 28 22 26 27 28 31 30 29 31 31 29 29 27 28 28 30 31 31 31 32 29 33 33 28 27 25 26 23 22 25 25 26 27 27 27 28
19 20 20 20 19 19 25 27 28 27 21 28 28 31 30 28 30 30 31 29 28 29 29 28 30 30 31 32 32 31 33 32 31 29 26 26 24 24 24 25 25 26 27 27 29
19 19 20 20 18 23 25 26 27 22 23 29 30 29 28 28 29 30 30 29 30 29 29 29 32 31 31 33 33 34 33 32 29 26 27 28 26 23 23 25 24 27 27 27 28
20 20 19 19 21 25 25 25 22 19 24 25 26 29 28 28 28 29 28 27 26 26 26 30 30 32 33 32 32 32 32 27 27 26 26 28 27 23 24 23 24 23 22 28 25
21 21 22 23 24 24 24 23 20 20 21 24 25 27 27 28 28 30 27 26 28 28 26 26 27 30 33 32 30 30 29 26 28 27 29 30 23 23 24 25 24 23 23 23 23
21 22 22 25 26 24 23 19 19 21 23 24 26 26 27 28 26 27 27 27 29 28 26 26 28 32 33 33 31 30 29 30 30 30 29 26 24 23 24 23 23 23 22 22 22
20 21 24 27 26 24 21 19 19 23 23 25 24 25 24 25 23 20 22 29 27 29 29 28 25 29 33 33 33 31 30 27 27 28 29 25 24 23 24 24 23 22 21 21 21
19 22 28 28 27 19 17 19 24 26 26 25 25 25 24 24 21 20 20 24 27 28 27 26 26 27 31 30 29 29 27 29 28 28 27 23 24 22 23 23 22 22 21 20 20
22 22 29 29 21 18 18 19 22 26 26 26 26 25 25 23 22 22 20 24 27 27 26 25 25 25 28 31 31 29 29 28 25 27 25 23 21 21 23 22 22 21 20 19 19
19 23 30 30 23 20 21 25 26 26 25 26 26 25 25 25 22 21 22 26 27 25 23 24 23 23 26 29 29 29 29 29 28 26 27 25 21 21 21 22 21 21 20 19 19
20 23 25 26 26 26 26 26 25 26 26 26 25 26 24 24 25 24 24 27 28 26 23 22 25 22 21 25 27 29 29 29 29 25 25 24 21 22 21 20 21 20 21 20 20
20 24 26 23 24 25 25 26 26 25 26 26 25 26 24 21 22 25 25 26 27 24 27 23 23 23 25 27 28 28 29 30 30 26 24 24 23 22 22 21 21 21 21 21 21
21 22 24 25 25 25 24 24 24 24 23 24 24 26 22 20 20 20 22 24 26 25 27 26 21 23 23 28 28 27 29 30 30 26 24 23 21 22 21 22 22 22 22 22 21
22 23 22 23 25 24 23 24 24 24 25 25 24 23 22 22 22 22 22 23 24 24 22 24 22 23 22 24 26 25 26 27 28 26 25 22 19 20 22 22 22 22 22 21 20

GFSSW_925_temp_096.txt.gz
Temp
9 10 10 12 10 10 10 11 13 14 13 14 17 17 17 17 17 16 16 25 25 23 24 24 24 25 26 25 27 27 24 25 24 24 25 24 26 24 24 28 28 29 27 26 25
10 10 9 9 10 10 10 10 11 12 14 13 15 17 17 16 15 14 26 26 25 25 24 25 24 25 24 26 27 25 24 27 26 27 26 26 25 24 25 27 27 27 28 27 26
10 10 10 10 10 10 10 10 10 11 12 14 15 16 17 16 14 20 28 27 26 25 25 26 26 26 25 27 27 23 24 25 29 28 27 26 26 25 24 24 28 26 26 27 26
10 10 10 10 10 10 10 10 10 10 11 11 15 16 16 15 24 27 28 27 25 25 25 25 26 25 26 26 25 24 24 24 27 27 27 26 26 26 26 26 26 27 27 27 26
9 9 10 10 10 10 10 10 10 10 11 11 12 16 14 16 18 27 28 27 25 24 24 25 25 25 25 27 25 26 25 23 25 28 27 27 25 26 26 27 28 29 29 28 27
10 10 10 10 10 10 10 10 10 10 11 11 12 15 14 18 26 27 27 26 25 24 24 25 25 26 27 26 27 27 27 25 26 28 28 26 25 27 25 26 29 29 28 28 28
10 9 10 10 10 9 9 9 9 10 13 11 12 13 15 18 26 26 26 25 25 26 24 26 26 26 27 30 32 29 28 28 28 26 27 27 25 26 26 25 29 30 28 28 28
10 9 9 9 9 10 12 12 13 13 14 13 13 13 15 25 25 25 24 25 25 26 27 27 27 26 26 29 31 29 27 26 26 27 28 26 25 26 25 25 28 29 28 28 28
10 10 11 12 13 15 16 16 15 15 15 13 13 14 17 25 24 27 26 26 26 26 26 27 28 26 29 28 25 27 27 26 26 26 28 25 24 25 25 26 29 29 28 27 27
11 14 17 16 16 17 17 17 17 15 14 14 15 16 19 25 28 28 27 28 25 26 26 26 24 25 23 23 24 27 27 26 26 24 25 23 25 26 25 27 29 29 26 28 27
15 17 19 20 19 18 19 18 15 16 15 18 19 20 24 26 28 28 28 28 27 26 24 26 24 24 25 25 26 27 28 25 24 24 24 24 25 25 24 26 27 28 26 28 28
18 19 19 20 20 19 17 14 18 22 19 19 22 21 24 25 27 28 28 26 26 24 25 24 24 25 27 27 27 27 29 25 25 24 24 24 25 25 25 23 27 27 26 27 28
19 19 19 20 20 19 18 19 25 22 19 23 22 23 24 25 26 27 26 26 26 25 25 23 26 28 27 27 27 27 28 25 25 23 23 24 23 23 25 25 26 27 27 27 27
19 20 20 20 18 19 18 26 23 21 17 22 25 26 27 26 27 29 28 28 27 25 26 25 27 28 27 27 27 25 29 29 25 25 23 25 23 21 23 24 27 27 27 27 28
19 19 20 20 19 17 25 24 23 22 19 25 25 29 28 26 27 27 30 28 27 27 25 25 27 27 27 28 28 28 31 30 27 24 24 23 23 22 21 24 26 26 26 27 28
19 19 20 20 18 24 23 23 23 19 20 24 27 26 27 27 27 28 28 28 28 27 27 26 28 28 28 30 30 31 30 27 25 24 24 24 25 23 22 24 26 27 26 27 27
20 20 20 18 19 23 23 19 18 19 22 23 22 23 24 25 26 27 26 25 24 24 23 26 27 28 29 28 29 31 25 23 24 24 24 25 25 24 25 26 26 27 26 22 23
21 21 23 23 23 22 21 18 20 21 19 22 24 23 23 25 24 25 25 24 25 24 22 23 24 28 30 28 28 29 26 23 25 25 26 26 26 24 25 25 25 25 24 23 22
22 22 21 26 24 21 17 16 18 20 21 22 22 22 23 24 22 23 21 23 26 25 23 24 24 28 30 31 29 29 27 26 26 26 25 23 22 23 22 22 22 23 22 21 23
20 20 21 26 25 22 16 18 18 19 23 23 22 22 21 19 20 19 20 24 24 26 23 24 25 26 28 30 29 28 28 27 23 27 25 22 22 21 21 21 22 21 20 20 21
18 18 24 26 25 16 16 17 20 22 22 24 23 22 20 20 19 19 20 22 24 24 23 24 22 24 26 27 26 26 26 25 24 24 24 22 22 23 22 22 21 20 20 19 19
16 19 24 26 19 13 15 17 20 23 25 24 24 23 21 21 21 20 20 20 23 23 23 22 20 21 25 26 28 27 26 23 23 27 21 20 22 21 21 20 20 19 19 19 18
15 16 24 25 19 17 18 20 21 24 24 25 24 24 23 21 20 21 21 22 23 24 24 23 20 20 23 23 25 27 28 24 22 23 23 21 22 20 20 20 20 19 18 18 18
15 18 19 18 17 21 21 21 23 25 25 25 24 24 24 23 21 21 21 24 25 25 22 21 19 20 21 23 24 25 26 27 23 22 21 20 21 20 20 19 20 19 19 19 18
16 18 20 20 20 21 20 21 22 22 21 21 23 24 23 21 21 21 22 23 26 25 24 22 20 22 23 23 25 26 25 25 25 23 23 21 21 20 19 20 20 20 20 19 19
17 17 17 17 20 21 18 21 21 22 22 21 20 21 20 20 21 21 20 20 21 23 22 20 23 21 22 23 24 25 25 26 27 23 22 21 20 20 20 20 20 20 20 20 20
19 20 17 18 18 19 20 22 22 22 21 21 20 20 20 21 21 22 20 19 20 22 21 19 19 20 21 21 23 22 23 25 25 24 21 21 20 20 20 21 21 21 20 20 20

GFSSW_925_temp_102.txt.gz
Temp
10 10 10 10 10 10 10 10 10 10 10 10 11 13 17 16 16 15 14 24 25 24 24 22 23 23 23 23 25 24 23 24 22 23 23 24 25 25 25 25 25 25 23 22 20
10 10 10 10 10 10 10 10 10 10 10 10 11 11 14 16 14 13 25 24 24 24 23 22 21 23 22 24 25 24 23 25 24 24 23 24 26 25 25 24 23 22 22 21 20
10 10 10 10 10 10 10 10 10 10 10 10 10 12 13 15 13 20 25 25 24 23 24 24 24 24 24 25 25 23 23 24 23 23 25 24 25 27 24 23 23 21 21 21 20
10 10 9 10 9 10 10 10 10 10 10 9 11 11 15 14 24 24 24 24 23 23 24 24 23 23 22 24 24 24 24 24 23 24 25 25 24 26 24 25 23 23 22 22 21
10 9 9 9 9 9 9 9 9 9 9 9 10 12 13 15 17 24 25 24 22 23 24 23 23 23 24 25 24 25 24 24 25 26 25 26 25 23 21 25 24 23 23 22 22
10 10 9 9 9 9 9 9 9 9 8 9 10 11 13 19 23 23 24 23 23 23 23 23 23 24 23 26 25 26 26 26 25 24 25 24 24 24 21 23 24 23 23 22 22
10 9 9 10 11 9 9 9 9 9 9 9 10 11 13 18 22 22 22 22 23 23 21 24 25 25 23 25 26 26 24 26 24 24 25 25 24 23 21 23 24 23 23 23 23
13 12 14 15 16 15 13 13 13 10 10 10 11 12 15 22 22 21 23 23 22 24 24 25 26 24 25 25 26 25 26 24 24 24 24 25 24 23 21 21 24 24 24 24 23
16 16 18 18 18 18 18 16 15 13 10 10 12 13 17 22 22 22 23 23 22 23 25 25 25 24 25 25 23 24 24 25 25 24 25 25 22 23 22 22 24 24 24 24 23
17 17 17 18 18 18 18 16 15 13 11 12 12 14 20 24 24 24 23 24 22 22 24 24 21 21 20 21 23 25 25 26 26 24 25 24 24 24 24 25 25 25 24 24 23
17 18 18 18 15 18 16 15 14 14 14 18 20 20 22 24 25 23 23 24 22 22 21 23 21 21 23 24 24 26 26 24 23 23 23 22 24 23 24 26 24 25 24 23 24
16 17 18 17 16 14 16 15 20 21 17 16 17 18 20 23 24 23 24 23 23 21 22 21 21 23 24 24 25 24 24 23 23 23 23 23 23 24 23 23 23 24 25 24 25
16 16 18 17 16 15 16 19 20 19 17 20 18 19 22 22 23 23 23 23 23 22 23 21 24 24 25 25 25 25 25 22 24 23 22 23 23 23 24 25 24 24 25 25 24
17 17 18 19 15 17 17 21 19 18 16 22 23 24 23 24 25 25 25 25 24 22 22 24 25 25 25 25 24 25 25 26 23 23 22 23 23 22 24 23 24 25 24 24 24
18 18 19 19 18 16 21 21 20 19 19 23 24 25 23 24 25 25 26 26 24 24 23 24 24 25 25 25 25 26 27 25 24 22 22 23 23 22 22 22 22 22 24 25 24
18 18 19 17 16 22 21 21 20 18 21 22 22 22 24 25 26 25 26 25 25 25 24 24 26 25 25 26 26 26 24 21 21 21 22 23 23 22 21 23 23 23 24 25 25
18 19 18 17 19 21 21 19 18 18 20 21 21 20 21 22 24 25 24 24 23 22 22 24 25 26 26 26 26 26 22 20 21 21 22 21 23 23 22 23 24 24 25 25 25
19 20 19 21 20 20 20 19 18 20 19 20 20 21 21 20 21 21 23 22 23 22 19 21 23 24 25 25 24 22 22 21 23 21 22 22 23 24 22 22 24 26 25 24 24
19 18 19 21 22 20 17 16 18 19 20 20 20 20 19 20 21 20 20 21 22 22 21 20 22 25 25 25 26 25 23 23 21 22 22 21 22 22 22 23 23 22 23 23 23
17 17 19 21 22 20 17 18 18 18 20 21 21 20 20 18 20 20 21 22 23 23 21 22 22 24 26 26 26 24 23 24 20 22 23 21 21 22 22 22 21 21 20 21 22
17 17 20 20 20 16 16 16 18 19 20 21 21 20 19 19 19 19 20 23 22 22 20 21 20 23 24 25 24 24 24 20 20 20 21 21 21 21 21 21 21 20 20 20 20
14 19 19 19 18 10 16 17 19 21 20 21 22 21 20 20 20 20 21 21 21 21 22 21 17 21 24 24 23 25 24 21 21 22 19 20 20 21 21 21 20 20 19 19 19
13 14 20 20 18 16 16 20 20 21 21 22 23 22 21 20 21 20 21 22 21 22 23 21 18 20 22 22 23 23 24 21 19 18 20 22 20 20 20 20 20 19 19 18 18
13 18 16 14 13 18 19 21 22 21 21 19 21 22 21 19 19 20 20 22 23 22 21 19 17 20 20 21 20 23 23 23 21 21 19 20 21 21 20 20 19 19 19 18 18
12 16 15 18 17 17 18 20 21 20 19 18 20 20 21 20 20 19 19 19 22 21 20 18 20 21 22 21 22 22 21 22 24 22 24 21 20 21 20 20 19 19 18 18 17
15 16 13 13 15 19 15 19 20 19 19 19 19 19 19 19 19 20 19 19 20 20 19 16 19 20 22 22 22 22 21 20 22 21 20 20 20 19 20 19 19 19 18 18 17
15 15 14 14 15 17 17 20 20 20 20 19 19 19 19 20 20 20 19 17 18 18 19 17 16 17 21 19 22 20 20 19 20 21 20 20 20 19 18 19 19 19 18 18 17

GFSSW_925_temp_105.txt.gz
Temp
10 10 10 10 10 10 10 10 10 10 10 10 10 12 14 15 17 16 17 23 24 23 22 21 22 23 24 25 25 26 24 24 23 23 23 25 26 26 27 26 27 26 26 25 22
10 10 10 10 10 10 10 10 10 10 9 10 10 12 13 14 13 15 25 24 23 23 22 24 24 24 26 26 26 25 25 24 23 23 24 26 26 26 26 25 24 24 23 22 22
10 9 9 9 9 10 10 10 10 10 9 9 9 10 12 13 16 23 23 24 23 22 23 24 25 26 26 26 27 25 25 24 22 23 23 25 26 27 25 25 25 24 23 23 23
10 10 9 9 9 9 9 10 9 9 9 9 9 10 12 13 26 23 24 24 23 21 23 24 25 26 24 26 27 25 25 25 22 22 23 24 26 25 25 26 26 25 24 24 24
10 9 9 9 9 9 9 9 9 9 9 9 9 12 12 18 22 23 23 23 21 22 24 26 26 26 26 26 26 26 25 24 23 25 27 24 25 23 24 25 25 25 25 25 25
10 10 9 9 9 9 9 9 9 9 8 8 10 11 13 21 22 22 21 21 21 23 24 26 27 27 27 27 27 26 27 26 25 24 27 23 23 25 23 25 25 25 25 25 25
10 10 10 10 10 10 10 10 9 9 9 10 10 11 15 22 21 21 19 20 21 23 25 25 26 27 27 27 28 27 26 27 26 25 25 23 23 23 23 26 25 25 26 26 25
12 11 12 14 16 16 14 13 11 9 9 9 11 11 20 21 21 20 21 21 22 24 24 24 25 27 27 27 28 27 27 26 25 26 24 25 23 22 21 24 25 25 26 25 26
15 16 16 16 17 18 17 15 15 11 10 10 12 14 22 21 21 21 22 23 22 23 24 25 26 27 27 27 26 27 27 26 25 24 24 23 23 21 21 23 26 26 26 26 26
17 17 17 16 16 17 15 14 13 11 11 12 12 17 22 24 22 22 23 23 24 24 25 26 26 27 27 29 29 27 27 27 24 25 25 25 25 22 21 22 26 26 26 26 26
16 17 17 17 17 17 14 14 17 17 14 21 22 21 23 23 23 23 23 24 24 25 25 25 26 26 28 29 29 29 29 26 24 23 24 24 25 22 21 23 25 25 26 26 27
16 17 17 18 17 17 15 17 21 20 21 19 19 20 21 22 24 23 24 25 25 25 24 25 26 26 28 28 29 29 28 25 24 23 24 23 24 24 22 23 26 26 27 27 26
16 17 18 18 17 16 16 18 20 19 21 22 21 21 23 23 25 24 25 25 25 25 25 27 27 27 27 27 28 28 28 25 27 24 24 23 23 23 23 24 24 25 27 28 28
16 17 18 18 14 16 16 20 19 18 23 24 25 25 24 24 26 25 26 27 25 26 25 27 26 27 27 28 28 28 28 27 25 26 26 25 23 23 24 22 22 25 25 27 28
17 17 18 19 17 16 20 19 19 19 22 25 25 25 24 26 27 25 26 27 26 26 26 26 27 27 27 28 28 28 29 27 27 26 26 24 24 25 23 23 23 23 27 28 28
18 18 19 16 16 20 19 19 19 22 22 24 24 24 25 26 27 26 26 27 27 26 27 27 27 28 29 29 27 27 28 26 26 25 25 27 26 24 24 26 26 25 25 28 28
18 18 18 16 20 19 20 20 23 22 22 23 23 23 23 24 26 26 26 26 26 25 26 26 27 28 28 28 27 28 28 27 26 26 27 25 26 30 26 26 27 27 26 26 28
19 19 19 19 19 19 19 23 21 22 22 22 22 23 24 23 23 24 25 25 24 26 25 26 26 27 28 28 28 27 29 29 26 27 28 25 26 29 25 26 27 27 28 27 27
18 18 19 19 19 19 23 22 21 21 21 22 23 24 23 23 24 24 23 25 25 26 25 25 26 27 27 28 29 27 27 30 28 27 29 27 26 26 25 25 26 27 26 26 26
17 17 18 19 20 20 24 20 21 20 21 22 23 22 23 22 24 24 24 24 25 24 24 25 26 27 28 28 27 29 31 28 28 27 28 27 26 28 24 25 26 26 26 26 27
17 23 18 19 20 23 23 21 21 21 21 23 23 23 22 22 22 22 23 24 24 24 23 24 25 27 26 28 29 28 28 28 30 28 30 29 28 26 26 25 25 25 26 25 25
18 24 19 20 23 17 22 20 19 23 21 23 23 23 22 22 22 23 24 24 22 24 25 24 25 26 28 27 26 28 30 30 30 28 27 28 28 24 25 24 23 23 23 24 25
20 20 19 19 24 22 20 21 22 23 22 23 24 23 22 22 22 22 22 23 23 24 25 24 24 26 27 27 26 27 27 27 28 29 28 30 28 23 23 22 22 22 22 21 21
19 23 21 19 18 22 22 22 23 22 22 21 23 23 23 22 22 22 23 24 23 24 21 23 24 25 26 26 25 26 25 26 28 30 29 30 25 22 22 21 21 21 20 19 19
18 20 18 23 21 20 21 21 22 22 22 21 22 22 22 22 22 22 22 23 24 22 22 23 25 24 24 24 25 24 25 25 27 28 30 29 27 26 22 21 21 20 19 18 18
20 21 17 18 18 21 19 21 22 21 21 22 21 21 21 22 22 22 21 22 22 23 23 22 23 23 24 24 26 25 25 25 25 25 26 27 27 26 22 22 20 19 19 19 18
13 14 19 16 20 22 21 21 21 21 21 20 20 21 22 21 21 21 21 21 21 21 22 22 22 23 25 23 25 25 24 24 23 24 25 26 25 24 20 20 20 20 20 19 18

GFSSW_925_temp_108.txt.gz
Temp
10 10 10 10 10 10 10 10 10 10 10 10 10 11 11 16 17 16 22 25 24 23 23 25 26 27 27 29 28 28 25 27 26 25 25 29 29 29 30 29 31 30 31 28 26
10 10 9 9 10 10 10 10 10 9 10 10 9 12 16 14 16 21 24 23 23 23 25 27 29 28 30 30 30 28 27 28 26 24 26 29 29 29 29 30 29 30 29 27 26
10 10 10 9 9 9 9 10 9 9 10 9 9 11 15 15 21 28 23 23 23 24 26 28 29 30 30 30 31 29 27 27 24 23 26 29 29 30 30 29 29 28 28 27 27
10 10 9 9 9 9 9 9 9 9 9 9 9 11 14 16 28 25 24 24 23 23 27 28 30 30 30 29 31 28 28 29 25 23 25 28 29 28 30 30 30 30 29 28 28
10 10 9 9 9 9 9 9 9 9 9 9 9 12 14 23 27 23 22 22 22 24 27 29 30 31 30 30 31 29 27 26 23 23 25 23 27 26 28 29 30 30 29 29 29
11 10 10 10 10 9 9 9 9 9 9 10 12 13 18 25 24 23 23 23 25 26 28 29 30 32 32 31 30 29 28 26 23 23 23 25 25 26 27 29 29 29 30 30 30
14 12 12 13 14 12 13 11 10 9 9 10 12 13 21 26 23 23 23 25 26 27 29 29 30 31 32 31 31 27 28 27 25 26 26 23 24 24 27 29 29 30 30 30 30
16 15 15 16 16 15 17 15 15 12 11 13 13 15 25 23 22 23 23 24 26 27 29 28 29 31 31 31 31 29 29 27 24 25 26 27 25 23 25 29 29 30 30 30 30
16 17 17 17 18 17 17 16 16 13 13 13 15 19 27 22 24 25 25 26 26 27 27 28 29 30 31 31 31 31 28 27 24 23 23 23 24 22 25 29 30 30 30 30 30
16 16 17 18 18 18 16 15 15 13 13 14 16 21 26 27 25 25 26 26 27 28 28 29 30 30 31 32 29 31 29 27 26 24 24 23 23 22 22 28 29 30 30 30 30
16 17 17 18 18 18 14 15 20 21 20 25 27 26 27 26 26 26 26 27 28 28 29 29 30 30 32 33 33 33 33 27 27 26 23 24 23 22 23 26 30 30 31 31 31
16 17 17 18 19 18 14 23 25 24 25 25 24 25 25 26 27 27 27 28 28 28 30 28 29 32 32 32 32 33 32 28 26 26 25 24 24 22 22 25 30 30 31 31 31
16 17 18 18 18 16 19 23 21 21 25 26 26 27 28 27 28 27 28 29 28 29 29 30 31 31 30 31 32 33 32 30 28 25 23 24 24 22 21 23 28 30 31 32 31
16 17 18 18 15 20 23 21 20 20 26 27 28 27 27 29 28 29 29 30 29 29 30 31 31 30 30 30 32 32 32 31 29 29 26 25 25 24 22 22 25 28 30 32 31
17 17 18 18 17 23 22 21 20 22 25 27 28 28 29 29 29 28 29 30 29 29 30 30 30 30 30 31 30 31 30 31 31 30 30 28 27 25 23 23 23 25 29 32 32
18 18 17 16 15 21 20 21 22 26 24 26 28 28 28 29 29 29 29 30 30 30 30 30 32 31 32 32 30 30 30 30 30 30 30 31 29 25 27 28 28 25 29 31 32
18 18 16 15 24 19 20 24 26 26 26 26 27 28 29 28 28 29 28 28 29 28 28 29 30 31 32 31 30 29 30 28 27 29 30 32 30 32 30 29 31 30 28 30 32
18 19 18 16 18 19 23 27 25 25 26 26 27 28 28 28 28 29 29 29 29 30 30 29 28 30 31 31 30 30 29 30 27 29 31 29 30 32 31 30 31 32 31 29 31
19 17 19 20 18 19 27 26 25 25 26 26 27 28 28 28 28 28 28 29 29 29 29 29 29 31 32 32 32 31 30 33 32 33 31 29 31 30 28 29 30 31 31 30 29
20 24 23 19 19 23 28 24 26 26 26 27 27 27 27 28 28 28 28 29 28 29 30 30 29 31 31 32 32 32 33 31 32 31 31 31 31 32 29 28 30 30 31 31 29
21 28 22 21 21 28 27 25 26 27 26 27 26 27 27 27 28 28 28 28 28 28 28 30 29 30 31 30 31 31 31 32 33 33 32 32 32 32 30 30 30 30 31 31 30
26 28 23 22 28 27 27 26 19 27 27 27 27 27 26 26 27 27 28 28 27 29 28 29 30 30 31 32 33 33 32 32 31 31 32 33 30 28 29 30 30 30 30 31 30
27 27 24 24 27 27 26 27 27 27 27 27 27 27 27 26 26 27 27 26 27 28 28 29 29 28 30 30 30 31 32 33 34 34 32 32 33 28 28 27 27 26 28 29 29
26 27 27 27 27 27 26 26 26 26 26 26 26 27 27 26 26 26 27 27 26 27 21 25 29 29 29 29 31 30 31 31 32 32 32 33 33 29 27 27 26 25 26 25 25
26 27 25 27 27 27 27 26 26 26 26 26 25 26 26 26 26 25 26 27 27 23 26 28 27 29 29 29 29 30 31 31 31 32 32 34 33 34 30 26 25 25 23 23 23
25 26 25 26 25 27 22 26 25 25 25 25 25 25 26 25 26 25 26 26 27 27 27 28 27 27 28 29 29 29 29 31 32 33 32 33 33 32 30 26 23 22 21 21 21
21 21 24 20 26 27 26 26 25 25 24 24 24 25 25 25 25 26 26 26 26 26 26 27 27 27 27 28 28 28 28 29 30 30 31 32 31 30 26 24 23 22 22 20 20

GFSSW_925_temp_111.txt.gz
Temp
10 10 10 10 10 10 10 10 10 10 10 10 10 12 16 18 18 17 24 26 26 25 24 28 29 30 31 32 31 30 27 29 28 28 27 31 32 33 32 33 34 34 32 32 30
10 10 10 10 9 10 10 10 10 10 10 10 11 13 16 17 16 24 26 25 25 25 25 29 31 32 32 31 31 29 27 28 30 28 27 31 32 31 32 32 32 33 32 30 31
10 10 10 10 10 9 9 9 10 10 10 10 10 14 17 15 23 30 24 25 24 25 28 30 32 33 33 33 30 31 29 28 27 26 29 30 32 33 33 31 33 31 31 31 31
10 10 10 9 9 9 9 9 9 9 10 10 11 14 16 16 29 27 24 24 24 24 28 31 33 32 33 33 34 30 31 29 27 26 28 31 32 32 32 33 33 32 32 31 32
10 10 10 11 11 10 9 9 9 9 10 11 13 14 15 24 28 25 25 25 23 25 29 32 32 33 34 33 34 31 30 28 27 25 27 29 29 30 32 33 33 32 32 32 32
12 12 13 13 14 14 13 12 10 9 10 11 13 14 18 26 28 27 25 23 26 27 30 32 33 34 33 32 32 31 29 27 26 24 26 28 28 30 31 32 32 32 32 33 33
16 16 17 17 17 18 17 17 15 13 14 14 14 14 23 28 27 27 27 27 28 29 32 32 33 34 35 33 33 28 28 27 24 24 25 27 27 28 31 32 32 32 33 33 33
16 17 17 18 17 18 18 18 17 17 16 17 16 17 26 27 27 27 28 29 29 30 31 32 32 33 34 34 33 29 28 26 24 24 23 24 26 25 31 32 32 33 33 33 33
17 17 17 18 18 18 17 17 17 17 16 16 15 21 29 25 27 28 28 30 30 30 31 31 32 33 34 33 32 30 29 26 24 23 23 24 26 25 27 32 32 33 33 33 32
16 17 18 18 19 18 17 16 15 16 15 17 20 25 28 29 29 29 29 29 31 31 31 30 32 32 33 34 32 32 30 28 25 23 23 23 25 24 25 31 32 33 33 32 31
17 17 18 18 19 19 15 17 21 22 23 28 29 29 29 29 28 29 29 30 31 31 31 31 32 32 34 35 34 30 30 26 27 25 23 22 23 23 26 26 30 31 32 31 31
17 17 18 19 19 18 15 26 27 27 27 29 29 29 29 29 29 30 30 30 30 30 32 32 31 34 34 34 35 32 25 25 26 24 22 22 23 23 22 28 29 29 32 32 31
17 18 18 19 18 17 22 26 26 26 28 29 30 30 29 30 30 30 31 32 31 31 32 32 34 35 35 32 33 34 29 28 28 24 23 22 22 22 24 26 28 30 31 31 31
17 18 19 19 16 25 26 26 25 25 28 28 29 30 30 31 31 31 31 32 32 31 32 33 35 34 34 33 34 32 32 28 28 28 26 27 23 22 22 24 24 26 31 31 32
18 18 19 19 18 26 26 26 26 26 21 29 30 30 31 31 31 31 31 32 31 32 32 33 34 33 32 33 35 32 34 25 31 30 28 26 26 21 21 22 24 27 29 32 33
18 18 18 18 17 24 26 26 26 27 25 29 30 30 30 31 31 31 31 32 33 32 33 34 35 34 34 35 34 33 33 32 31 31 30 29 29 24 24 24 25 27 29 31 29
17 18 17 18 27 26 26 28 26 26 29 29 29 31 30 31 31 30 30 30 31 30 30 32 32 34 35 34 33 32 32 28 26 29 30 32 31 30 28 30 29 29 28 31 30
19 19 21 21 24 24 26 28 27 28 29 30 30 31 29 31 31 31 31 31 32 33 33 31 31 33 34 34 33 32 33 28 28 28 29 33 32 28 31 32 30 31 28 28 33
20 21 24 26 24 24 27 29 28 29 29 30 30 30 29 30 30 31 31 32 32 32 32 32 32 34 34 34 35 33 32 35 28 32 31 30 33 31 33 32 33 32 29 29 32
20 28 28 26 25 26 28 26 28 29 29 30 28 29 29 30 30 30 30 32 31 32 32 32 31 34 33 34 34 34 35 33 34 30 28 28 27 33 31 32 33 33 30 31 31
21 30 28 27 27 29 29 28 29 29 29 29 29 29 30 30 30 29 29 30 31 31 31 32 32 33 33 32 33 33 33 34 35 35 32 29 29 33 31 31 31 33 33 30 32
28 30 29 27 29 31 30 29 23 30 30 29 30 30 29 29 30 30 30 29 31 31 30 32 32 31 32 34 34 35 34 34 33 33 35 34 28 31 33 33 33 33 34 34 32
29 30 29 29 29 30 29 29 30 30 29 29 29 29 29 29 28 29 29 29 30 30 29 31 30 31 31 34 34 33 35 35 35 35 34 34 31 31 32 32 32 33 33 34 32
29 29 30 31 31 30 29 29 29 29 29 29 28 29 29 29 30 28 29 30 30 30 24 28 30 30 29 28 30 32 33 34 35 34 34 35 31 31 31 30 30 30 31 33 32
29 30 30 30 30 30 29 29 28 28 29 29 28 28 28 28 28 28 29 29 30 24 28 30 29 30 30 29 31 32 33 34 33 34 34 35 35 34 33 31 29 29 28 29 27
28 29 30 30 29 29 24 28 28 28 27 28 28 28 28 28 27 25 29 29 29 30 29 30 29 29 28 29 30 32 33 33 34 34 34 35 34 34 32 31 29 25 25 25 24
26 27 29 24 29 29 29 28 28 27 27 28 27 27 28 28 28 29 29 29 30 28 28 29 29 27 28 31 31 29 32 32 33 34 34 33 30 33 28 28 26 23 24 23 24

GFSSW_925_temp_114.txt.gz
Temp
11 10 10 10 10 10 10 10 10 10 10 11 11 13 15 17 19 18 23 27 27 26 26 28 29 30 32 33 32 31 27 28 28 26 24 28 32 30 32 32 33 33 32 33 32
10 10 10 10 10 10 10 10 10 10 10 11 12 14 15 16 15 22 25 26 26 26 26 29 31 32 32 33 32 29 27 29 30 29 26 29 28 31 32 34 33 32 33 32 32
11 10 10 10 10 10 10 10 10 11 11 11 12 15 17 16 21 29 28 26 26 26 27 30 32 33 33 34 33 30 28 30 30 29 26 28 32 34 33 31 33 31 32 33 32
12 11 12 12 12 11 10 11 11 11 11 12 14 16 17 15 27 26 25 26 26 25 26 31 33 33 33 33 34 30 30 29 29 28 25 28 32 33 33 32 34 33 33 33 32
15 15 15 15 15 14 12 12 11 10 11 12 14 15 16 23 27 26 26 25 25 25 28 31 32 34 33 34 32 30 30 29 28 28 26 25 31 31 29 32 34 33 33 32 33
17 17 17 16 16 16 16 16 15 14 13 13 13 14 18 25 30 28 26 24 27 27 29 32 33 35 35 33 31 30 30 29 26 27 26 29 29 32 30 34 33 33 32 33 33
17 17 17 17 18 18 18 18 18 17 16 16 16 13 22 27 29 29 28 27 28 28 31 32 34 35 35 32 32 31 29 27 26 25 27 29 28 31 33 34 33 33 33 33 34
17 17 17 18 18 18 18 18 18 18 18 17 16 16 24 29 28 29 29 29 29 30 32 33 34 34 34 32 31 30 27 25 25 24 24 25 27 29 33 33 33 33 33 33 33
17 17 18 18 18 19 19 18 17 18 19 17 15 19 28 28 28 30 30 31 31 31 32 33 34 33 34 32 31 31 27 24 23 22 22 24 27 28 30 33 33 33 33 33 32
17 18 18 18 19 19 18 18 16 17 18 17 19 24 28 30 31 30 30 31 32 33 33 33 32 32 33 33 31 29 31 26 24 22 22 23 23 28 26 28 33 33 33 33 32
17 18 18 18 19 20 19 17 21 22 22 27 28 29 31 31 30 31 31 31 32 32 30 31 30 31 33 34 33 32 29 25 25 23 23 21 21 23 25 26 30 33 32 31 32
17 18 18 19 19 19 18 24 29 29 28 30 31 30 31 31 30 31 31 31 31 30 32 32 31 34 35 34 31 32 31 25 24 22 23 21 22 23 23 24 28 31 32 31 30
17 18 19 19 20 19 22 26 28 28 28 30 31 31 31 31 31 31 32 32 31 31 32 32 33 35 35 34 32 32 32 27 25 22 23 22 21 21 22 23 24 27 31 31 28
17 18 19 20 18 24 27 28 28 29 26 29 30 31 31 31 31 33 32 33 32 31 32 33 35 35 35 33 33 33 28 25 23 23 24 24 23 21 22 22 22 24 30 28 25
18 19 19 19 16 25 29 29 28 29 23 31 31 32 32 31 32 32 33 33 32 32 33 33 34 35 34 35 33 30 31 27 25 23 25 24 24 22 21 21 22 24 29 29 29
18 19 19 19 16 25 27 28 29 25 25 30 31 31 30 32 32 32 32 33 34 33 34 34 36 36 35 35 35 33 30 27 23 21 24 27 27 24 22 24 26 27 28 29 30
19 20 19 18 27 28 28 29 25 26 31 30 31 31 31 31 32 31 31 31 31 30 31 33 34 35 35 34 35 33 32 28 25 26 27 29 29 27 26 27 28 27 28 30 29
21 22 21 24 26 27 28 28 25 30 30 31 32 30 27 30 32 31 31 31 32 33 33 32 31 33 35 35 34 33 33 31 28 27 27 27 28 27 29 29 29 30 28 30 30
22 22 23 26 25 26 28 27 28 30 31 31 31 30 30 31 31 31 32 32 33 33 32 32 33 35 35 35 35 34 32 35 31 24 28 23 22 30 30 29 28 28 28 28 26
20 26 30 30 29 28 28 28 30 31 31 31 29 30 28 29 31 31 30 33 32 33 34 33 31 35 35 35 35 35 36 33 31 27 27 25 25 23 29 30 31 30 30 30 29
22 28 31 30 29 30 28 30 30 31 31 30 30 30 29 28 30 31 30 31 33 32 32 32 32 33 34 33 33 33 33 34 35 32 28 27 30 26 26 22 31 30 31 31 31
27 28 31 30 30 31 31 31 24 31 31 31 31 31 30 30 30 30 27 31 32 33 31 32 32 32 33 35 35 34 34 34 33 33 34 33 32 27 26 27 32 30 30 31 31
27 30 31 31 29 30 31 31 31 31 31 30 30 31 31 30 29 29 27 31 31 31 29 31 31 30 31 34 34 34 34 35 35 35 34 33 29 29 29 29 32 32 31 30 31
27 29 32 32 32 31 30 31 30 31 31 30 30 31 30 30 31 29 29 29 31 31 26 29 30 30 28 29 29 30 32 35 35 33 34 35 31 32 33 32 33 33 32 28 26
28 30 32 30 31 31 31 30 30 30 30 30 29 30 29 28 30 30 30 29 30 26 30 30 29 30 31 30 31 30 31 33 34 34 34 35 33 32 33 33 32 33 33 28 28
27 29 31 31 30 30 26 30 29 30 29 29 29 30 29 29 28 28 29 30 29 29 29 31 29 30 29 31 30 30 31 32 34 35 35 35 35 33 27 22 20 30 30 27 27
29 29 29 28 30 30 30 30 29 29 29 29 29 29 29 29 29 30 30 31 30 27 22 24 28 28 27 30 28 29 31 31 33 35 34 33 27 27 25 20 18 24 28 24 24

GFSSW_925_temp_117.txt.gz
Temp
11 11 10 10 10 10 10 10 10 10 11 11 12 13 14 18 19 18 18 24 25 26 26 27 27 28 28 29 30 29 24 26 25 26 26 26 29 29 32 31 31 31 29 29 29
11 11 10 11 11 11 11 10 10 10 10 11 11 13 15 15 15 18 24 24 26 26 26 26 28 29 28 30 30 27 25 27 24 27 26 25 28 31 28 29 30 30 30 30 27
10 11 13 13 13 13 12 12 12 11 11 12 12 14 15 15 17 24 26 26 25 26 26 27 29 30 29 31 31 29 26 29 26 27 26 25 26 31 27 28 30 30 30 30 28
14 14 14 15 16 16 16 15 13 12 12 13 13 15 16 15 24 27 28 27 25 26 26 27 28 29 29 30 32 28 30 30 28 27 26 25 25 26 29 30 31 31 31 31 29
16 16 16 17 18 18 17 16 16 15 14 13 14 15 15 17 22 27 27 26 25 25 26 26 27 29 29 32 29 29 29 28 28 26 25 23 24 27 29 31 32 32 32 30 29
17 17 17 18 18 18 18 18 18 17 16 15 15 15 14 20 28 27 26 26 25 25 26 27 29 31 31 31 28 28 25 27 26 25 25 24 23 27 29 30 31 31 31 30 29
16 17 17 18 18 19 19 19 18 18 17 17 16 13 18 20 29 28 27 26 26 26 26 28 29 30 32 31 29 28 26 26 25 24 25 23 23 28 29 31 31 31 30 31 30
17 17 17 18 18 19 19 20 18 18 19 18 16 14 18 27 28 29 28 27 27 28 28 29 31 30 31 30 27 26 25 24 24 24 23 24 25 29 29 31 30 30 31 32 31
17 17 17 18 18 19 19 20 18 18 19 18 15 15 21 28 28 28 29 29 29 29 29 30 31 30 31 29 24 24 24 23 23 22 23 23 26 27 27 31 30 30 31 31 30
17 17 18 18 19 19 20 19 17 17 18 15 17 19 23 28 30 29 30 30 29 29 29 30 28 27 27 28 27 23 24 24 23 22 22 22 22 23 25 26 30 30 31 28 30
17 18 18 18 19 19 20 19 16 16 20 22 25 26 30 30 30 30 30 30 30 29 26 28 27 25 27 29 30 30 27 24 23 22 22 22 22 22 23 24 25 29 30 28 29
17 17 18 19 19 20 18 19 24 27 25 27 27 29 31 31 29 30 31 29 29 27 28 28 25 28 30 30 29 27 26 23 23 22 22 21 22 22 23 23 24 24 29 29 28
17 18 19 20 20 21 21 23 27 28 25 28 28 30 29 30 29 29 29 29 28 27 28 26 28 31 32 31 29 25 27 24 24 22 22 21 22 21 23 22 23 24 26 29 28
18 18 19 21 20 21 22 27 28 28 23 28 29 30 31 30 29 32 31 30 29 28 28 28 31 32 32 31 31 25 24 25 23 23 23 22 22 21 22 21 22 23 23 27 26
17 18 19 20 18 19 26 28 29 28 22 29 30 32 31 29 31 30 32 30 28 30 29 28 30 31 32 33 29 25 24 25 24 22 22 22 22 22 21 21 22 22 24 26 27
17 17 19 18 17 26 27 27 28 24 25 30 31 30 29 29 31 31 31 31 30 29 30 30 33 33 32 33 30 27 25 23 22 22 22 24 23 22 21 22 23 24 24 25 25
18 18 19 18 23 26 26 26 23 24 30 30 30 30 29 30 30 30 29 28 27 28 28 30 31 33 34 27 29 27 25 23 23 23 23 24 24 24 23 24 25 26 24 24 23
21 22 22 24 26 25 26 24 24 29 29 31 31 29 28 29 28 30 29 27 29 28 27 27 28 32 34 31 28 26 26 23 25 25 24 22 23 25 25 25 26 26 26 26 24
23 23 22 27 27 25 23 23 26 28 30 30 29 28 27 29 29 30 29 28 30 29 29 28 29 33 33 33 32 31 27 29 22 23 23 23 23 22 25 26 26 26 26 26 27
22 23 26 27 27 25 24 24 28 30 30 30 28 28 28 29 29 29 29 30 32 31 29 29 27 30 33 34 33 32 32 29 25 24 24 24 21 22 23 27 27 27 27 27 25
21 24 29 30 29 25 23 27 30 31 31 29 28 28 29 28 28 28 28 30 31 31 31 29 28 27 32 31 30 29 29 29 27 26 24 25 24 23 24 25 24 26 28 28 26
22 24 30 31 26 25 26 30 26 31 31 31 30 30 29 29 28 25 26 28 30 29 27 27 27 25 28 32 32 31 30 29 25 26 27 24 26 28 25 25 26 25 27 28 27
20 25 29 31 25 27 30 30 31 30 29 29 29 29 29 28 24 25 27 30 31 28 26 26 24 24 27 27 28 29 30 30 28 27 27 28 25 26 26 26 29 28 26 27 27
19 24 27 27 28 28 29 30 29 31 30 30 29 28 28 28 28 24 27 30 31 29 27 26 26 25 24 27 28 27 29 29 27 26 27 28 28 26 26 26 26 27 28 28 26
21 25 28 26 28 28 29 29 30 29 30 30 29 29 27 27 26 26 28 29 28 27 28 27 24 26 26 30 30 28 29 29 27 24 26 29 27 25 22 24 21 23 26 25 25
20 24 27 26 28 29 26 29 29 28 27 27 27 29 29 25 26 25 26 26 26 27 27 24 23 24 25 27 27 28 28 28 27 24 22 27 24 24 22 22 22 20 22 23 24
22 23 23 24 27 28 28 29 28 27 28 29 28 27 27 27 27 27 26 26 27 27 24 24 23 23 24 25 26 25 25 25 26 24 22 22 23 23 22 22 23 21 22 21 20

GFSSW_925_temp_123.txt.gz
Temp
12 13 14 14 12 12 11 11 10 10 10 11 12 13 15 17 18 17 16 25 26 25 25 25 24 25 26 25 24 24 23 23 23 23 25 26 28 28 28 27 27 27 25 23 21
15 15 16 15 15 14 14 13 12 11 11 11 11 13 16 17 16 15 26 25 25 25 25 24 24 25 24 25 24 24 23 24 24 24 23 25 28 27 27 27 26 25 25 23 21
16 17 16 16 17 16 16 16 14 13 12 12 12 13 16 15 15 21 26 26 25 25 25 25 26 26 25 26 27 25 26 26 23 25 24 24 27 28 27 26 26 24 24 23 22
16 17 17 17 18 18 17 17 16 16 15 14 14 15 15 14 24 26 26 26 25 24 25 25 25 25 25 26 27 26 28 25 25 25 25 25 26 26 27 27 27 25 25 24 23
16 17 17 17 18 18 18 18 18 17 17 16 16 16 15 16 19 26 26 26 24 24 24 24 24 25 26 27 26 26 27 25 24 25 25 24 24 23 25 27 27 26 25 24 24
16 17 17 17 18 18 18 18 19 18 17 17 16 15 14 20 25 26 26 25 24 24 24 24 24 26 26 26 27 26 24 24 23 22 23 23 21 23 26 26 27 26 25 24 24
16 17 17 18 18 18 18 18 19 18 17 18 16 13 14 20 25 25 25 24 24 25 22 25 25 25 25 26 25 25 24 23 23 23 22 24 22 22 24 26 26 26 26 25 24
17 17 17 18 18 18 19 18 19 18 18 17 16 14 16 25 25 25 24 24 24 24 25 26 27 26 26 25 23 25 25 24 23 23 23 23 23 23 23 27 27 26 26 25 25
17 17 18 18 18 19 20 20 19 17 17 16 15 15 20 25 24 27 26 25 24 23 25 26 26 25 26 24 22 21 23 23 23 22 22 23 23 21 23 27 27 27 27 26 25
17 17 18 19 19 19 20 20 18 17 16 15 15 17 23 26 27 27 27 26 25 23 25 25 22 22 22 21 22 23 23 24 22 22 21 23 22 22 21 23 26 27 26 26 25
17 18 19 19 20 20 21 19 17 18 16 21 22 23 24 27 28 28 27 26 27 26 24 25 22 23 24 24 25 24 24 23 22 21 21 22 22 22 20 21 23 23 26 25 25
17 18 19 20 20 20 19 18 22 23 20 20 21 21 24 25 26 28 28 26 25 24 24 22 23 24 25 26 27 25 23 23 23 21 21 21 22 21 22 22 22 23 25 26 25
18 18 19 20 21 20 18 21 23 22 19 22 22 23 25 26 27 27 27 26 25 24 24 23 25 26 27 27 26 25 24 23 23 22 22 21 21 21 21 22 22 23 23 26 25
17 18 20 21 19 19 20 23 23 22 18 23 26 27 27 27 27 28 27 28 27 25 24 24 25 27 26 27 26 24 26 25 24 22 23 22 22 21 20 21 22 22 22 25 24
18 18 20 21 18 18 24 23 23 22 21 27 27 28 26 26 28 28 28 27 26 26 25 25 27 26 26 27 26 25 25 24 24 22 23 22 22 23 21 21 22 22 22 23 25
19 19 20 19 18 24 24 25 23 20 24 27 28 27 27 27 27 28 28 28 27 26 25 25 27 26 26 28 27 25 22 22 22 22 21 23 22 23 21 22 23 23 24 23 24
21 21 21 20 21 24 24 21 20 21 25 26 27 27 26 26 27 26 27 26 24 25 25 26 27 25 25 23 24 23 22 21 22 22 21 21 22 23 24 23 24 23 24 23 24
21 24 24 25 25 24 23 20 22 25 25 27 26 27 26 27 27 27 26 25 26 25 24 25 26 24 26 24 23 22 23 23 23 23 23 22 23 23 25 26 25 25 25 23 23
21 22 23 27 26 23 18 19 21 24 26 26 26 25 25 26 27 25 26 25 26 24 24 24 26 28 27 26 24 24 24 24 21 21 22 22 23 24 24 25 24 25 25 23 23
21 20 22 24 24 23 18 20 21 23 27 26 26 26 25 24 25 24 24 25 26 26 24 25 26 27 28 27 26 25 24 23 21 23 23 23 22 23 24 23 23 24 24 24 23
19 19 24 24 25 18 19 19 23 24 27 26 25 25 25 26 25 24 24 26 26 26 24 24 23 26 27 27 25 26 25 21 21 21 22 24 23 22 24 23 22 23 24 24 24
15 20 23 23 20 14 19 20 24 27 26 27 26 26 26 25 25 25 25 25 27 25 25 24 21 23 27 26 26 27 27 23 22 25 21 23 25 23 23 22 23 23 24 25 25
12 13 22 22 20 18 19 23 25 27 27 27 26 26 24 25 25 24 25 27 27 26 26 25 20 21 21 22 25 24 23 22 18 18 22 24 25 21 23 23 23 23 24 24 24
12 18 17 17 17 22 22 21 25 27 27 26 25 25 24 22 21 25 24 27 26 26 23 21 20 23 20 23 22 23 22 21 20 20 20 21 20 20 20 21 21 23 24 24 24
11 17 18 19 20 20 20 22 26 26 25 24 24 23 24 23 22 22 23 23 25 23 23 21 21 23 23 23 23 23 22 22 21 21 21 20 20 19 20 20 20 20 22 23 23
14 16 15 16 17 20 20 24 25 25 26 25 23 23 22 23 24 24 24 24 24 23 22 18 20 23 23 23 22 21 22 22 22 21 21 20 20 18 18 20 19 19 20 21 22
14 15 15 16 18 20 21 22 25 25 25 25 23 22 23 25 23 23 22 20 21 23 21 20 18 19 22 21 22 21 20 21 21 21 20 20 20 19 20 19 18 19 19 19 19

GFSSW_925_temp_129.txt.gz
Temp
14 14 16 16 16 15 14 13 13 13 12 12 13 14 16 18 18 17 19 24 24 24 24 24 24 25 26 27 26 26 25 24 24 24 24 26 28 28 28 27 27 26 27 25 21
16 16 17 17 17 17 17 16 16 15 14 15 14 14 14 17 15 16 24 24 24 24 24 25 26 26 28 27 27 27 27 27 26 24 23 25 27 26 27 27 25 24 24 22 22
16 16 17 17 17 17 17 17 16 17 16 17 16 15 15 15 17 25 23 24 24 24 25 25 26 27 28 27 28 26 27 26 26 25 24 25 27 28 27 27 26 25 24 24 23
16 17 17 17 18 18 18 18 17 17 18 18 17 16 15 15 25 24 24 24 23 24 25 26 27 27 28 28 28 28 26 27 25 25 24 25 27 27 27 26 27 26 25 24 24
17 17 17 17 18 18 18 18 18 18 18 18 17 16 15 21 25 24 24 24 23 24 25 26 27 27 28 28 28 28 26 24 25 25 24 24 24 26 25 27 26 25 25 25 25
17 17 17 18 18 18 18 19 19 19 18 18 17 16 15 25 22 23 23 22 23 24 24 26 27 28 28 27 27 26 25 25 25 25 24 23 22 24 23 26 26 25 25 25 25
17 17 18 18 18 19 19 19 20 19 18 18 17 15 18 24 23 23 23 23 23 24 26 25 26 28 27 26 26 26 25 25 24 24 23 23 21 22 21 25 26 25 25 25 25
17 17 18 18 19 19 20 20 20 19 18 18 17 15 24 23 23 23 23 23 23 24 24 25 25 28 28 26 26 26 26 26 23 24 24 24 23 21 21 22 26 26 25 25 26
16 17 18 18 19 20 20 20 18 18 18 17 15 17 26 23 23 23 24 24 22 23 24 25 27 27 28 28 27 26 27 26 24 23 23 24 24 23 21 22 25 26 26 26 26
16 16 18 19 19 20 20 18 17 17 16 15 15 21 25 26 24 23 24 24 24 25 26 26 26 27 27 28 28 27 26 25 25 23 23 23 22 21 21 21 22 26 27 27 27
16 17 18 19 20 21 19 17 20 21 17 24 24 24 25 25 25 24 24 25 26 26 26 25 27 28 28 28 27 28 27 26 24 23 24 23 23 22 21 21 22 25 27 27 27
16 17 19 20 21 22 20 23 22 21 23 22 21 22 23 24 27 25 25 27 26 26 25 26 27 27 27 27 27 27 27 25 25 23 24 23 24 22 22 23 25 25 27 27 28
16 18 19 20 21 20 20 21 21 20 23 25 24 25 26 25 27 27 27 26 26 26 26 27 28 27 28 27 27 27 27 27 27 24 23 23 25 23 22 21 23 25 26 27 28
17 19 20 21 19 20 21 21 20 20 26 27 27 27 26 27 28 27 27 28 27 27 26 28 27 27 28 28 29 28 27 27 25 26 26 25 24 24 24 23 22 25 26 27 27
18 20 20 21 20 20 22 21 21 21 25 28 28 27 27 28 28 28 27 29 27 27 27 27 27 27 28 29 28 28 27 26 26 26 25 23 24 26 24 24 23 23 25 27 27
19 20 21 20 20 22 22 22 21 26 25 27 28 28 28 27 28 28 29 29 27 27 27 28 27 28 29 27 29 27 26 25 25 25 25 26 26 28 23 25 26 25 26 27 27
20 21 21 20 22 22 22 22 26 26 26 27 27 27 27 27 27 28 28 28 27 27 27 27 27 27 27 27 27 28 28 26 25 25 26 25 24 28 27 27 28 26 26 27 27
21 22 22 22 21 22 22 25 25 26 26 27 26 27 27 27 26 27 27 27 27 27 27 27 27 27 27 29 28 28 29 28 26 26 27 24 26 28 27 27 28 27 27 26 27
21 21 21 21 22 21 25 26 26 26 26 27 27 27 27 27 27 27 27 27 27 27 27 26 28 26 27 27 28 26 27 27 26 25 26 27 27 27 27 26 26 26 26 26 26
19 19 19 21 21 21 25 23 25 24 25 27 27 26 27 27 27 27 27 28 28 26 26 27 27 27 27 27 26 28 28 27 26 26 27 28 27 27 25 24 25 26 26 26 25
17 23 20 20 21 24 26 25 24 25 25 27 26 27 27 27 26 26 26 28 28 28 26 27 27 27 27 27 28 26 27 27 27 27 27 28 28 25 23 23 24 26 26 26 24
16 25 19 20 24 19 25 23 23 26 26 27 27 27 27 26 26 26 27 27 27 27 28 25 27 28 28 27 26 27 27 29 29 28 26 27 28 24 23 24 25 26 27 27 26
17 18 20 20 25 24 22 24 25 26 27 27 27 26 25 26 26 25 26 27 26 26 26 26 26 27 27 28 27 26 25 25 27 26 27 28 29 25 23 24 24 25 26 27 27
16 23 22 20 19 24 24 25 26 25 26 25 26 26 25 25 24 26 26 27 26 26 22 25 25 25 27 26 25 26 25 24 27 29 27 26 26 25 22 21 22 23 24 25 25
15 20 18 23 22 22 23 23 26 26 26 25 25 26 26 26 25 25 26 27 27 23 25 26 25 24 24 24 25 24 25 26 26 25 27 24 24 23 21 20 20 21 23 25 23
17 18 18 19 18 21 19 23 25 26 26 27 26 25 25 26 26 26 26 26 26 27 25 24 24 24 24 24 24 25 24 24 24 24 24 24 24 21 20 20 20 20 20 24 23
11 12 16 18 20 22 23 24 24 24 25 26 26 25 25 26 25 23 23 23 24 25 25 24 24 24 24 23 25 25 23 24 24 23 24 25 23 22 21 20 19 18 18 19 22

GFSSW_925_temp_132.txt.gz
Temp
16 16 17 17 17 17 17 17 17 16 14 14 14 16 17 18 19 17 25 26 24 24 24 26 27 28 29 31 30 30 28 26 27 26 28 30 30 30 31 30 31 30 31 29 26
16 16 17 17 17 18 18 17 17 16 16 16 16 16 18 18 17 23 25 24 24 24 26 28 30 30 32 32 32 31 30 28 28 26 27 28 30 28 30 30 29 29 29 27 26
16 17 17 17 17 17 18 18 18 18 18 18 18 18 17 15 23 28 24 24 24 24 27 29 30 31 32 32 32 31 29 30 28 27 24 28 30 31 31 30 31 29 28 28 27
16 17 17 17 17 18 18 18 18 18 19 18 18 18 17 17 29 26 23 24 24 25 27 29 31 31 32 32 32 29 30 30 27 27 27 28 30 29 31 30 31 31 30 29 29
16 17 17 18 18 18 18 19 19 19 19 19 19 18 17 26 27 24 23 24 24 26 29 31 31 32 32 32 32 31 29 28 28 28 25 26 27 29 27 30 31 31 30 29 30
17 17 18 18 18 19 19 19 19 20 20 19 19 17 20 28 24 23 23 24 26 28 29 30 31 32 32 32 32 31 30 28 28 28 26 23 24 25 24 30 30 30 30 30 30
17 17 18 18 19 19 20 20 20 20 20 19 19 15 25 27 24 24 25 26 26 28 30 29 30 32 32 31 31 30 29 29 28 28 26 23 22 23 23 28 29 30 30 30 30
17 18 18 19 19 20 20 21 20 19 19 19 18 18 28 24 25 25 26 26 26 27 28 28 29 32 32 31 30 30 30 29 27 27 27 26 23 23 22 25 29 30 30 30 30
17 17 18 19 20 20 21 19 18 18 19 18 18 22 28 24 26 27 27 28 27 27 27 28 30 32 31 31 31 31 31 30 27 27 27 27 27 23 23 22 26 30 31 30 30
16 17 19 19 20 21 20 18 18 18 17 16 19 26 28 29 27 26 26 27 28 29 29 30 31 31 32 33 32 32 31 30 29 27 27 27 26 26 22 22 23 29 31 31 31
16 17 19 20 21 21 18 18 24 25 23 28 29 29 30 28 27 28 27 29 29 30 30 30 31 31 32 33 32 32 31 30 29 27 28 28 28 26 25 23 22 26 30 31 31
16 18 19 20 21 22 19 28 26 25 29 28 28 28 28 29 29 29 28 30 29 30 30 29 31 33 32 31 31 32 31 30 29 28 28 28 28 26 25 24 22 24 28 31 32
17 19 20 21 22 21 23 25 23 23 29 30 30 30 31 29 30 29 30 30 30 29 30 31 32 31 31 31 31 32 32 31 30 28 28 28 28 26 25 25 22 26 29 32 32
17 19 21 21 19 22 26 23 22 22 30 30 31 31 30 31 30 31 30 31 30 30 30 31 31 30 31 31 32 32 32 30 29 30 30 29 30 28 25 25 23 29 29 32 32
18 20 21 21 19 26 24 23 22 25 28 30 31 30 31 31 31 30 30 31 30 30 30 30 30 30 30 31 32 32 31 31 30 30 30 31 30 29 26 27 27 28 30 31 32
19 20 21 19 18 23 22 22 24 29 27 30 31 31 31 31 31 31 30 31 31 30 31 31 31 32 32 32 32 32 31 30 30 31 30 32 31 31 29 29 31 29 30 31 33
20 21 21 20 27 21 22 27 29 29 30 30 30 31 31 31 30 31 30 30 30 29 29 30 30 32 31 31 32 31 31 30 30 30 31 31 30 32 31 31 31 31 30 30 32
20 21 21 20 20 21 25 29 28 29 30 31 31 31 31 31 30 31 30 31 31 31 31 30 29 31 32 32 31 31 32 32 28 28 29 30 29 31 31 31 31 32 33 29 31
20 19 20 21 20 20 28 29 29 30 30 30 31 30 30 31 31 31 31 31 31 31 30 31 31 32 32 33 32 32 31 34 31 31 31 32 32 32 32 30 30 31 31 30 30
18 24 25 20 20 25 29 27 30 30 30 30 30 30 30 30 30 30 30 31 31 31 31 31 30 31 31 31 31 31 33 31 31 27 28 32 32 31 29 29 29 30 30 30 29
20 28 23 21 22 29 29 30 30 30 30 30 30 30 30 30 30 30 31 31 31 31 31 32 31 30 30 30 31 31 31 31 31 30 26 28 28 29 27 28 29 29 30 29 29
23 28 22 22 28 29 30 30 23 31 31 31 31 31 30 30 30 30 30 30 30 31 31 31 32 31 31 31 31 31 31 32 29 26 31 23 30 29 27 28 29 29 30 30 26
24 27 23 24 28 29 29 30 30 30 31 31 30 31 30 30 29 30 30 30 30 31 30 31 31 30 30 31 30 31 32 32 33 21 23 30 30 29 28 27 27 28 29 29 28
22 27 27 27 28 29 29 30 30 30 30 31 30 30 30 30 30 29 30 30 30 30 22 28 31 30 29 30 30 30 30 31 32 31 32 31 31 30 27 25 24 25 27 29 28
23 26 24 28 28 29 29 29 29 29 30 30 29 30 30 29 29 29 30 30 30 25 29 30 29 29 30 29 30 30 30 30 31 31 31 29 30 28 25 22 21 21 24 27 26
22 23 24 26 25 27 23 28 29 30 30 30 29 30 30 29 29 29 29 29 30 30 30 30 28 29 28 29 29 30 29 28 30 30 30 29 28 25 23 22 20 20 21 27 26
17 18 21 23 26 27 28 28 29 29 30 31 30 30 29 30 30 29 30 30 30 29 29 29 29 28 28 28 28 28 29 29 29 28 29 30 27 25 23 21 18 18 18 17 18

GFSSW_925_temp_135.txt.gz
Temp
16 16 17 17 18 18 18 17 17 16 15 16 18 19 19 19 20 19 27 27 27 26 26 29 30 31 32 35 34 34 27 24 26 27 26 33 32 33 33 33 34 34 33 32 30
16 16 17 17 18 18 18 18 18 17 17 18 18 19 19 19 19 27 26 26 26 26 27 31 32 33 34 34 35 30 29 30 29 26 25 31 28 32 32 32 33 33 33 31 30
16 17 17 17 18 18 19 18 18 19 19 19 19 19 19 17 25 30 25 25 25 25 28 32 33 34 35 36 35 32 31 32 31 27 29 31 32 32 30 31 32 32 31 31 30
17 17 17 17 18 18 19 19 19 19 19 20 20 19 18 18 30 28 25 25 25 26 30 32 33 33 35 33 34 32 32 32 30 28 29 30 31 31 30 32 34 33 32 31 32
17 17 17 18 18 19 19 20 20 20 20 20 20 19 17 27 30 27 25 25 25 28 31 33 34 34 35 36 35 31 32 31 31 30 28 30 28 30 30 32 34 33 32 32 32
17 17 18 18 19 19 20 20 20 21 21 20 19 18 21 30 28 27 26 26 29 30 32 34 35 36 35 35 35 34 33 31 31 30 29 28 26 28 29 31 33 32 32 32 31
17 18 18 18 19 20 20 21 21 21 21 20 19 17 29 29 28 28 28 29 30 31 33 33 34 34 35 35 35 34 31 32 30 29 28 26 23 26 25 28 32 32 32 31 30
17 17 18 19 20 20 21 21 20 20 20 20 19 20 30 28 29 29 29 29 30 30 32 32 32 34 35 35 34 33 33 31 31 31 29 29 23 22 23 25 30 31 31 31 31
18 18 18 19 20 21 21 21 19 20 20 20 19 25 30 27 29 30 30 31 30 31 31 31 32 34 35 34 34 34 30 25 30 30 29 29 27 24 22 25 27 27 31 31 31
17 18 19 20 21 22 21 20 19 20 20 20 23 29 31 31 30 30 30 30 31 32 32 32 33 34 34 35 32 31 33 32 30 30 30 29 28 27 24 24 25 26 28 31 31
17 18 20 21 21 22 21 20 24 27 28 31 32 32 32 31 30 31 30 31 32 32 32 33 32 33 35 36 34 34 34 31 29 31 30 30 29 27 25 24 24 24 27 30 30
18 19 20 21 22 23 21 31 29 29 31 32 32 32 32 32 31 32 31 32 32 32 33 33 32 35 36 36 34 34 34 32 32 31 31 30 31 29 27 27 26 24 28 27 32
18 20 21 22 23 22 27 29 28 28 31 32 33 33 33 32 32 32 32 33 32 32 32 33 34 35 35 33 33 34 34 32 31 28 32 31 31 29 29 28 26 24 26 27 28
18 20 21 22 21 28 29 28 28 28 31 32 32 33 33 34 32 33 33 33 32 32 33 33 35 34 33 33 34 34 35 33 32 32 29 32 31 30 30 28 25 24 27 30 30
18 20 22 21 19 29 29 28 28 29 30 33 33 33 34 33 33 32 33 33 32 32 33 33 33 32 32 34 35 32 33 33 33 33 34 35 33 32 31 28 27 25 29 31 30
19 20 22 22 21 27 28 28 29 30 30 32 34 33 33 33 33 33 32 33 34 33 33 33 34 34 34 35 35 35 33 33 33 33 33 35 34 27 29 31 31 28 31 32 31
20 21 22 21 29 27 28 30 30 31 33 32 33 34 34 33 33 33 32 32 32 31 32 33 33 34 34 33 35 34 33 32 32 33 33 28 34 29 27 34 32 28 31 32 31
21 22 23 23 26 26 28 31 29 32 33 34 33 33 33 33 33 33 33 33 33 33 33 32 31 33 34 33 34 33 34 33 30 27 29 28 32 25 34 34 35 33 32 33 30
22 23 24 27 25 26 30 31 32 33 34 33 33 33 33 33 33 33 33 34 34 34 32 33 33 34 35 34 34 34 33 36 32 33 32 28 30 32 34 34 34 34 34 32 33
18 28 30 27 26 28 30 29 33 33 33 33 32 33 33 33 32 33 33 34 33 33 34 34 31 34 34 34 35 34 35 33 34 29 29 27 23 26 32 32 32 33 34 33 33
20 30 29 27 27 30 30 33 33 33 33 33 33 33 33 33 33 33 33 33 33 33 34 34 33 29 34 33 25 33 33 34 34 30 27 27 24 32 30 32 32 33 33 33 33
26 29 27 27 29 31 32 33 26 34 33 33 33 33 33 33 33 33 33 33 33 34 33 34 33 31 31 31 27 23 28 31 30 30 26 25 22 31 31 31 32 32 32 31 29
26 31 28 28 29 31 33 33 33 33 33 33 32 33 33 32 31 32 33 33 33 33 32 33 33 32 32 33 30 30 28 26 21 25 28 25 27 32 31 30 30 31 31 30 28
25 29 31 30 31 32 32 32 32 33 33 33 33 33 32 32 32 31 32 33 32 33 27 30 33 32 30 27 26 29 30 25 22 21 27 31 29 24 28 28 27 27 29 31 28
26 28 29 30 30 31 32 33 32 32 32 33 32 32 32 31 32 31 32 33 32 26 30 32 31 32 32 31 30 26 25 31 32 31 28 21 22 26 27 23 24 24 28 29 27
24 26 28 29 30 30 28 31 31 32 33 32 31 32 32 31 31 31 32 32 32 32 32 33 31 31 31 32 32 32 33 33 32 32 26 21 21 28 25 23 22 23 21 23 27
22 22 23 26 29 29 30 31 31 32 33 33 33 32 31 32 32 33 33 33 33 31 31 31 31 30 30 29 28 31 32 32 32 32 31 30 27 29 26 23 21 22 21 19 18